<?xml version="1.0" encoding="UTF-8" standalone="no" ?>
<gpx xmlns="http://www.topografix.com/GPX/1/1" xmlns:xsi="http://www.w3.org/2001/XMLSchema-instance" xsi:schemaLocation="http://www.topografix.com/GPX/1/1 http://www.topografix.com/GPX/1/1/gpx.xsd" version="1.1" creator="VisuGPX - https://www.visugpx.com">
  <metadata>
    <name>SSE 66km</name>
  </metadata>
  <trk>
    <name><![CDATA[SSE 66km_2]]></name>
    <trkseg>
      <trkpt lat="47.2556" lon="-1.54008">
        <ele>11.6</ele>
        <time>2020-07-14T09:13:02Z</time>
      </trkpt>
      <trkpt lat="47.25575" lon="-1.53999">
        <ele>11.9025</ele>
        <time>2020-07-14T09:13:04Z</time>
      </trkpt>
      <trkpt lat="47.25598" lon="-1.53993">
        <ele>12.34125</ele>
        <time>2020-07-14T09:13:07Z</time>
      </trkpt>
      <trkpt lat="47.25614" lon="-1.53979">
        <ele>11.07375</ele>
        <time>2020-07-14T09:13:10Z</time>
      </trkpt>
      <trkpt lat="47.25611" lon="-1.53975">
        <ele>10.23625</ele>
        <time>2020-07-14T09:13:13Z</time>
      </trkpt>
      <trkpt lat="47.25564" lon="-1.53998">
        <ele>11.016109</ele>
        <time>2020-07-14T09:13:23Z</time>
      </trkpt>
      <trkpt lat="47.25497" lon="-1.54021">
        <ele>6.671859</ele>
        <time>2020-07-14T09:13:35Z</time>
      </trkpt>
      <trkpt lat="47.25434" lon="-1.54018">
        <ele>5.988012</ele>
        <time>2020-07-14T09:13:44Z</time>
      </trkpt>
      <trkpt lat="47.25398" lon="-1.54032">
        <ele>6.600125</ele>
        <time>2020-07-14T09:13:50Z</time>
      </trkpt>
      <trkpt lat="47.25278" lon="-1.54064">
        <ele>6.5855</ele>
        <time>2020-07-14T09:14:09Z</time>
      </trkpt>
      <trkpt lat="47.25221" lon="-1.54073">
        <ele>5.6062</ele>
        <time>2020-07-14T09:14:18Z</time>
      </trkpt>
      <trkpt lat="47.25177" lon="-1.54088">
        <ele>5.715</ele>
        <time>2020-07-14T09:14:26Z</time>
      </trkpt>
      <trkpt lat="47.2514" lon="-1.54091">
        <ele>5.265</ele>
        <time>2020-07-14T09:14:35Z</time>
      </trkpt>
      <trkpt lat="47.25136" lon="-1.54099">
        <ele>5.685</ele>
        <time>2020-07-14T09:14:38Z</time>
      </trkpt>
      <trkpt lat="47.25082" lon="-1.54133">
        <ele>6.202513</ele>
        <time>2020-07-14T09:14:50Z</time>
      </trkpt>
      <trkpt lat="47.24976" lon="-1.54259">
        <ele>6.399656</ele>
        <time>2020-07-14T09:15:31Z</time>
      </trkpt>
      <trkpt lat="47.24954" lon="-1.54296">
        <ele>6.904406</ele>
        <time>2020-07-14T09:15:38Z</time>
      </trkpt>
      <trkpt lat="47.24935" lon="-1.54315">
        <ele>6.422613</ele>
        <time>2020-07-14T09:15:42Z</time>
      </trkpt>
      <trkpt lat="47.24873" lon="-1.54391">
        <ele>7.81525</ele>
        <time>2020-07-14T09:15:57Z</time>
      </trkpt>
      <trkpt lat="47.24817" lon="-1.54446">
        <ele>7.072731</ele>
        <time>2020-07-14T09:16:09Z</time>
      </trkpt>
      <trkpt lat="47.2478" lon="-1.54491">
        <ele>6.781435</ele>
        <time>2020-07-14T09:16:22Z</time>
      </trkpt>
      <trkpt lat="47.24774" lon="-1.54495">
        <ele>6.45415</ele>
        <time>2020-07-14T09:16:24Z</time>
      </trkpt>
      <trkpt lat="47.24739" lon="-1.54543">
        <ele>4.756594</ele>
        <time>2020-07-14T09:16:39Z</time>
      </trkpt>
      <trkpt lat="47.24728" lon="-1.54546">
        <ele>4.950275</ele>
        <time>2020-07-14T09:16:41Z</time>
      </trkpt>
      <trkpt lat="47.24725" lon="-1.54542">
        <ele>4.909462</ele>
        <time>2020-07-14T09:16:42Z</time>
      </trkpt>
      <trkpt lat="47.24718" lon="-1.54543">
        <ele>5.00615</ele>
        <time>2020-07-14T09:16:44Z</time>
      </trkpt>
      <trkpt lat="47.24709" lon="-1.54553">
        <ele>5.515875</ele>
        <time>2020-07-14T09:16:47Z</time>
      </trkpt>
      <trkpt lat="47.24681" lon="-1.54569">
        <ele>6.082838</ele>
        <time>2020-07-14T09:16:56Z</time>
      </trkpt>
      <trkpt lat="47.24673" lon="-1.54567">
        <ele>5.744775</ele>
        <time>2020-07-14T09:17:01Z</time>
      </trkpt>
      <trkpt lat="47.24656" lon="-1.54576">
        <ele>6.276725</ele>
        <time>2020-07-14T09:17:10Z</time>
      </trkpt>
      <trkpt lat="47.24644" lon="-1.54587">
        <ele>7.47235</ele>
        <time>2020-07-14T09:17:26Z</time>
      </trkpt>
      <trkpt lat="47.24635" lon="-1.54601">
        <ele>9.431638</ele>
        <time>2020-07-14T09:17:32Z</time>
      </trkpt>
      <trkpt lat="47.24563" lon="-1.54611">
        <ele>7.991468</ele>
        <time>2020-07-14T09:17:45Z</time>
      </trkpt>
      <trkpt lat="47.24549" lon="-1.54624">
        <ele>7.569531</ele>
        <time>2020-07-14T09:17:49Z</time>
      </trkpt>
      <trkpt lat="47.24523" lon="-1.54634">
        <ele>6.551234</ele>
        <time>2020-07-14T09:17:54Z</time>
      </trkpt>
      <trkpt lat="47.24478" lon="-1.5466">
        <ele>8.518825</ele>
        <time>2020-07-14T09:18:03Z</time>
      </trkpt>
      <trkpt lat="47.24469" lon="-1.5467">
        <ele>9.504782</ele>
        <time>2020-07-14T09:18:06Z</time>
      </trkpt>
      <trkpt lat="47.24455" lon="-1.54675">
        <ele>9.403188</ele>
        <time>2020-07-14T09:18:09Z</time>
      </trkpt>
      <trkpt lat="47.24453" lon="-1.5468">
        <ele>9.986406</ele>
        <time>2020-07-14T09:18:10Z</time>
      </trkpt>
      <trkpt lat="47.24418" lon="-1.54699">
        <ele>11.694437</ele>
        <time>2020-07-14T09:18:19Z</time>
      </trkpt>
      <trkpt lat="47.24382" lon="-1.54728">
        <ele>12.813251</ele>
        <time>2020-07-14T09:18:27Z</time>
      </trkpt>
      <trkpt lat="47.24373" lon="-1.5473">
        <ele>12.034515</ele>
        <time>2020-07-14T09:18:29Z</time>
      </trkpt>
      <trkpt lat="47.24338" lon="-1.54771">
        <ele>8.17125</ele>
        <time>2020-07-14T09:18:38Z</time>
      </trkpt>
      <trkpt lat="47.24325" lon="-1.54792">
        <ele>7.541131</ele>
        <time>2020-07-14T09:18:42Z</time>
      </trkpt>
      <trkpt lat="47.24277" lon="-1.54811">
        <ele>4.5687</ele>
        <time>2020-07-14T09:18:51Z</time>
      </trkpt>
      <trkpt lat="47.24271" lon="-1.54817">
        <ele>4.581875</ele>
        <time>2020-07-14T09:18:53Z</time>
      </trkpt>
      <trkpt lat="47.24269" lon="-1.54831">
        <ele>4.37665</ele>
        <time>2020-07-14T09:18:55Z</time>
      </trkpt>
      <trkpt lat="47.24271" lon="-1.54867">
        <ele>3.735991</ele>
        <time>2020-07-14T09:18:59Z</time>
      </trkpt>
      <trkpt lat="47.24281" lon="-1.5491">
        <ele>3.004637</ele>
        <time>2020-07-14T09:19:04Z</time>
      </trkpt>
      <trkpt lat="47.24302" lon="-1.54952">
        <ele>3</ele>
        <time>2020-07-14T09:19:11Z</time>
      </trkpt>
      <trkpt lat="47.24304" lon="-1.54969">
        <ele>3</ele>
        <time>2020-07-14T09:19:14Z</time>
      </trkpt>
      <trkpt lat="47.24307" lon="-1.54978">
        <ele>3</ele>
        <time>2020-07-14T09:19:15Z</time>
      </trkpt>
      <trkpt lat="47.24307" lon="-1.55008">
        <ele>3.075794</ele>
        <time>2020-07-14T09:19:19Z</time>
      </trkpt>
      <trkpt lat="47.24299" lon="-1.55078">
        <ele>3.618391</ele>
        <time>2020-07-14T09:19:27Z</time>
      </trkpt>
      <trkpt lat="47.24299" lon="-1.55152">
        <ele>4.052835</ele>
        <time>2020-07-14T09:19:38Z</time>
      </trkpt>
      <trkpt lat="47.24302" lon="-1.55168">
        <ele>4.109</ele>
        <time>2020-07-14T09:19:40Z</time>
      </trkpt>
      <trkpt lat="47.24293" lon="-1.55236">
        <ele>4.8401</ele>
        <time>2020-07-14T09:19:49Z</time>
      </trkpt>
      <trkpt lat="47.24287" lon="-1.55314">
        <ele>4.903544</ele>
        <time>2020-07-14T09:19:58Z</time>
      </trkpt>
      <trkpt lat="47.24293" lon="-1.55345">
        <ele>5.345287</ele>
        <time>2020-07-14T09:20:02Z</time>
      </trkpt>
      <trkpt lat="47.24294" lon="-1.55364">
        <ele>5.497897</ele>
        <time>2020-07-14T09:20:05Z</time>
      </trkpt>
      <trkpt lat="47.24297" lon="-1.55371">
        <ele>5.626272</ele>
        <time>2020-07-14T09:20:07Z</time>
      </trkpt>
      <trkpt lat="47.24309" lon="-1.55375">
        <ele>5.963381</ele>
        <time>2020-07-14T09:20:10Z</time>
      </trkpt>
      <trkpt lat="47.2433" lon="-1.55519">
        <ele>5.596278</ele>
        <time>2020-07-14T09:20:29Z</time>
      </trkpt>
      <trkpt lat="47.2434" lon="-1.55568">
        <ele>7.015169</ele>
        <time>2020-07-14T09:20:36Z</time>
      </trkpt>
      <trkpt lat="47.24351" lon="-1.55642">
        <ele>10.48</ele>
        <time>2020-07-14T09:20:52Z</time>
      </trkpt>
      <trkpt lat="47.24346" lon="-1.55662">
        <ele>11.043</ele>
        <time>2020-07-14T09:20:55Z</time>
      </trkpt>
      <trkpt lat="47.24335" lon="-1.55667">
        <ele>9.655794</ele>
        <time>2020-07-14T09:20:57Z</time>
      </trkpt>
      <trkpt lat="47.24304" lon="-1.55657">
        <ele>5.546028</ele>
        <time>2020-07-14T09:21:02Z</time>
      </trkpt>
      <trkpt lat="47.24235" lon="-1.55662">
        <ele>4.525262</ele>
        <time>2020-07-14T09:21:13Z</time>
      </trkpt>
      <trkpt lat="47.24231" lon="-1.55665">
        <ele>4.70375</ele>
        <time>2020-07-14T09:21:15Z</time>
      </trkpt>
      <trkpt lat="47.24233" lon="-1.55705">
        <ele>4.784425</ele>
        <time>2020-07-14T09:21:23Z</time>
      </trkpt>
      <trkpt lat="47.24232" lon="-1.55704">
        <ele>4.881275</ele>
        <time>2020-07-14T09:21:24Z</time>
      </trkpt>
      <trkpt lat="47.24251" lon="-1.55868">
        <ele>5</ele>
        <time>2020-07-14T09:21:45Z</time>
      </trkpt>
      <trkpt lat="47.24259" lon="-1.55953">
        <ele>6.591537</ele>
        <time>2020-07-14T09:21:57Z</time>
      </trkpt>
      <trkpt lat="47.24274" lon="-1.56036">
        <ele>7.421563</ele>
        <time>2020-07-14T09:22:10Z</time>
      </trkpt>
      <trkpt lat="47.24274" lon="-1.56027">
        <ele>7.205</ele>
        <time>2020-07-14T09:22:14Z</time>
      </trkpt>
      <trkpt lat="47.24272" lon="-1.56043">
        <ele>7.922937</ele>
        <time>2020-07-14T09:22:19Z</time>
      </trkpt>
      <trkpt lat="47.24275" lon="-1.5606">
        <ele>8.35225</ele>
        <time>2020-07-14T09:22:27Z</time>
      </trkpt>
      <trkpt lat="47.24292" lon="-1.56112">
        <ele>8.9775</ele>
        <time>2020-07-14T09:22:31Z</time>
      </trkpt>
      <trkpt lat="47.24299" lon="-1.56124">
        <ele>9.33005</ele>
        <time>2020-07-14T09:22:32Z</time>
      </trkpt>
      <trkpt lat="47.24328" lon="-1.56155">
        <ele>8.910744</ele>
        <time>2020-07-14T09:22:38Z</time>
      </trkpt>
      <trkpt lat="47.24348" lon="-1.56193">
        <ele>9.122803</ele>
        <time>2020-07-14T09:22:45Z</time>
      </trkpt>
      <trkpt lat="47.24374" lon="-1.56225">
        <ele>6.536219</ele>
        <time>2020-07-14T09:22:51Z</time>
      </trkpt>
      <trkpt lat="47.24378" lon="-1.56237">
        <ele>6.645109</ele>
        <time>2020-07-14T09:22:53Z</time>
      </trkpt>
      <trkpt lat="47.24377" lon="-1.56277">
        <ele>6.281953</ele>
        <time>2020-07-14T09:22:59Z</time>
      </trkpt>
      <trkpt lat="47.24372" lon="-1.56297">
        <ele>5.861712</ele>
        <time>2020-07-14T09:23:02Z</time>
      </trkpt>
      <trkpt lat="47.24364" lon="-1.56357">
        <ele>6.392462</ele>
        <time>2020-07-14T09:23:09Z</time>
      </trkpt>
      <trkpt lat="47.24368" lon="-1.56395">
        <ele>6.645281</ele>
        <time>2020-07-14T09:23:13Z</time>
      </trkpt>
      <trkpt lat="47.24366" lon="-1.5641">
        <ele>6.21925</ele>
        <time>2020-07-14T09:23:15Z</time>
      </trkpt>
      <trkpt lat="47.24353" lon="-1.56446">
        <ele>7.88595</ele>
        <time>2020-07-14T09:23:26Z</time>
      </trkpt>
      <trkpt lat="47.24355" lon="-1.5646">
        <ele>7.02375</ele>
        <time>2020-07-14T09:23:29Z</time>
      </trkpt>
      <trkpt lat="47.24354" lon="-1.56492">
        <ele>6.045</ele>
        <time>2020-07-14T09:23:31Z</time>
      </trkpt>
      <trkpt lat="47.24347" lon="-1.56514">
        <ele>7.10375</ele>
        <time>2020-07-14T09:23:33Z</time>
      </trkpt>
      <trkpt lat="47.24335" lon="-1.56537">
        <ele>9.595325</ele>
        <time>2020-07-14T09:23:37Z</time>
      </trkpt>
      <trkpt lat="47.24342" lon="-1.56538">
        <ele>7.77225</ele>
        <time>2020-07-14T09:23:40Z</time>
      </trkpt>
      <trkpt lat="47.24331" lon="-1.56562">
        <ele>9.895688</ele>
        <time>2020-07-14T09:23:45Z</time>
      </trkpt>
      <trkpt lat="47.24328" lon="-1.56577">
        <ele>10.14165</ele>
        <time>2020-07-14T09:23:47Z</time>
      </trkpt>
      <trkpt lat="47.24327" lon="-1.56599">
        <ele>9.95</ele>
        <time>2020-07-14T09:23:51Z</time>
      </trkpt>
      <trkpt lat="47.24341" lon="-1.56669">
        <ele>6.700687</ele>
        <time>2020-07-14T09:23:58Z</time>
      </trkpt>
      <trkpt lat="47.24347" lon="-1.56719">
        <ele>5.493766</ele>
        <time>2020-07-14T09:24:05Z</time>
      </trkpt>
      <trkpt lat="47.24377" lon="-1.56879">
        <ele>4.21875</ele>
        <time>2020-07-14T09:24:23Z</time>
      </trkpt>
      <trkpt lat="47.24422" lon="-1.56964">
        <ele>4.527187</ele>
        <time>2020-07-14T09:24:33Z</time>
      </trkpt>
      <trkpt lat="47.24475" lon="-1.57053">
        <ele>5.202906</ele>
        <time>2020-07-14T09:24:43Z</time>
      </trkpt>
      <trkpt lat="47.24494" lon="-1.57093">
        <ele>5.6758</ele>
        <time>2020-07-14T09:24:49Z</time>
      </trkpt>
      <trkpt lat="47.24495" lon="-1.57127">
        <ele>6.15</ele>
        <time>2020-07-14T09:24:54Z</time>
      </trkpt>
      <trkpt lat="47.24484" lon="-1.5718">
        <ele>6.54</ele>
        <time>2020-07-14T09:25:00Z</time>
      </trkpt>
      <trkpt lat="47.24481" lon="-1.57213">
        <ele>6.65</ele>
        <time>2020-07-14T09:25:04Z</time>
      </trkpt>
      <trkpt lat="47.24479" lon="-1.57269">
        <ele>6.881875</ele>
        <time>2020-07-14T09:25:11Z</time>
      </trkpt>
      <trkpt lat="47.24491" lon="-1.57314">
        <ele>6.94875</ele>
        <time>2020-07-14T09:25:17Z</time>
      </trkpt>
      <trkpt lat="47.24511" lon="-1.57346">
        <ele>6.8125</ele>
        <time>2020-07-14T09:25:22Z</time>
      </trkpt>
      <trkpt lat="47.24514" lon="-1.57354">
        <ele>7.042025</ele>
        <time>2020-07-14T09:25:23Z</time>
      </trkpt>
      <trkpt lat="47.24515" lon="-1.5738">
        <ele>8.10305</ele>
        <time>2020-07-14T09:25:26Z</time>
      </trkpt>
      <trkpt lat="47.24511" lon="-1.57417">
        <ele>9.318069</ele>
        <time>2020-07-14T09:25:31Z</time>
      </trkpt>
      <trkpt lat="47.24513" lon="-1.57443">
        <ele>10.49075</ele>
        <time>2020-07-14T09:25:34Z</time>
      </trkpt>
      <trkpt lat="47.24517" lon="-1.57458">
        <ele>11.054188</ele>
        <time>2020-07-14T09:25:36Z</time>
      </trkpt>
      <trkpt lat="47.24544" lon="-1.5752">
        <ele>11.369912</ele>
        <time>2020-07-14T09:25:45Z</time>
      </trkpt>
      <trkpt lat="47.24555" lon="-1.57529">
        <ele>10.067922</ele>
        <time>2020-07-14T09:25:47Z</time>
      </trkpt>
      <trkpt lat="47.24578" lon="-1.57533">
        <ele>10.050025</ele>
        <time>2020-07-14T09:25:51Z</time>
      </trkpt>
      <trkpt lat="47.24594" lon="-1.57554">
        <ele>10.022275</ele>
        <time>2020-07-14T09:25:55Z</time>
      </trkpt>
      <trkpt lat="47.24604" lon="-1.5757">
        <ele>9.886469</ele>
        <time>2020-07-14T09:25:58Z</time>
      </trkpt>
      <trkpt lat="47.24619" lon="-1.57584">
        <ele>9.554137</ele>
        <time>2020-07-14T09:26:02Z</time>
      </trkpt>
      <trkpt lat="47.24665" lon="-1.57644">
        <ele>9.178106</ele>
        <time>2020-07-14T09:26:12Z</time>
      </trkpt>
      <trkpt lat="47.24676" lon="-1.57636">
        <ele>9.366238</ele>
        <time>2020-07-14T09:26:16Z</time>
      </trkpt>
      <trkpt lat="47.24683" lon="-1.57639">
        <ele>9.395513</ele>
        <time>2020-07-14T09:26:18Z</time>
      </trkpt>
      <trkpt lat="47.24716" lon="-1.577">
        <ele>9.775</ele>
        <time>2020-07-14T09:26:28Z</time>
      </trkpt>
      <trkpt lat="47.24734" lon="-1.57718">
        <ele>10.133537</ele>
        <time>2020-07-14T09:26:33Z</time>
      </trkpt>
      <trkpt lat="47.24747" lon="-1.57717">
        <ele>10.337547</ele>
        <time>2020-07-14T09:26:39Z</time>
      </trkpt>
      <trkpt lat="47.24749" lon="-1.57714">
        <ele>10.3399</ele>
        <time>2020-07-14T09:26:42Z</time>
      </trkpt>
      <trkpt lat="47.24751" lon="-1.57733">
        <ele>10.5271</ele>
        <time>2020-07-14T09:26:52Z</time>
      </trkpt>
      <trkpt lat="47.24754" lon="-1.57737">
        <ele>10.642581</ele>
        <time>2020-07-14T09:26:56Z</time>
      </trkpt>
      <trkpt lat="47.24756" lon="-1.57747">
        <ele>10.525</ele>
        <time>2020-07-14T09:27:03Z</time>
      </trkpt>
      <trkpt lat="47.24795" lon="-1.57789">
        <ele>10.2575</ele>
        <time>2020-07-14T09:27:17Z</time>
      </trkpt>
      <trkpt lat="47.24871" lon="-1.5788">
        <ele>8</ele>
        <time>2020-07-14T09:27:34Z</time>
      </trkpt>
      <trkpt lat="47.24886" lon="-1.57904">
        <ele>8</ele>
        <time>2020-07-14T09:27:38Z</time>
      </trkpt>
      <trkpt lat="47.249" lon="-1.57923">
        <ele>8.016188</ele>
        <time>2020-07-14T09:27:43Z</time>
      </trkpt>
      <trkpt lat="47.24905" lon="-1.57922">
        <ele>8.078047</ele>
        <time>2020-07-14T09:27:47Z</time>
      </trkpt>
      <trkpt lat="47.24906" lon="-1.57925">
        <ele>8.101812</ele>
        <time>2020-07-14T09:27:51Z</time>
      </trkpt>
      <trkpt lat="47.2493" lon="-1.57881">
        <ele>8</ele>
        <time>2020-07-14T09:28:00Z</time>
      </trkpt>
      <trkpt lat="47.24939" lon="-1.57879">
        <ele>8</ele>
        <time>2020-07-14T09:28:02Z</time>
      </trkpt>
      <trkpt lat="47.24944" lon="-1.57882">
        <ele>8</ele>
        <time>2020-07-14T09:28:03Z</time>
      </trkpt>
      <trkpt lat="47.24959" lon="-1.57909">
        <ele>8.581922</ele>
        <time>2020-07-14T09:28:07Z</time>
      </trkpt>
      <trkpt lat="47.24962" lon="-1.57925">
        <ele>8.767437</ele>
        <time>2020-07-14T09:28:09Z</time>
      </trkpt>
      <trkpt lat="47.24967" lon="-1.57936">
        <ele>8.889244</ele>
        <time>2020-07-14T09:28:11Z</time>
      </trkpt>
      <trkpt lat="47.24981" lon="-1.5795">
        <ele>8.9955</ele>
        <time>2020-07-14T09:28:15Z</time>
      </trkpt>
      <trkpt lat="47.25008" lon="-1.57996">
        <ele>9.509975</ele>
        <time>2020-07-14T09:28:23Z</time>
      </trkpt>
      <trkpt lat="47.25032" lon="-1.58019">
        <ele>9.059719</ele>
        <time>2020-07-14T09:28:28Z</time>
      </trkpt>
      <trkpt lat="47.2506" lon="-1.58032">
        <ele>9.002337</ele>
        <time>2020-07-14T09:28:33Z</time>
      </trkpt>
      <trkpt lat="47.2507" lon="-1.5804">
        <ele>8.848531</ele>
        <time>2020-07-14T09:28:35Z</time>
      </trkpt>
      <trkpt lat="47.25078" lon="-1.58054">
        <ele>8.734075</ele>
        <time>2020-07-14T09:28:37Z</time>
      </trkpt>
      <trkpt lat="47.25086" lon="-1.58086">
        <ele>8.446094</ele>
        <time>2020-07-14T09:28:41Z</time>
      </trkpt>
      <trkpt lat="47.2508" lon="-1.58132">
        <ele>8.062803</ele>
        <time>2020-07-14T09:28:47Z</time>
      </trkpt>
      <trkpt lat="47.25086" lon="-1.5814">
        <ele>8.086994</ele>
        <time>2020-07-14T09:28:49Z</time>
      </trkpt>
      <trkpt lat="47.25094" lon="-1.58143">
        <ele>8.120966</ele>
        <time>2020-07-14T09:28:51Z</time>
      </trkpt>
      <trkpt lat="47.25102" lon="-1.58156">
        <ele>8.031641</ele>
        <time>2020-07-14T09:28:54Z</time>
      </trkpt>
      <trkpt lat="47.251" lon="-1.58169">
        <ele>8</ele>
        <time>2020-07-14T09:28:56Z</time>
      </trkpt>
      <trkpt lat="47.25095" lon="-1.58182">
        <ele>8</ele>
        <time>2020-07-14T09:29:00Z</time>
      </trkpt>
      <trkpt lat="47.25104" lon="-1.58224">
        <ele>8</ele>
        <time>2020-07-14T09:29:11Z</time>
      </trkpt>
      <trkpt lat="47.25107" lon="-1.58266">
        <ele>9.6236</ele>
        <time>2020-07-14T09:29:18Z</time>
      </trkpt>
      <trkpt lat="47.25102" lon="-1.58311">
        <ele>10.6475</ele>
        <time>2020-07-14T09:29:26Z</time>
      </trkpt>
      <trkpt lat="47.25091" lon="-1.58357">
        <ele>10.7398</ele>
        <time>2020-07-14T09:29:34Z</time>
      </trkpt>
      <trkpt lat="47.25088" lon="-1.58386">
        <ele>10.58395</ele>
        <time>2020-07-14T09:29:38Z</time>
      </trkpt>
      <trkpt lat="47.2509" lon="-1.58401">
        <ele>10.657225</ele>
        <time>2020-07-14T09:29:40Z</time>
      </trkpt>
      <trkpt lat="47.25115" lon="-1.58489">
        <ele>10.440031</ele>
        <time>2020-07-14T09:29:52Z</time>
      </trkpt>
      <trkpt lat="47.25127" lon="-1.58505">
        <ele>11.335925</ele>
        <time>2020-07-14T09:29:55Z</time>
      </trkpt>
      <trkpt lat="47.25158" lon="-1.58531">
        <ele>11.623375</ele>
        <time>2020-07-14T09:30:02Z</time>
      </trkpt>
      <trkpt lat="47.25187" lon="-1.58561">
        <ele>8.275625</ele>
        <time>2020-07-14T09:30:09Z</time>
      </trkpt>
      <trkpt lat="47.25208" lon="-1.58567">
        <ele>8.80615</ele>
        <time>2020-07-14T09:30:14Z</time>
      </trkpt>
      <trkpt lat="47.25228" lon="-1.58561">
        <ele>10.4557</ele>
        <time>2020-07-14T09:30:18Z</time>
      </trkpt>
      <trkpt lat="47.25285" lon="-1.58573">
        <ele>9.138422</ele>
        <time>2020-07-14T09:30:31Z</time>
      </trkpt>
      <trkpt lat="47.25313" lon="-1.58588">
        <ele>10.6179</ele>
        <time>2020-07-14T09:30:34Z</time>
      </trkpt>
      <trkpt lat="47.25318" lon="-1.58595">
        <ele>10.822228</ele>
        <time>2020-07-14T09:30:35Z</time>
      </trkpt>
      <trkpt lat="47.25323" lon="-1.5861">
        <ele>10.710516</ele>
        <time>2020-07-14T09:30:37Z</time>
      </trkpt>
      <trkpt lat="47.25323" lon="-1.58634">
        <ele>10.00666</ele>
        <time>2020-07-14T09:30:40Z</time>
      </trkpt>
      <trkpt lat="47.25309" lon="-1.58706">
        <ele>11.02745</ele>
        <time>2020-07-14T09:30:49Z</time>
      </trkpt>
      <trkpt lat="47.253" lon="-1.58735">
        <ele>11.019625</ele>
        <time>2020-07-14T09:30:53Z</time>
      </trkpt>
      <trkpt lat="47.25298" lon="-1.58845">
        <ele>11.488688</ele>
        <time>2020-07-14T09:31:04Z</time>
      </trkpt>
      <trkpt lat="47.25307" lon="-1.58863">
        <ele>11.824463</ele>
        <time>2020-07-14T09:31:07Z</time>
      </trkpt>
      <trkpt lat="47.253" lon="-1.58835">
        <ele>12.057688</ele>
        <time>2020-07-14T09:31:13Z</time>
      </trkpt>
      <trkpt lat="47.25296" lon="-1.5884">
        <ele>11.377675</ele>
        <time>2020-07-14T09:31:17Z</time>
      </trkpt>
      <trkpt lat="47.2529" lon="-1.5884">
        <ele>10.457569</ele>
        <time>2020-07-14T09:31:18Z</time>
      </trkpt>
      <trkpt lat="47.25253" lon="-1.58822">
        <ele>9.429438</ele>
        <time>2020-07-14T09:31:28Z</time>
      </trkpt>
      <trkpt lat="47.25249" lon="-1.58823">
        <ele>9.60625</ele>
        <time>2020-07-14T09:31:29Z</time>
      </trkpt>
      <trkpt lat="47.2523" lon="-1.58854">
        <ele>12.020312</ele>
        <time>2020-07-14T09:31:40Z</time>
      </trkpt>
      <trkpt lat="47.25232" lon="-1.58863">
        <ele>12.595</ele>
        <time>2020-07-14T09:31:44Z</time>
      </trkpt>
      <trkpt lat="47.25254" lon="-1.58909">
        <ele>13.431087</ele>
        <time>2020-07-14T09:31:52Z</time>
      </trkpt>
      <trkpt lat="47.2528" lon="-1.58949">
        <ele>15.156406</ele>
        <time>2020-07-14T09:31:55Z</time>
      </trkpt>
      <trkpt lat="47.25255" lon="-1.58898">
        <ele>11.542641</ele>
        <time>2020-07-14T09:31:58Z</time>
      </trkpt>
      <trkpt lat="47.25301" lon="-1.58969">
        <ele>13.3721</ele>
        <time>2020-07-14T09:32:01Z</time>
      </trkpt>
      <trkpt lat="47.25339" lon="-1.59017">
        <ele>11.67625</ele>
        <time>2020-07-14T09:32:08Z</time>
      </trkpt>
      <trkpt lat="47.25355" lon="-1.59055">
        <ele>12.2485</ele>
        <time>2020-07-14T09:32:15Z</time>
      </trkpt>
      <trkpt lat="47.25379" lon="-1.59067">
        <ele>12.325</ele>
        <time>2020-07-14T09:32:21Z</time>
      </trkpt>
      <trkpt lat="47.25412" lon="-1.59078">
        <ele>12.1823</ele>
        <time>2020-07-14T09:32:30Z</time>
      </trkpt>
      <trkpt lat="47.2544" lon="-1.59061">
        <ele>9.821328</ele>
        <time>2020-07-14T09:32:32Z</time>
      </trkpt>
      <trkpt lat="47.25481" lon="-1.59018">
        <ele>9.795156</ele>
        <time>2020-07-14T09:32:39Z</time>
      </trkpt>
      <trkpt lat="47.25514" lon="-1.59">
        <ele>13.0375</ele>
        <time>2020-07-14T09:32:46Z</time>
      </trkpt>
      <trkpt lat="47.25522" lon="-1.58984">
        <ele>12.5094</ele>
        <time>2020-07-14T09:32:49Z</time>
      </trkpt>
      <trkpt lat="47.25529" lon="-1.58953">
        <ele>11.609375</ele>
        <time>2020-07-14T09:32:53Z</time>
      </trkpt>
      <trkpt lat="47.25538" lon="-1.58871">
        <ele>9.564593</ele>
        <time>2020-07-14T09:33:03Z</time>
      </trkpt>
      <trkpt lat="47.25552" lon="-1.58834">
        <ele>8.943313</ele>
        <time>2020-07-14T09:33:09Z</time>
      </trkpt>
      <trkpt lat="47.25559" lon="-1.58827">
        <ele>8.981475</ele>
        <time>2020-07-14T09:33:11Z</time>
      </trkpt>
      <trkpt lat="47.25592" lon="-1.58823">
        <ele>9.493051</ele>
        <time>2020-07-14T09:33:18Z</time>
      </trkpt>
      <trkpt lat="47.2561" lon="-1.58828">
        <ele>9.561988</ele>
        <time>2020-07-14T09:33:22Z</time>
      </trkpt>
      <trkpt lat="47.25619" lon="-1.58824">
        <ele>9.492575</ele>
        <time>2020-07-14T09:33:24Z</time>
      </trkpt>
      <trkpt lat="47.25627" lon="-1.58816">
        <ele>9.545563</ele>
        <time>2020-07-14T09:33:28Z</time>
      </trkpt>
      <trkpt lat="47.25671" lon="-1.5888">
        <ele>8.846744</ele>
        <time>2020-07-14T09:33:42Z</time>
      </trkpt>
      <trkpt lat="47.25668" lon="-1.58894">
        <ele>8.8085</ele>
        <time>2020-07-14T09:33:46Z</time>
      </trkpt>
      <trkpt lat="47.2565" lon="-1.58903">
        <ele>9.482256</ele>
        <time>2020-07-14T09:33:50Z</time>
      </trkpt>
      <trkpt lat="47.25638" lon="-1.58924">
        <ele>10.46015</ele>
        <time>2020-07-14T09:33:56Z</time>
      </trkpt>
      <trkpt lat="47.25639" lon="-1.5893">
        <ele>10.535712</ele>
        <time>2020-07-14T09:33:58Z</time>
      </trkpt>
      <trkpt lat="47.25654" lon="-1.58955">
        <ele>9.686</ele>
        <time>2020-07-14T09:34:03Z</time>
      </trkpt>
      <trkpt lat="47.25668" lon="-1.59008">
        <ele>8.99125</ele>
        <time>2020-07-14T09:34:14Z</time>
      </trkpt>
      <trkpt lat="47.25676" lon="-1.59027">
        <ele>9.873906</ele>
        <time>2020-07-14T09:34:24Z</time>
      </trkpt>
      <trkpt lat="47.25697" lon="-1.59054">
        <ele>9.993237</ele>
        <time>2020-07-14T09:34:33Z</time>
      </trkpt>
      <trkpt lat="47.2572" lon="-1.59067">
        <ele>8.777469</ele>
        <time>2020-07-14T09:34:39Z</time>
      </trkpt>
      <trkpt lat="47.25727" lon="-1.59082">
        <ele>9.9372</ele>
        <time>2020-07-14T09:34:41Z</time>
      </trkpt>
      <trkpt lat="47.25727" lon="-1.59108">
        <ele>9.757</ele>
        <time>2020-07-14T09:34:44Z</time>
      </trkpt>
      <trkpt lat="47.25724" lon="-1.59112">
        <ele>9.458375</ele>
        <time>2020-07-14T09:34:46Z</time>
      </trkpt>
      <trkpt lat="47.25727" lon="-1.59123">
        <ele>9.6467</ele>
        <time>2020-07-14T09:34:48Z</time>
      </trkpt>
      <trkpt lat="47.25744" lon="-1.59133">
        <ele>10.33075</ele>
        <time>2020-07-14T09:34:54Z</time>
      </trkpt>
      <trkpt lat="47.25773" lon="-1.59176">
        <ele>11.91685</ele>
        <time>2020-07-14T09:35:03Z</time>
      </trkpt>
      <trkpt lat="47.25856" lon="-1.59281">
        <ele>10.026188</ele>
        <time>2020-07-14T09:35:23Z</time>
      </trkpt>
      <trkpt lat="47.25882" lon="-1.59267">
        <ele>10.50975</ele>
        <time>2020-07-14T09:35:28Z</time>
      </trkpt>
      <trkpt lat="47.25895" lon="-1.59252">
        <ele>11.548838</ele>
        <time>2020-07-14T09:35:32Z</time>
      </trkpt>
      <trkpt lat="47.2592" lon="-1.59202">
        <ele>12.207656</ele>
        <time>2020-07-14T09:35:39Z</time>
      </trkpt>
      <trkpt lat="47.25931" lon="-1.59191">
        <ele>11.822125</ele>
        <time>2020-07-14T09:35:42Z</time>
      </trkpt>
      <trkpt lat="47.25955" lon="-1.59195">
        <ele>9.628206</ele>
        <time>2020-07-14T09:35:51Z</time>
      </trkpt>
      <trkpt lat="47.26017" lon="-1.59227">
        <ele>10.218781</ele>
        <time>2020-07-14T09:36:05Z</time>
      </trkpt>
      <trkpt lat="47.26022" lon="-1.59247">
        <ele>9.997175</ele>
        <time>2020-07-14T09:36:10Z</time>
      </trkpt>
      <trkpt lat="47.26028" lon="-1.59312">
        <ele>10.384928</ele>
        <time>2020-07-14T09:36:19Z</time>
      </trkpt>
      <trkpt lat="47.25989" lon="-1.59414">
        <ele>9.000603</ele>
        <time>2020-07-14T09:36:33Z</time>
      </trkpt>
      <trkpt lat="47.25975" lon="-1.59437">
        <ele>8.117163</ele>
        <time>2020-07-14T09:36:37Z</time>
      </trkpt>
      <trkpt lat="47.25971" lon="-1.5945">
        <ele>8.19006</ele>
        <time>2020-07-14T09:36:39Z</time>
      </trkpt>
      <trkpt lat="47.25971" lon="-1.59464">
        <ele>8.129525</ele>
        <time>2020-07-14T09:36:41Z</time>
      </trkpt>
      <trkpt lat="47.25985" lon="-1.59519">
        <ele>9.618756</ele>
        <time>2020-07-14T09:36:50Z</time>
      </trkpt>
      <trkpt lat="47.25977" lon="-1.59547">
        <ele>9.4758</ele>
        <time>2020-07-14T09:36:54Z</time>
      </trkpt>
      <trkpt lat="47.25979" lon="-1.59569">
        <ele>9.489562</ele>
        <time>2020-07-14T09:36:57Z</time>
      </trkpt>
      <trkpt lat="47.25985" lon="-1.59603">
        <ele>9.503869</ele>
        <time>2020-07-14T09:37:02Z</time>
      </trkpt>
      <trkpt lat="47.26004" lon="-1.59638">
        <ele>9.78425</ele>
        <time>2020-07-14T09:37:08Z</time>
      </trkpt>
      <trkpt lat="47.26013" lon="-1.5965">
        <ele>9.49909</ele>
        <time>2020-07-14T09:37:11Z</time>
      </trkpt>
      <trkpt lat="47.26081" lon="-1.59701">
        <ele>8</ele>
        <time>2020-07-14T09:37:25Z</time>
      </trkpt>
      <trkpt lat="47.26184" lon="-1.59722">
        <ele>10.169775</ele>
        <time>2020-07-14T09:37:45Z</time>
      </trkpt>
      <trkpt lat="47.26198" lon="-1.59727">
        <ele>10.131584</ele>
        <time>2020-07-14T09:37:48Z</time>
      </trkpt>
      <trkpt lat="47.26219" lon="-1.59743">
        <ele>9.4157</ele>
        <time>2020-07-14T09:37:53Z</time>
      </trkpt>
      <trkpt lat="47.26247" lon="-1.59786">
        <ele>9.02</ele>
      </trkpt>
      <trkpt lat="47.26259" lon="-1.59831">
        <ele>9.935</ele>
        <time>2020-07-14T09:38:15Z</time>
      </trkpt>
      <trkpt lat="47.26259" lon="-1.59885">
        <ele>9.471068</ele>
        <time>2020-07-14T09:38:22Z</time>
      </trkpt>
      <trkpt lat="47.26254" lon="-1.59925">
        <ele>9.19</ele>
        <time>2020-07-14T09:38:27Z</time>
      </trkpt>
      <trkpt lat="47.26245" lon="-1.59955">
        <ele>8.82</ele>
        <time>2020-07-14T09:38:31Z</time>
      </trkpt>
      <trkpt lat="47.26203" lon="-1.60032">
        <ele>9.012537</ele>
        <time>2020-07-14T09:38:43Z</time>
      </trkpt>
      <trkpt lat="47.26196" lon="-1.60054">
        <ele>9.731056</ele>
        <time>2020-07-14T09:38:46Z</time>
      </trkpt>
      <trkpt lat="47.26195" lon="-1.60078">
        <ele>10.167413</ele>
        <time>2020-07-14T09:38:50Z</time>
      </trkpt>
      <trkpt lat="47.26213" lon="-1.60101">
        <ele>8.740907</ele>
        <time>2020-07-14T09:38:56Z</time>
      </trkpt>
      <trkpt lat="47.26219" lon="-1.60101">
        <ele>8.232718</ele>
        <time>2020-07-14T09:38:57Z</time>
      </trkpt>
      <trkpt lat="47.26244" lon="-1.60088">
        <ele>8.051562</ele>
        <time>2020-07-14T09:39:02Z</time>
      </trkpt>
      <trkpt lat="47.26259" lon="-1.60096">
        <ele>8.006263</ele>
        <time>2020-07-14T09:39:06Z</time>
      </trkpt>
      <trkpt lat="47.26283" lon="-1.60132">
        <ele>8.9925</ele>
        <time>2020-07-14T09:39:12Z</time>
      </trkpt>
      <trkpt lat="47.26304" lon="-1.60171">
        <ele>8.824519</ele>
        <time>2020-07-14T09:39:17Z</time>
      </trkpt>
      <trkpt lat="47.26347" lon="-1.6023">
        <ele>10.4164</ele>
        <time>2020-07-14T09:39:28Z</time>
      </trkpt>
      <trkpt lat="47.26351" lon="-1.60242">
        <ele>9.784057</ele>
        <time>2020-07-14T09:39:30Z</time>
      </trkpt>
      <trkpt lat="47.26351" lon="-1.60249">
        <ele>9.581835</ele>
        <time>2020-07-14T09:39:31Z</time>
      </trkpt>
      <trkpt lat="47.2631" lon="-1.60387">
        <ele>9.935163</ele>
        <time>2020-07-14T09:39:52Z</time>
      </trkpt>
      <trkpt lat="47.26295" lon="-1.60475">
        <ele>10.7915</ele>
        <time>2020-07-14T09:40:03Z</time>
      </trkpt>
      <trkpt lat="47.26295" lon="-1.60491">
        <ele>10.549494</ele>
        <time>2020-07-14T09:40:05Z</time>
      </trkpt>
      <trkpt lat="47.26304" lon="-1.6052">
        <ele>11.001062</ele>
        <time>2020-07-14T09:40:09Z</time>
      </trkpt>
      <trkpt lat="47.26311" lon="-1.60556">
        <ele>12.519806</ele>
        <time>2020-07-14T09:40:14Z</time>
      </trkpt>
      <trkpt lat="47.26315" lon="-1.60598">
        <ele>12.326225</ele>
        <time>2020-07-14T09:40:20Z</time>
      </trkpt>
      <trkpt lat="47.26329" lon="-1.60651">
        <ele>12.013307</ele>
        <time>2020-07-14T09:40:27Z</time>
      </trkpt>
      <trkpt lat="47.26345" lon="-1.60679">
        <ele>12.16315</ele>
        <time>2020-07-14T09:40:32Z</time>
      </trkpt>
      <trkpt lat="47.26363" lon="-1.60697">
        <ele>12.403375</ele>
        <time>2020-07-14T09:40:38Z</time>
      </trkpt>
      <trkpt lat="47.26364" lon="-1.60711">
        <ele>12.221231</ele>
        <time>2020-07-14T09:40:40Z</time>
      </trkpt>
      <trkpt lat="47.26325" lon="-1.60856">
        <ele>14.31125</ele>
        <time>2020-07-14T09:41:02Z</time>
      </trkpt>
      <trkpt lat="47.26324" lon="-1.60876">
        <ele>14.955</ele>
        <time>2020-07-14T09:41:04Z</time>
      </trkpt>
      <trkpt lat="47.26329" lon="-1.60879">
        <ele>14.55375</ele>
        <time>2020-07-14T09:41:05Z</time>
      </trkpt>
      <trkpt lat="47.2634" lon="-1.60867">
        <ele>13.874294</ele>
        <time>2020-07-14T09:41:07Z</time>
      </trkpt>
      <trkpt lat="47.2635" lon="-1.60836">
        <ele>13.087025</ele>
        <time>2020-07-14T09:41:12Z</time>
      </trkpt>
      <trkpt lat="47.26375" lon="-1.60808">
        <ele>12.6325</ele>
        <time>2020-07-14T09:41:17Z</time>
      </trkpt>
      <trkpt lat="47.26387" lon="-1.60806">
        <ele>12.964951</ele>
        <time>2020-07-14T09:41:19Z</time>
      </trkpt>
      <trkpt lat="47.26391" lon="-1.6081">
        <ele>13.159</ele>
        <time>2020-07-14T09:41:20Z</time>
      </trkpt>
      <trkpt lat="47.26397" lon="-1.60835">
        <ele>13.448744</ele>
        <time>2020-07-14T09:41:23Z</time>
      </trkpt>
      <trkpt lat="47.26415" lon="-1.60878">
        <ele>13.318047</ele>
        <time>2020-07-14T09:41:29Z</time>
      </trkpt>
      <trkpt lat="47.2647" lon="-1.60988">
        <ele>14.025</ele>
        <time>2020-07-14T09:41:45Z</time>
      </trkpt>
      <trkpt lat="47.26475" lon="-1.61026">
        <ele>14.7</ele>
        <time>2020-07-14T09:41:50Z</time>
      </trkpt>
      <trkpt lat="47.26476" lon="-1.61116">
        <ele>15.83855</ele>
        <time>2020-07-14T09:42:02Z</time>
      </trkpt>
      <trkpt lat="47.26446" lon="-1.61196">
        <ele>15.901438</ele>
        <time>2020-07-14T09:42:13Z</time>
      </trkpt>
      <trkpt lat="47.26438" lon="-1.61208">
        <ele>16.231937</ele>
        <time>2020-07-14T09:42:15Z</time>
      </trkpt>
      <trkpt lat="47.26403" lon="-1.61241">
        <ele>14.291038</ele>
        <time>2020-07-14T09:42:23Z</time>
      </trkpt>
      <trkpt lat="47.26383" lon="-1.61267">
        <ele>14.28525</ele>
        <time>2020-07-14T09:42:28Z</time>
      </trkpt>
      <trkpt lat="47.26378" lon="-1.61288">
        <ele>14.395625</ele>
        <time>2020-07-14T09:42:31Z</time>
      </trkpt>
      <trkpt lat="47.26361" lon="-1.61425">
        <ele>13.984813</ele>
        <time>2020-07-14T09:42:48Z</time>
      </trkpt>
      <trkpt lat="47.26361" lon="-1.61439">
        <ele>14.29785</ele>
        <time>2020-07-14T09:42:50Z</time>
      </trkpt>
      <trkpt lat="47.26373" lon="-1.61476">
        <ele>14.553038</ele>
        <time>2020-07-14T09:42:55Z</time>
      </trkpt>
      <trkpt lat="47.26381" lon="-1.61488">
        <ele>14.166847</ele>
        <time>2020-07-14T09:42:57Z</time>
      </trkpt>
      <trkpt lat="47.26416" lon="-1.61518">
        <ele>14.608</ele>
        <time>2020-07-14T09:43:04Z</time>
      </trkpt>
      <trkpt lat="47.26445" lon="-1.61565">
        <ele>14.893925</ele>
        <time>2020-07-14T09:43:12Z</time>
      </trkpt>
      <trkpt lat="47.26463" lon="-1.61578">
        <ele>16.156494</ele>
        <time>2020-07-14T09:43:16Z</time>
      </trkpt>
      <trkpt lat="47.26528" lon="-1.61608">
        <ele>15.90425</ele>
        <time>2020-07-14T09:43:28Z</time>
      </trkpt>
      <trkpt lat="47.26537" lon="-1.61622">
        <ele>15.2679</ele>
        <time>2020-07-14T09:43:30Z</time>
      </trkpt>
      <trkpt lat="47.26549" lon="-1.61652">
        <ele>15.753263</ele>
        <time>2020-07-14T09:43:34Z</time>
      </trkpt>
      <trkpt lat="47.26567" lon="-1.61686">
        <ele>16.330256</ele>
        <time>2020-07-14T09:43:39Z</time>
      </trkpt>
      <trkpt lat="47.26582" lon="-1.6172">
        <ele>17.810249</ele>
        <time>2020-07-14T09:43:44Z</time>
      </trkpt>
      <trkpt lat="47.2659" lon="-1.61733">
        <ele>18.834625</ele>
        <time>2020-07-14T09:43:46Z</time>
      </trkpt>
      <trkpt lat="47.26609" lon="-1.61753">
        <ele>17.444</ele>
        <time>2020-07-14T09:43:50Z</time>
      </trkpt>
      <trkpt lat="47.26682" lon="-1.61795">
        <ele>15.48795</ele>
        <time>2020-07-14T09:44:04Z</time>
      </trkpt>
      <trkpt lat="47.26712" lon="-1.61806">
        <ele>15.526468</ele>
        <time>2020-07-14T09:44:10Z</time>
      </trkpt>
      <trkpt lat="47.26744" lon="-1.61834">
        <ele>15.5772</ele>
        <time>2020-07-14T09:44:17Z</time>
      </trkpt>
      <trkpt lat="47.26755" lon="-1.6185">
        <ele>15.544087</ele>
        <time>2020-07-14T09:44:20Z</time>
      </trkpt>
      <trkpt lat="47.26759" lon="-1.61864">
        <ele>15.629575</ele>
        <time>2020-07-14T09:44:22Z</time>
      </trkpt>
      <trkpt lat="47.26757" lon="-1.61879">
        <ele>15.68085</ele>
        <time>2020-07-14T09:44:24Z</time>
      </trkpt>
      <trkpt lat="47.26748" lon="-1.61899">
        <ele>15.736894</ele>
        <time>2020-07-14T09:44:27Z</time>
      </trkpt>
      <trkpt lat="47.26747" lon="-1.6193">
        <ele>16</ele>
        <time>2020-07-14T09:44:31Z</time>
      </trkpt>
      <trkpt lat="47.26742" lon="-1.61969">
        <ele>16.204525</ele>
        <time>2020-07-14T09:44:37Z</time>
      </trkpt>
      <trkpt lat="47.26743" lon="-1.62034">
        <ele>15.966503</ele>
        <time>2020-07-14T09:44:45Z</time>
      </trkpt>
      <trkpt lat="47.2675" lon="-1.62076">
        <ele>15.678344</ele>
        <time>2020-07-14T09:44:51Z</time>
      </trkpt>
      <trkpt lat="47.26752" lon="-1.6213">
        <ele>15.515</ele>
        <time>2020-07-14T09:44:58Z</time>
      </trkpt>
      <trkpt lat="47.26752" lon="-1.62185">
        <ele>16.260647</ele>
        <time>2020-07-14T09:45:05Z</time>
      </trkpt>
      <trkpt lat="47.26748" lon="-1.62208">
        <ele>16.263168</ele>
        <time>2020-07-14T09:45:08Z</time>
      </trkpt>
      <trkpt lat="47.26751" lon="-1.62241">
        <ele>15.897216</ele>
        <time>2020-07-14T09:45:12Z</time>
      </trkpt>
      <trkpt lat="47.26755" lon="-1.62254">
        <ele>15.6613</ele>
        <time>2020-07-14T09:45:14Z</time>
      </trkpt>
      <trkpt lat="47.26761" lon="-1.6226">
        <ele>15.361213</ele>
        <time>2020-07-14T09:45:16Z</time>
      </trkpt>
      <trkpt lat="47.2677" lon="-1.62262">
        <ele>14.728587</ele>
        <time>2020-07-14T09:45:19Z</time>
      </trkpt>
      <trkpt lat="47.26773" lon="-1.62266">
        <ele>14.584981</ele>
        <time>2020-07-14T09:45:20Z</time>
      </trkpt>
      <trkpt lat="47.2677" lon="-1.62282">
        <ele>15.084794</ele>
        <time>2020-07-14T09:45:23Z</time>
      </trkpt>
      <trkpt lat="47.26766" lon="-1.62285">
        <ele>15.493299</ele>
        <time>2020-07-14T09:45:25Z</time>
      </trkpt>
      <trkpt lat="47.2676" lon="-1.62305">
        <ele>16.455688</ele>
        <time>2020-07-14T09:45:32Z</time>
      </trkpt>
      <trkpt lat="47.26761" lon="-1.62313">
        <ele>16.50775</ele>
        <time>2020-07-14T09:45:34Z</time>
      </trkpt>
      <trkpt lat="47.26785" lon="-1.62358">
        <ele>16.174999</ele>
        <time>2020-07-14T09:45:46Z</time>
      </trkpt>
      <trkpt lat="47.26793" lon="-1.62382">
        <ele>17.15</ele>
        <time>2020-07-14T09:45:49Z</time>
      </trkpt>
      <trkpt lat="47.26795" lon="-1.62397">
        <ele>17.707026</ele>
        <time>2020-07-14T09:45:51Z</time>
      </trkpt>
      <trkpt lat="47.26787" lon="-1.6245">
        <ele>18.050665</ele>
        <time>2020-07-14T09:46:02Z</time>
      </trkpt>
      <trkpt lat="47.26776" lon="-1.62557">
        <ele>18.872332</ele>
        <time>2020-07-14T09:46:12Z</time>
      </trkpt>
      <trkpt lat="47.26767" lon="-1.62607">
        <ele>16.90328</ele>
        <time>2020-07-14T09:46:19Z</time>
      </trkpt>
      <trkpt lat="47.26766" lon="-1.62658">
        <ele>16.720688</ele>
        <time>2020-07-14T09:46:25Z</time>
      </trkpt>
      <trkpt lat="47.26778" lon="-1.62817">
        <ele>22.317644</ele>
        <time>2020-07-14T09:46:45Z</time>
      </trkpt>
      <trkpt lat="47.26786" lon="-1.6288">
        <ele>22.113501</ele>
        <time>2020-07-14T09:46:53Z</time>
      </trkpt>
      <trkpt lat="47.26773" lon="-1.62914">
        <ele>21.336226</ele>
        <time>2020-07-14T09:46:58Z</time>
      </trkpt>
      <trkpt lat="47.26759" lon="-1.62974">
        <ele>19.14575</ele>
        <time>2020-07-14T09:47:06Z</time>
      </trkpt>
      <trkpt lat="47.2676" lon="-1.62996">
        <ele>19.864281</ele>
        <time>2020-07-14T09:47:09Z</time>
      </trkpt>
      <trkpt lat="47.2677" lon="-1.63015">
        <ele>20.077499</ele>
        <time>2020-07-14T09:47:12Z</time>
      </trkpt>
      <trkpt lat="47.2678" lon="-1.63025">
        <ele>19.53475</ele>
        <time>2020-07-14T09:47:15Z</time>
      </trkpt>
      <trkpt lat="47.26789" lon="-1.63025">
        <ele>18.899031</ele>
        <time>2020-07-14T09:47:18Z</time>
      </trkpt>
      <trkpt lat="47.26808" lon="-1.63033">
        <ele>18.701925</ele>
        <time>2020-07-14T09:47:21Z</time>
      </trkpt>
      <trkpt lat="47.26828" lon="-1.63035">
        <ele>19.521749</ele>
        <time>2020-07-14T09:47:24Z</time>
      </trkpt>
      <trkpt lat="47.26837" lon="-1.63041">
        <ele>19.534475</ele>
        <time>2020-07-14T09:47:26Z</time>
      </trkpt>
      <trkpt lat="47.26849" lon="-1.63057">
        <ele>19.520002</ele>
        <time>2020-07-14T09:47:29Z</time>
      </trkpt>
      <trkpt lat="47.26859" lon="-1.63082">
        <ele>20.185713</ele>
        <time>2020-07-14T09:47:33Z</time>
      </trkpt>
      <trkpt lat="47.26867" lon="-1.63094">
        <ele>20.327938</ele>
        <time>2020-07-14T09:47:36Z</time>
      </trkpt>
      <trkpt lat="47.2688" lon="-1.63138">
        <ele>20.03936</ele>
        <time>2020-07-14T09:47:43Z</time>
      </trkpt>
      <trkpt lat="47.269" lon="-1.63185">
        <ele>20.842449</ele>
        <time>2020-07-14T09:47:52Z</time>
      </trkpt>
      <trkpt lat="47.26894" lon="-1.63226">
        <ele>21.22464</ele>
        <time>2020-07-14T09:48:00Z</time>
      </trkpt>
      <trkpt lat="47.2689" lon="-1.63241">
        <ele>21.102346</ele>
        <time>2020-07-14T09:48:04Z</time>
      </trkpt>
      <trkpt lat="47.26885" lon="-1.63294">
        <ele>21.946526</ele>
        <time>2020-07-14T09:48:19Z</time>
      </trkpt>
      <trkpt lat="47.26888" lon="-1.63328">
        <ele>22.911249</ele>
        <time>2020-07-14T09:48:24Z</time>
      </trkpt>
      <trkpt lat="47.26885" lon="-1.63388">
        <ele>23.93</ele>
        <time>2020-07-14T09:48:36Z</time>
      </trkpt>
      <trkpt lat="47.26887" lon="-1.63431">
        <ele>26.8025</ele>
        <time>2020-07-14T09:48:46Z</time>
      </trkpt>
      <trkpt lat="47.26885" lon="-1.63516">
        <ele>32.318436</ele>
        <time>2020-07-14T09:49:02Z</time>
      </trkpt>
      <trkpt lat="47.26887" lon="-1.63554">
        <ele>35.688099</ele>
        <time>2020-07-14T09:49:12Z</time>
      </trkpt>
      <trkpt lat="47.26878" lon="-1.6359">
        <ele>37.52116</ele>
        <time>2020-07-14T09:49:22Z</time>
      </trkpt>
      <trkpt lat="47.26879" lon="-1.63609">
        <ele>38.476101</ele>
        <time>2020-07-14T09:49:26Z</time>
      </trkpt>
      <trkpt lat="47.26888" lon="-1.63642">
        <ele>40.706249</ele>
        <time>2020-07-14T09:49:36Z</time>
      </trkpt>
      <trkpt lat="47.26886" lon="-1.6366">
        <ele>41.088749</ele>
        <time>2020-07-14T09:49:42Z</time>
      </trkpt>
      <trkpt lat="47.26876" lon="-1.6369">
        <ele>40.727501</ele>
        <time>2020-07-14T09:49:51Z</time>
      </trkpt>
      <trkpt lat="47.26869" lon="-1.6376">
        <ele>43.142887</ele>
        <time>2020-07-14T09:50:03Z</time>
      </trkpt>
      <trkpt lat="47.26875" lon="-1.63818">
        <ele>44.1479</ele>
        <time>2020-07-14T09:50:13Z</time>
      </trkpt>
      <trkpt lat="47.26873" lon="-1.63824">
        <ele>44.106564</ele>
        <time>2020-07-14T09:50:14Z</time>
      </trkpt>
      <trkpt lat="47.26851" lon="-1.63838">
        <ele>43.807999</ele>
        <time>2020-07-14T09:50:21Z</time>
      </trkpt>
      <trkpt lat="47.2682" lon="-1.63873">
        <ele>39.427425</ele>
        <time>2020-07-14T09:50:29Z</time>
      </trkpt>
      <trkpt lat="47.26809" lon="-1.63892">
        <ele>36.843327</ele>
        <time>2020-07-14T09:50:33Z</time>
      </trkpt>
      <trkpt lat="47.26796" lon="-1.63899">
        <ele>35.351776</ele>
        <time>2020-07-14T09:50:38Z</time>
      </trkpt>
      <trkpt lat="47.26781" lon="-1.63922">
        <ele>31.886425</ele>
        <time>2020-07-14T09:50:44Z</time>
      </trkpt>
      <trkpt lat="47.26759" lon="-1.6394">
        <ele>28.208124</ele>
        <time>2020-07-14T09:50:50Z</time>
      </trkpt>
      <trkpt lat="47.2675" lon="-1.63939">
        <ele>26.838484</ele>
        <time>2020-07-14T09:50:52Z</time>
      </trkpt>
      <trkpt lat="47.26743" lon="-1.63933">
        <ele>25.966562</ele>
        <time>2020-07-14T09:50:55Z</time>
      </trkpt>
      <trkpt lat="47.26741" lon="-1.63923">
        <ele>26.149563</ele>
        <time>2020-07-14T09:50:58Z</time>
      </trkpt>
      <trkpt lat="47.26734" lon="-1.63925">
        <ele>24.63896</ele>
        <time>2020-07-14T09:51:01Z</time>
      </trkpt>
      <trkpt lat="47.26728" lon="-1.63939">
        <ele>23.247738</ele>
        <time>2020-07-14T09:51:05Z</time>
      </trkpt>
      <trkpt lat="47.26727" lon="-1.63972">
        <ele>22.488688</ele>
        <time>2020-07-14T09:51:11Z</time>
      </trkpt>
      <trkpt lat="47.26729" lon="-1.64004">
        <ele>22.217501</ele>
        <time>2020-07-14T09:51:17Z</time>
      </trkpt>
      <trkpt lat="47.2672" lon="-1.64016">
        <ele>22.004675</ele>
        <time>2020-07-14T09:51:22Z</time>
      </trkpt>
      <trkpt lat="47.267" lon="-1.64077">
        <ele>28.459974</ele>
        <time>2020-07-14T09:51:39Z</time>
      </trkpt>
      <trkpt lat="47.26678" lon="-1.64103">
        <ele>32.272808</ele>
        <time>2020-07-14T09:51:50Z</time>
      </trkpt>
      <trkpt lat="47.26669" lon="-1.64106">
        <ele>33.146252</ele>
        <time>2020-07-14T09:51:54Z</time>
      </trkpt>
      <trkpt lat="47.26649" lon="-1.6412">
        <ele>36.924511</ele>
        <time>2020-07-14T09:52:06Z</time>
      </trkpt>
      <trkpt lat="47.26627" lon="-1.6411">
        <ele>41.10294</ele>
        <time>2020-07-14T09:52:25Z</time>
      </trkpt>
      <trkpt lat="47.26595" lon="-1.64109">
        <ele>44.462124</ele>
        <time>2020-07-14T09:52:37Z</time>
      </trkpt>
      <trkpt lat="47.26526" lon="-1.6409">
        <ele>50.615105</ele>
        <time>2020-07-14T09:53:13Z</time>
      </trkpt>
      <trkpt lat="47.26503" lon="-1.64081">
        <ele>52.084999</ele>
        <time>2020-07-14T09:53:24Z</time>
      </trkpt>
      <trkpt lat="47.26485" lon="-1.64094">
        <ele>53.110851</ele>
        <time>2020-07-14T09:53:35Z</time>
      </trkpt>
      <trkpt lat="47.26486" lon="-1.64099">
        <ele>53.093376</ele>
        <time>2020-07-14T09:53:36Z</time>
      </trkpt>
      <trkpt lat="47.26483" lon="-1.64107">
        <ele>53.193024</ele>
        <time>2020-07-14T09:53:40Z</time>
      </trkpt>
      <trkpt lat="47.26487" lon="-1.64131">
        <ele>53.034637</ele>
        <time>2020-07-14T09:53:44Z</time>
      </trkpt>
      <trkpt lat="47.26502" lon="-1.6417">
        <ele>52.412853</ele>
        <time>2020-07-14T09:53:49Z</time>
      </trkpt>
      <trkpt lat="47.26507" lon="-1.64225">
        <ele>52.571281</ele>
        <time>2020-07-14T09:54:00Z</time>
      </trkpt>
      <trkpt lat="47.26511" lon="-1.64238">
        <ele>52.557549</ele>
        <time>2020-07-14T09:54:03Z</time>
      </trkpt>
      <trkpt lat="47.26512" lon="-1.6426">
        <ele>52.611889</ele>
        <time>2020-07-14T09:54:08Z</time>
      </trkpt>
      <trkpt lat="47.26516" lon="-1.64263">
        <ele>52.472324</ele>
        <time>2020-07-14T09:54:10Z</time>
      </trkpt>
      <trkpt lat="47.26546" lon="-1.64262">
        <ele>50.926094</ele>
        <time>2020-07-14T09:54:17Z</time>
      </trkpt>
      <trkpt lat="47.26578" lon="-1.64274">
        <ele>49.118217</ele>
        <time>2020-07-14T09:54:23Z</time>
      </trkpt>
      <trkpt lat="47.26628" lon="-1.64275">
        <ele>44.853954</ele>
        <time>2020-07-14T09:54:32Z</time>
      </trkpt>
      <trkpt lat="47.26675" lon="-1.64262">
        <ele>42.378593</ele>
        <time>2020-07-14T09:54:39Z</time>
      </trkpt>
      <trkpt lat="47.26742" lon="-1.64268">
        <ele>42.454304</ele>
        <time>2020-07-14T09:54:53Z</time>
      </trkpt>
      <trkpt lat="47.26788" lon="-1.64282">
        <ele>45.77</ele>
        <time>2020-07-14T09:55:03Z</time>
      </trkpt>
      <trkpt lat="47.26824" lon="-1.64287">
        <ele>48.170338</ele>
        <time>2020-07-14T09:55:13Z</time>
      </trkpt>
      <trkpt lat="47.26832" lon="-1.64315">
        <ele>49.953842</ele>
        <time>2020-07-14T09:55:20Z</time>
      </trkpt>
      <trkpt lat="47.26855" lon="-1.64364">
        <ele>51.849548</ele>
        <time>2020-07-14T09:55:31Z</time>
      </trkpt>
      <trkpt lat="47.26862" lon="-1.6439">
        <ele>52.224998</ele>
        <time>2020-07-14T09:55:39Z</time>
      </trkpt>
      <trkpt lat="47.26889" lon="-1.64445">
        <ele>51.02</ele>
        <time>2020-07-14T09:55:54Z</time>
      </trkpt>
      <trkpt lat="47.26884" lon="-1.64471">
        <ele>51.685001</ele>
        <time>2020-07-14T09:56:01Z</time>
      </trkpt>
      <trkpt lat="47.26893" lon="-1.6448">
        <ele>50.25</ele>
        <time>2020-07-14T09:56:07Z</time>
      </trkpt>
      <trkpt lat="47.2692" lon="-1.64475">
        <ele>45.98</ele>
        <time>2020-07-14T09:56:13Z</time>
      </trkpt>
      <trkpt lat="47.26923" lon="-1.64478">
        <ele>45.595001</ele>
        <time>2020-07-14T09:56:14Z</time>
      </trkpt>
      <trkpt lat="47.26915" lon="-1.64534">
        <ele>46.221672</ele>
        <time>2020-07-14T09:56:28Z</time>
      </trkpt>
      <trkpt lat="47.26914" lon="-1.64568">
        <ele>45.928593</ele>
        <time>2020-07-14T09:56:34Z</time>
      </trkpt>
      <trkpt lat="47.26904" lon="-1.64643">
        <ele>46.5</ele>
        <time>2020-07-14T09:56:46Z</time>
      </trkpt>
      <trkpt lat="47.269" lon="-1.64658">
        <ele>46.05751</ele>
        <time>2020-07-14T09:56:49Z</time>
      </trkpt>
      <trkpt lat="47.2688" lon="-1.64703">
        <ele>47.014324</ele>
        <time>2020-07-14T09:56:58Z</time>
      </trkpt>
      <trkpt lat="47.2686" lon="-1.64761">
        <ele>47.06274</ele>
        <time>2020-07-14T09:57:08Z</time>
      </trkpt>
      <trkpt lat="47.2685" lon="-1.64813">
        <ele>44.750149</ele>
        <time>2020-07-14T09:57:18Z</time>
      </trkpt>
      <trkpt lat="47.2684" lon="-1.64846">
        <ele>43.51775</ele>
        <time>2020-07-14T09:57:24Z</time>
      </trkpt>
      <trkpt lat="47.26842" lon="-1.64872">
        <ele>41.052914</ele>
        <time>2020-07-14T09:57:29Z</time>
      </trkpt>
      <trkpt lat="47.26835" lon="-1.64889">
        <ele>40.647533</ele>
        <time>2020-07-14T09:57:32Z</time>
      </trkpt>
      <trkpt lat="47.26827" lon="-1.64896">
        <ele>41.488049</ele>
        <time>2020-07-14T09:57:34Z</time>
      </trkpt>
      <trkpt lat="47.26784" lon="-1.64912">
        <ele>43.49086</ele>
        <time>2020-07-14T09:57:44Z</time>
      </trkpt>
      <trkpt lat="47.26771" lon="-1.64913">
        <ele>44.404739</ele>
        <time>2020-07-14T09:57:50Z</time>
      </trkpt>
      <trkpt lat="47.26764" lon="-1.64923">
        <ele>44.376049</ele>
        <time>2020-07-14T09:57:55Z</time>
      </trkpt>
      <trkpt lat="47.26749" lon="-1.64933">
        <ele>45.275951</ele>
        <time>2020-07-14T09:58:01Z</time>
      </trkpt>
      <trkpt lat="47.26747" lon="-1.64945">
        <ele>45.11615</ele>
        <time>2020-07-14T09:58:05Z</time>
      </trkpt>
      <trkpt lat="47.2675" lon="-1.64961">
        <ele>44.301849</ele>
        <time>2020-07-14T09:58:19Z</time>
      </trkpt>
      <trkpt lat="47.26749" lon="-1.64975">
        <ele>45.08242</ele>
        <time>2020-07-14T09:58:28Z</time>
      </trkpt>
      <trkpt lat="47.2675" lon="-1.64984">
        <ele>45.327461</ele>
        <time>2020-07-14T09:58:31Z</time>
      </trkpt>
      <trkpt lat="47.26759" lon="-1.64987">
        <ele>44.326431</ele>
        <time>2020-07-14T09:58:45Z</time>
      </trkpt>
      <trkpt lat="47.26758" lon="-1.64995">
        <ele>44.890781</ele>
        <time>2020-07-14T09:59:45Z</time>
      </trkpt>
      <trkpt lat="47.26762" lon="-1.65005">
        <ele>44.870625</ele>
        <time>2020-07-14T09:59:49Z</time>
      </trkpt>
      <trkpt lat="47.26793" lon="-1.65036">
        <ele>40.423267</ele>
        <time>2020-07-14T10:00:03Z</time>
      </trkpt>
      <trkpt lat="47.26794" lon="-1.65045">
        <ele>40.005062</ele>
        <time>2020-07-14T10:00:06Z</time>
      </trkpt>
      <trkpt lat="47.26786" lon="-1.65076">
        <ele>41.477867</ele>
        <time>2020-07-14T10:00:15Z</time>
      </trkpt>
      <trkpt lat="47.26772" lon="-1.65103">
        <ele>43.439716</ele>
        <time>2020-07-14T10:00:20Z</time>
      </trkpt>
      <trkpt lat="47.2674" lon="-1.65138">
        <ele>42.138046</ele>
        <time>2020-07-14T10:00:30Z</time>
      </trkpt>
      <trkpt lat="47.26735" lon="-1.65156">
        <ele>40.758244</ele>
        <time>2020-07-14T10:00:35Z</time>
      </trkpt>
      <trkpt lat="47.26717" lon="-1.65171">
        <ele>42.355751</ele>
        <time>2020-07-14T10:00:46Z</time>
      </trkpt>
      <trkpt lat="47.26714" lon="-1.65189">
        <ele>42.187687</ele>
        <time>2020-07-14T10:00:51Z</time>
      </trkpt>
      <trkpt lat="47.26705" lon="-1.65199">
        <ele>43.204308</ele>
        <time>2020-07-14T10:00:57Z</time>
      </trkpt>
      <trkpt lat="47.267" lon="-1.6521">
        <ele>43.527039</ele>
        <time>2020-07-14T10:01:01Z</time>
      </trkpt>
      <trkpt lat="47.26685" lon="-1.65233">
        <ele>45.251076</ele>
        <time>2020-07-14T10:01:09Z</time>
      </trkpt>
      <trkpt lat="47.26679" lon="-1.65264">
        <ele>45.520294</ele>
        <time>2020-07-14T10:01:17Z</time>
      </trkpt>
      <trkpt lat="47.26685" lon="-1.65276">
        <ele>44.201588</ele>
        <time>2020-07-14T10:01:21Z</time>
      </trkpt>
      <trkpt lat="47.26693" lon="-1.65279">
        <ele>42.8601</ele>
        <time>2020-07-14T10:01:23Z</time>
      </trkpt>
      <trkpt lat="47.2672" lon="-1.65277">
        <ele>38.299332</ele>
        <time>2020-07-14T10:01:28Z</time>
      </trkpt>
      <trkpt lat="47.26743" lon="-1.65296">
        <ele>33.670002</ele>
        <time>2020-07-14T10:01:38Z</time>
      </trkpt>
      <trkpt lat="47.26752" lon="-1.65313">
        <ele>32.463749</ele>
        <time>2020-07-14T10:01:52Z</time>
      </trkpt>
      <trkpt lat="47.2676" lon="-1.65316">
        <ele>31.061251</ele>
        <time>2020-07-14T10:02:24Z</time>
      </trkpt>
      <trkpt lat="47.26758" lon="-1.65316">
        <ele>31.42</ele>
        <time>2020-07-14T10:02:30Z</time>
      </trkpt>
      <trkpt lat="47.26758" lon="-1.65319">
        <ele>31.48</ele>
        <time>2020-07-14T10:02:34Z</time>
      </trkpt>
      <trkpt lat="47.26755" lon="-1.65321">
        <ele>32.15625</ele>
        <time>2020-07-14T10:02:38Z</time>
      </trkpt>
      <trkpt lat="47.2675" lon="-1.65333">
        <ele>33.333752</ele>
        <time>2020-07-14T10:02:48Z</time>
      </trkpt>
      <trkpt lat="47.26744" lon="-1.65337">
        <ele>34.49625</ele>
        <time>2020-07-14T10:02:53Z</time>
      </trkpt>
      <trkpt lat="47.26743" lon="-1.65345">
        <ele>34.797501</ele>
        <time>2020-07-14T10:02:56Z</time>
      </trkpt>
      <trkpt lat="47.26754" lon="-1.65385">
        <ele>33.559425</ele>
        <time>2020-07-14T10:03:04Z</time>
      </trkpt>
      <trkpt lat="47.2676" lon="-1.65432">
        <ele>32.997501</ele>
        <time>2020-07-14T10:03:09Z</time>
      </trkpt>
      <trkpt lat="47.26766" lon="-1.65461">
        <ele>32.6875</ele>
        <time>2020-07-14T10:03:14Z</time>
      </trkpt>
      <trkpt lat="47.26767" lon="-1.65486">
        <ele>33.122501</ele>
        <time>2020-07-14T10:03:18Z</time>
      </trkpt>
      <trkpt lat="47.26774" lon="-1.65522">
        <ele>32.095001</ele>
        <time>2020-07-14T10:03:27Z</time>
      </trkpt>
      <trkpt lat="47.26774" lon="-1.65543">
        <ele>31.955</ele>
        <time>2020-07-14T10:03:33Z</time>
      </trkpt>
      <trkpt lat="47.2677" lon="-1.65556">
        <ele>32.549999</ele>
        <time>2020-07-14T10:03:38Z</time>
      </trkpt>
      <trkpt lat="47.26717" lon="-1.65616">
        <ele>38.023655</ele>
        <time>2020-07-14T10:04:01Z</time>
      </trkpt>
      <trkpt lat="47.26703" lon="-1.65624">
        <ele>39.068306</ele>
        <time>2020-07-14T10:04:07Z</time>
      </trkpt>
      <trkpt lat="47.26669" lon="-1.65633">
        <ele>40.960361</ele>
        <time>2020-07-14T10:04:28Z</time>
      </trkpt>
      <trkpt lat="47.26647" lon="-1.65627">
        <ele>42.40823</ele>
        <time>2020-07-14T10:04:37Z</time>
      </trkpt>
      <trkpt lat="47.26601" lon="-1.65596">
        <ele>44.877499</ele>
        <time>2020-07-14T10:04:52Z</time>
      </trkpt>
      <trkpt lat="47.26593" lon="-1.65597">
        <ele>45.021252</ele>
        <time>2020-07-14T10:04:54Z</time>
      </trkpt>
      <trkpt lat="47.26589" lon="-1.65601">
        <ele>44.96125</ele>
        <time>2020-07-14T10:04:56Z</time>
      </trkpt>
      <trkpt lat="47.26586" lon="-1.65712">
        <ele>42.96875</ele>
        <time>2020-07-14T10:05:15Z</time>
      </trkpt>
      <trkpt lat="47.26584" lon="-1.6572">
        <ele>42.733749</ele>
        <time>2020-07-14T10:05:17Z</time>
      </trkpt>
      <trkpt lat="47.26513" lon="-1.65741">
        <ele>38.676907</ele>
        <time>2020-07-14T10:05:28Z</time>
      </trkpt>
      <trkpt lat="47.26504" lon="-1.65751">
        <ele>37.607918</ele>
        <time>2020-07-14T10:05:30Z</time>
      </trkpt>
      <trkpt lat="47.26502" lon="-1.65763">
        <ele>36.489624</ele>
        <time>2020-07-14T10:05:32Z</time>
      </trkpt>
      <trkpt lat="47.26504" lon="-1.65778">
        <ele>34.820271</ele>
        <time>2020-07-14T10:05:34Z</time>
      </trkpt>
      <trkpt lat="47.26521" lon="-1.65834">
        <ele>29.71195</ele>
        <time>2020-07-14T10:05:40Z</time>
      </trkpt>
      <trkpt lat="47.26524" lon="-1.65856">
        <ele>28.764894</ele>
        <time>2020-07-14T10:05:42Z</time>
      </trkpt>
      <trkpt lat="47.26524" lon="-1.65878">
        <ele>28.066235</ele>
        <time>2020-07-14T10:05:44Z</time>
      </trkpt>
      <trkpt lat="47.26514" lon="-1.65916">
        <ele>28.016312</ele>
        <time>2020-07-14T10:05:48Z</time>
      </trkpt>
      <trkpt lat="47.26517" lon="-1.65932">
        <ele>28.162094</ele>
        <time>2020-07-14T10:05:50Z</time>
      </trkpt>
      <trkpt lat="47.26525" lon="-1.65945">
        <ele>29.161316</ele>
        <time>2020-07-14T10:05:52Z</time>
      </trkpt>
      <trkpt lat="47.26528" lon="-1.65961">
        <ele>29.89505</ele>
        <time>2020-07-14T10:05:54Z</time>
      </trkpt>
      <trkpt lat="47.26528" lon="-1.65982">
        <ele>30.439611</ele>
        <time>2020-07-14T10:05:57Z</time>
      </trkpt>
      <trkpt lat="47.26525" lon="-1.66009">
        <ele>30.467899</ele>
        <time>2020-07-14T10:06:01Z</time>
      </trkpt>
      <trkpt lat="47.26534" lon="-1.6604">
        <ele>30.352699</ele>
        <time>2020-07-14T10:06:04Z</time>
      </trkpt>
      <trkpt lat="47.26539" lon="-1.66046">
        <ele>30.481375</ele>
        <time>2020-07-14T10:06:05Z</time>
      </trkpt>
      <trkpt lat="47.26582" lon="-1.66049">
        <ele>33.679276</ele>
        <time>2020-07-14T10:06:12Z</time>
      </trkpt>
      <trkpt lat="47.26621" lon="-1.66077">
        <ele>36.901661</ele>
        <time>2020-07-14T10:06:20Z</time>
      </trkpt>
      <trkpt lat="47.2664" lon="-1.66105">
        <ele>37.987724</ele>
        <time>2020-07-14T10:06:25Z</time>
      </trkpt>
      <trkpt lat="47.26642" lon="-1.66147">
        <ele>32.715851</ele>
        <time>2020-07-14T10:06:31Z</time>
      </trkpt>
      <trkpt lat="47.26627" lon="-1.66162">
        <ele>31.007324</ele>
        <time>2020-07-14T10:06:36Z</time>
      </trkpt>
      <trkpt lat="47.26627" lon="-1.66169">
        <ele>30.989651</ele>
        <time>2020-07-14T10:06:38Z</time>
      </trkpt>
      <trkpt lat="47.26607" lon="-1.66184">
        <ele>29.80975</ele>
        <time>2020-07-14T10:06:46Z</time>
      </trkpt>
      <trkpt lat="47.26606" lon="-1.66189">
        <ele>29.848051</ele>
        <time>2020-07-14T10:06:47Z</time>
      </trkpt>
      <trkpt lat="47.26612" lon="-1.66214">
        <ele>30.40539</ele>
        <time>2020-07-14T10:06:52Z</time>
      </trkpt>
      <trkpt lat="47.266" lon="-1.66247">
        <ele>30.635656</ele>
        <time>2020-07-14T10:06:57Z</time>
      </trkpt>
      <trkpt lat="47.26601" lon="-1.66257">
        <ele>30.772398</ele>
        <time>2020-07-14T10:06:59Z</time>
      </trkpt>
      <trkpt lat="47.26617" lon="-1.66309">
        <ele>32.608944</ele>
        <time>2020-07-14T10:07:07Z</time>
      </trkpt>
      <trkpt lat="47.26622" lon="-1.66313">
        <ele>32.269798</ele>
        <time>2020-07-14T10:07:09Z</time>
      </trkpt>
      <trkpt lat="47.26621" lon="-1.66324">
        <ele>32.679054</ele>
        <time>2020-07-14T10:07:10Z</time>
      </trkpt>
      <trkpt lat="47.2663" lon="-1.66375">
        <ele>33.189152</ele>
        <time>2020-07-14T10:07:17Z</time>
      </trkpt>
      <trkpt lat="47.26629" lon="-1.6638">
        <ele>33.743488</ele>
        <time>2020-07-14T10:07:18Z</time>
      </trkpt>
      <trkpt lat="47.26661" lon="-1.6647">
        <ele>35.20953</ele>
        <time>2020-07-14T10:07:32Z</time>
      </trkpt>
      <trkpt lat="47.26672" lon="-1.6653">
        <ele>38.730446</ele>
        <time>2020-07-14T10:07:42Z</time>
      </trkpt>
      <trkpt lat="47.26673" lon="-1.66544">
        <ele>40.427876</ele>
        <time>2020-07-14T10:07:46Z</time>
      </trkpt>
      <trkpt lat="47.26683" lon="-1.66574">
        <ele>41.789238</ele>
        <time>2020-07-14T10:07:51Z</time>
      </trkpt>
      <trkpt lat="47.2669" lon="-1.66585">
        <ele>41.391399</ele>
        <time>2020-07-14T10:07:54Z</time>
      </trkpt>
      <trkpt lat="47.267" lon="-1.66611">
        <ele>41.229912</ele>
        <time>2020-07-14T10:08:04Z</time>
      </trkpt>
      <trkpt lat="47.26707" lon="-1.66618">
        <ele>39.813824</ele>
        <time>2020-07-14T10:08:13Z</time>
      </trkpt>
      <trkpt lat="47.2671" lon="-1.66616">
        <ele>39.038639</ele>
        <time>2020-07-14T10:08:18Z</time>
      </trkpt>
      <trkpt lat="47.26715" lon="-1.66624">
        <ele>38.51672</ele>
        <time>2020-07-14T10:08:23Z</time>
      </trkpt>
      <trkpt lat="47.26745" lon="-1.66615">
        <ele>34.636417</ele>
        <time>2020-07-14T10:08:29Z</time>
      </trkpt>
      <trkpt lat="47.26761" lon="-1.66616">
        <ele>33.195038</ele>
        <time>2020-07-14T10:08:31Z</time>
      </trkpt>
      <trkpt lat="47.26771" lon="-1.66626">
        <ele>34.322342</ele>
        <time>2020-07-14T10:08:33Z</time>
      </trkpt>
      <trkpt lat="47.26806" lon="-1.66698">
        <ele>34.174038</ele>
        <time>2020-07-14T10:08:47Z</time>
      </trkpt>
      <trkpt lat="47.26818" lon="-1.66729">
        <ele>34.685875</ele>
        <time>2020-07-14T10:08:52Z</time>
      </trkpt>
      <trkpt lat="47.26867" lon="-1.66784">
        <ele>34.874702</ele>
        <time>2020-07-14T10:09:05Z</time>
      </trkpt>
      <trkpt lat="47.26902" lon="-1.66815">
        <ele>35.304028</ele>
        <time>2020-07-14T10:09:13Z</time>
      </trkpt>
      <trkpt lat="47.26914" lon="-1.66838">
        <ele>35.994148</ele>
        <time>2020-07-14T10:09:17Z</time>
      </trkpt>
      <trkpt lat="47.26918" lon="-1.66864">
        <ele>35.815632</ele>
        <time>2020-07-14T10:09:21Z</time>
      </trkpt>
      <trkpt lat="47.26921" lon="-1.66872">
        <ele>35.781551</ele>
        <time>2020-07-14T10:09:22Z</time>
      </trkpt>
      <trkpt lat="47.26921" lon="-1.66886">
        <ele>35.28347</ele>
        <time>2020-07-14T10:09:26Z</time>
      </trkpt>
      <trkpt lat="47.26928" lon="-1.66898">
        <ele>35.048374</ele>
        <time>2020-07-14T10:09:28Z</time>
      </trkpt>
      <trkpt lat="47.26931" lon="-1.66917">
        <ele>35.338711</ele>
        <time>2020-07-14T10:09:31Z</time>
      </trkpt>
      <trkpt lat="47.26922" lon="-1.66969">
        <ele>36.164398</ele>
        <time>2020-07-14T10:09:40Z</time>
      </trkpt>
      <trkpt lat="47.26919" lon="-1.67008">
        <ele>37.462078</ele>
        <time>2020-07-14T10:09:45Z</time>
      </trkpt>
      <trkpt lat="47.26909" lon="-1.67072">
        <ele>37.929501</ele>
        <time>2020-07-14T10:09:55Z</time>
      </trkpt>
      <trkpt lat="47.26904" lon="-1.6708">
        <ele>37.352745</ele>
        <time>2020-07-14T10:09:57Z</time>
      </trkpt>
      <trkpt lat="47.26903" lon="-1.67098">
        <ele>37.315571</ele>
        <time>2020-07-14T10:09:59Z</time>
      </trkpt>
      <trkpt lat="47.26898" lon="-1.67122">
        <ele>36.20657</ele>
        <time>2020-07-14T10:10:03Z</time>
      </trkpt>
      <trkpt lat="47.26894" lon="-1.67126">
        <ele>35.671867</ele>
        <time>2020-07-14T10:10:04Z</time>
      </trkpt>
      <trkpt lat="47.26867" lon="-1.67135">
        <ele>34.437248</ele>
        <time>2020-07-14T10:10:14Z</time>
      </trkpt>
      <trkpt lat="47.26866" lon="-1.67143">
        <ele>34.386887</ele>
        <time>2020-07-14T10:10:19Z</time>
      </trkpt>
      <trkpt lat="47.26894" lon="-1.67162">
        <ele>35.294613</ele>
        <time>2020-07-14T10:10:29Z</time>
      </trkpt>
      <trkpt lat="47.26919" lon="-1.67159">
        <ele>37.596245</ele>
        <time>2020-07-14T10:10:34Z</time>
      </trkpt>
      <trkpt lat="47.27002" lon="-1.67126">
        <ele>41.526501</ele>
        <time>2020-07-14T10:10:58Z</time>
      </trkpt>
      <trkpt lat="47.27044" lon="-1.67123">
        <ele>43.025143</ele>
        <time>2020-07-14T10:11:11Z</time>
      </trkpt>
      <trkpt lat="47.27063" lon="-1.67131">
        <ele>42.121101</ele>
        <time>2020-07-14T10:11:19Z</time>
      </trkpt>
      <trkpt lat="47.27078" lon="-1.67133">
        <ele>42.854919</ele>
        <time>2020-07-14T10:11:23Z</time>
      </trkpt>
      <trkpt lat="47.27121" lon="-1.67149">
        <ele>45.430233</ele>
        <time>2020-07-14T10:11:36Z</time>
      </trkpt>
      <trkpt lat="47.2716" lon="-1.67151">
        <ele>52.642139</ele>
        <time>2020-07-14T10:11:47Z</time>
      </trkpt>
      <trkpt lat="47.27181" lon="-1.6716">
        <ele>54.54565</ele>
        <time>2020-07-14T10:11:52Z</time>
      </trkpt>
      <trkpt lat="47.27203" lon="-1.67177">
        <ele>56.460266</ele>
        <time>2020-07-14T10:12:01Z</time>
      </trkpt>
      <trkpt lat="47.27292" lon="-1.6721">
        <ele>58.641949</ele>
        <time>2020-07-14T10:12:26Z</time>
      </trkpt>
      <trkpt lat="47.2732" lon="-1.67217">
        <ele>59.691036</ele>
        <time>2020-07-14T10:12:33Z</time>
      </trkpt>
      <trkpt lat="47.27345" lon="-1.67218">
        <ele>60.615467</ele>
        <time>2020-07-14T10:12:39Z</time>
      </trkpt>
      <trkpt lat="47.27383" lon="-1.67201">
        <ele>62.128838</ele>
        <time>2020-07-14T10:12:48Z</time>
      </trkpt>
      <trkpt lat="47.2742" lon="-1.67167">
        <ele>63.035</ele>
        <time>2020-07-14T10:12:57Z</time>
      </trkpt>
      <trkpt lat="47.27437" lon="-1.67147">
        <ele>63.389999</ele>
        <time>2020-07-14T10:13:02Z</time>
      </trkpt>
      <trkpt lat="47.27517" lon="-1.67072">
        <ele>65.101875</ele>
        <time>2020-07-14T10:13:23Z</time>
      </trkpt>
      <trkpt lat="47.27519" lon="-1.67057">
        <ele>64.970436</ele>
        <time>2020-07-14T10:13:25Z</time>
      </trkpt>
      <trkpt lat="47.27466" lon="-1.66887">
        <ele>61.717232</ele>
        <time>2020-07-14T10:13:46Z</time>
      </trkpt>
      <trkpt lat="47.27437" lon="-1.66832">
        <ele>60.279999</ele>
        <time>2020-07-14T10:13:54Z</time>
      </trkpt>
      <trkpt lat="47.27401" lon="-1.66775">
        <ele>60.341873</ele>
        <time>2020-07-14T10:14:03Z</time>
      </trkpt>
      <trkpt lat="47.27377" lon="-1.66747">
        <ele>60.735001</ele>
        <time>2020-07-14T10:14:08Z</time>
      </trkpt>
      <trkpt lat="47.27321" lon="-1.66664">
        <ele>61.925625</ele>
        <time>2020-07-14T10:14:22Z</time>
      </trkpt>
      <trkpt lat="47.27311" lon="-1.66635">
        <ele>62.358749</ele>
        <time>2020-07-14T10:14:26Z</time>
      </trkpt>
      <trkpt lat="47.27309" lon="-1.66619">
        <ele>62.590626</ele>
        <time>2020-07-14T10:14:28Z</time>
      </trkpt>
      <trkpt lat="47.27311" lon="-1.66548">
        <ele>63</ele>
        <time>2020-07-14T10:14:37Z</time>
      </trkpt>
      <trkpt lat="47.27329" lon="-1.66317">
        <ele>62.825001</ele>
        <time>2020-07-14T10:15:06Z</time>
      </trkpt>
      <trkpt lat="47.27341" lon="-1.66246">
        <ele>61.613899</ele>
        <time>2020-07-14T10:15:14Z</time>
      </trkpt>
      <trkpt lat="47.27353" lon="-1.662">
        <ele>60.827057</ele>
        <time>2020-07-14T10:15:19Z</time>
      </trkpt>
      <trkpt lat="47.2737" lon="-1.66156">
        <ele>60.346249</ele>
        <time>2020-07-14T10:15:24Z</time>
      </trkpt>
      <trkpt lat="47.27398" lon="-1.66062">
        <ele>58.893059</ele>
        <time>2020-07-14T10:15:35Z</time>
      </trkpt>
      <trkpt lat="47.27429" lon="-1.65977">
        <ele>59.195</ele>
        <time>2020-07-14T10:15:46Z</time>
      </trkpt>
      <trkpt lat="47.27442" lon="-1.65951">
        <ele>59.294998</ele>
        <time>2020-07-14T10:15:50Z</time>
      </trkpt>
      <trkpt lat="47.27463" lon="-1.65924">
        <ele>60.02</ele>
        <time>2020-07-14T10:15:56Z</time>
      </trkpt>
      <trkpt lat="47.27568" lon="-1.65867">
        <ele>61.665131</ele>
        <time>2020-07-14T10:16:17Z</time>
      </trkpt>
      <trkpt lat="47.2761" lon="-1.65849">
        <ele>60.944889</ele>
        <time>2020-07-14T10:16:25Z</time>
      </trkpt>
      <trkpt lat="47.27634" lon="-1.65863">
        <ele>61.706226</ele>
        <time>2020-07-14T10:16:30Z</time>
      </trkpt>
      <trkpt lat="47.27741" lon="-1.65907">
        <ele>64.481873</ele>
        <time>2020-07-14T10:16:52Z</time>
      </trkpt>
      <trkpt lat="47.2777" lon="-1.65925">
        <ele>65.199997</ele>
        <time>2020-07-14T10:16:59Z</time>
      </trkpt>
      <trkpt lat="47.27802" lon="-1.6595">
        <ele>65.947632</ele>
        <time>2020-07-14T10:17:08Z</time>
      </trkpt>
      <trkpt lat="47.27818" lon="-1.65958">
        <ele>65.900345</ele>
        <time>2020-07-14T10:17:12Z</time>
      </trkpt>
      <trkpt lat="47.27832" lon="-1.65961">
        <ele>65.626877</ele>
        <time>2020-07-14T10:17:15Z</time>
      </trkpt>
      <trkpt lat="47.27877" lon="-1.65982">
        <ele>64.852188</ele>
        <time>2020-07-14T10:17:24Z</time>
      </trkpt>
      <trkpt lat="47.27912" lon="-1.66003">
        <ele>63.950001</ele>
        <time>2020-07-14T10:17:31Z</time>
      </trkpt>
      <trkpt lat="47.27922" lon="-1.66003">
        <ele>63.715</ele>
        <time>2020-07-14T10:17:33Z</time>
      </trkpt>
      <trkpt lat="47.27927" lon="-1.65999">
        <ele>63.610001</ele>
        <time>2020-07-14T10:17:34Z</time>
      </trkpt>
      <trkpt lat="47.27931" lon="-1.65985">
        <ele>63.529999</ele>
        <time>2020-07-14T10:17:36Z</time>
      </trkpt>
      <trkpt lat="47.27925" lon="-1.65927">
        <ele>62.985626</ele>
        <time>2020-07-14T10:17:43Z</time>
      </trkpt>
      <trkpt lat="47.27915" lon="-1.65874">
        <ele>62.990002</ele>
        <time>2020-07-14T10:17:50Z</time>
      </trkpt>
      <trkpt lat="47.27914" lon="-1.65856">
        <ele>63.004875</ele>
        <time>2020-07-14T10:17:52Z</time>
      </trkpt>
      <trkpt lat="47.27918" lon="-1.65811">
        <ele>62.474377</ele>
        <time>2020-07-14T10:17:57Z</time>
      </trkpt>
      <trkpt lat="47.27915" lon="-1.65729">
        <ele>61.364376</ele>
        <time>2020-07-14T10:18:06Z</time>
      </trkpt>
      <trkpt lat="47.27921" lon="-1.65659">
        <ele>59.459511</ele>
        <time>2020-07-14T10:18:14Z</time>
      </trkpt>
      <trkpt lat="47.27912" lon="-1.65595">
        <ele>59.130367</ele>
        <time>2020-07-14T10:18:22Z</time>
      </trkpt>
      <trkpt lat="47.27913" lon="-1.65575">
        <ele>58.946877</ele>
        <time>2020-07-14T10:18:25Z</time>
      </trkpt>
      <trkpt lat="47.27902" lon="-1.65517">
        <ele>58.076248</ele>
        <time>2020-07-14T10:18:32Z</time>
      </trkpt>
      <trkpt lat="47.27885" lon="-1.65484">
        <ele>58</ele>
        <time>2020-07-14T10:18:37Z</time>
      </trkpt>
      <trkpt lat="47.2787" lon="-1.65472">
        <ele>58.131439</ele>
        <time>2020-07-14T10:18:40Z</time>
      </trkpt>
      <trkpt lat="47.27847" lon="-1.65466">
        <ele>58.305115</ele>
        <time>2020-07-14T10:18:44Z</time>
      </trkpt>
      <trkpt lat="47.27806" lon="-1.65462">
        <ele>58.609898</ele>
        <time>2020-07-14T10:18:54Z</time>
      </trkpt>
      <trkpt lat="47.27761" lon="-1.65444">
        <ele>58.900658</ele>
        <time>2020-07-14T10:19:04Z</time>
      </trkpt>
      <trkpt lat="47.27737" lon="-1.65445">
        <ele>58.938126</ele>
        <time>2020-07-14T10:19:09Z</time>
      </trkpt>
      <trkpt lat="47.2772" lon="-1.65438">
        <ele>58.43375</ele>
        <time>2020-07-14T10:19:11Z</time>
      </trkpt>
      <trkpt lat="47.27702" lon="-1.65423">
        <ele>57.551327</ele>
        <time>2020-07-14T10:19:14Z</time>
      </trkpt>
      <trkpt lat="47.27701" lon="-1.65406">
        <ele>56.7724</ele>
        <time>2020-07-14T10:19:19Z</time>
      </trkpt>
      <trkpt lat="47.27686" lon="-1.65345">
        <ele>55.056549</ele>
        <time>2020-07-14T10:19:29Z</time>
      </trkpt>
      <trkpt lat="47.27668" lon="-1.65345">
        <ele>54.815792</ele>
        <time>2020-07-14T10:19:37Z</time>
      </trkpt>
      <trkpt lat="47.2766" lon="-1.6534">
        <ele>54.991249</ele>
        <time>2020-07-14T10:19:47Z</time>
      </trkpt>
      <trkpt lat="47.27654" lon="-1.65327">
        <ele>55.629452</ele>
        <time>2020-07-14T10:19:55Z</time>
      </trkpt>
      <trkpt lat="47.27638" lon="-1.65313">
        <ele>56.487843</ele>
        <time>2020-07-14T10:20:02Z</time>
      </trkpt>
      <trkpt lat="47.27626" lon="-1.65284">
        <ele>58.391262</ele>
        <time>2020-07-14T10:20:11Z</time>
      </trkpt>
      <trkpt lat="47.27623" lon="-1.65258">
        <ele>60.023289</ele>
        <time>2020-07-14T10:20:17Z</time>
      </trkpt>
      <trkpt lat="47.27615" lon="-1.65238">
        <ele>60.976326</ele>
        <time>2020-07-14T10:20:24Z</time>
      </trkpt>
      <trkpt lat="47.27587" lon="-1.65189">
        <ele>60.94875</ele>
        <time>2020-07-14T10:20:35Z</time>
      </trkpt>
      <trkpt lat="47.27568" lon="-1.65129">
        <ele>60.172874</ele>
        <time>2020-07-14T10:20:50Z</time>
      </trkpt>
      <trkpt lat="47.27559" lon="-1.65116">
        <ele>59.714626</ele>
        <time>2020-07-14T10:20:53Z</time>
      </trkpt>
      <trkpt lat="47.27534" lon="-1.65009">
        <ele>61.981876</ele>
        <time>2020-07-14T10:21:11Z</time>
      </trkpt>
      <trkpt lat="47.27529" lon="-1.64972">
        <ele>62.239376</ele>
        <time>2020-07-14T10:21:18Z</time>
      </trkpt>
      <trkpt lat="47.2753" lon="-1.64913">
        <ele>62.450001</ele>
        <time>2020-07-14T10:21:26Z</time>
      </trkpt>
      <trkpt lat="47.27521" lon="-1.64838">
        <ele>61.188751</ele>
        <time>2020-07-14T10:21:36Z</time>
      </trkpt>
      <trkpt lat="47.27525" lon="-1.64807">
        <ele>60.884377</ele>
        <time>2020-07-14T10:21:40Z</time>
      </trkpt>
      <trkpt lat="47.27542" lon="-1.64736">
        <ele>60.087502</ele>
        <time>2020-07-14T10:21:49Z</time>
      </trkpt>
      <trkpt lat="47.27549" lon="-1.64647">
        <ele>56.2575</ele>
        <time>2020-07-14T10:21:58Z</time>
      </trkpt>
      <trkpt lat="47.27562" lon="-1.64582">
        <ele>54.705002</ele>
        <time>2020-07-14T10:22:04Z</time>
      </trkpt>
      <trkpt lat="47.27563" lon="-1.64532">
        <ele>55.622498</ele>
        <time>2020-07-14T10:22:09Z</time>
      </trkpt>
      <trkpt lat="47.27554" lon="-1.64451">
        <ele>58.776955</ele>
        <time>2020-07-14T10:22:21Z</time>
      </trkpt>
      <trkpt lat="47.27557" lon="-1.64434">
        <ele>59.601799</ele>
        <time>2020-07-14T10:22:23Z</time>
      </trkpt>
      <trkpt lat="47.27576" lon="-1.64417">
        <ele>60.435905</ele>
        <time>2020-07-14T10:22:30Z</time>
      </trkpt>
      <trkpt lat="47.2759" lon="-1.64408">
        <ele>60.912094</ele>
        <time>2020-07-14T10:22:34Z</time>
      </trkpt>
      <trkpt lat="47.27646" lon="-1.64388">
        <ele>63.197937</ele>
        <time>2020-07-14T10:22:48Z</time>
      </trkpt>
      <trkpt lat="47.27685" lon="-1.64383">
        <ele>64.404999</ele>
        <time>2020-07-14T10:22:59Z</time>
      </trkpt>
      <trkpt lat="47.27709" lon="-1.64374">
        <ele>65.249687</ele>
        <time>2020-07-14T10:23:06Z</time>
      </trkpt>
      <trkpt lat="47.27752" lon="-1.64347">
        <ele>66.298897</ele>
        <time>2020-07-14T10:23:17Z</time>
      </trkpt>
      <trkpt lat="47.278" lon="-1.64299">
        <ele>67.005409</ele>
        <time>2020-07-14T10:23:31Z</time>
      </trkpt>
      <trkpt lat="47.2781" lon="-1.64281">
        <ele>67.254204</ele>
        <time>2020-07-14T10:23:34Z</time>
      </trkpt>
      <trkpt lat="47.27857" lon="-1.64226">
        <ele>67.906876</ele>
        <time>2020-07-14T10:23:50Z</time>
      </trkpt>
      <trkpt lat="47.27878" lon="-1.64214">
        <ele>67.670624</ele>
        <time>2020-07-14T10:23:55Z</time>
      </trkpt>
      <trkpt lat="47.27907" lon="-1.6419">
        <ele>67.428749</ele>
        <time>2020-07-14T10:24:01Z</time>
      </trkpt>
      <trkpt lat="47.27915" lon="-1.64179">
        <ele>67.433746</ele>
        <time>2020-07-14T10:24:04Z</time>
      </trkpt>
      <trkpt lat="47.27939" lon="-1.64109">
        <ele>68.581627</ele>
        <time>2020-07-14T10:24:17Z</time>
      </trkpt>
      <trkpt lat="47.27933" lon="-1.64098">
        <ele>68.807152</ele>
        <time>2020-07-14T10:24:21Z</time>
      </trkpt>
      <trkpt lat="47.279" lon="-1.64066">
        <ele>69.796059</ele>
        <time>2020-07-14T10:24:31Z</time>
      </trkpt>
      <trkpt lat="47.27899" lon="-1.64058">
        <ele>69.947197</ele>
        <time>2020-07-14T10:24:32Z</time>
      </trkpt>
      <trkpt lat="47.27908" lon="-1.64048">
        <ele>70</ele>
        <time>2020-07-14T10:24:35Z</time>
      </trkpt>
      <trkpt lat="47.27919" lon="-1.64045">
        <ele>70</ele>
        <time>2020-07-14T10:24:38Z</time>
      </trkpt>
      <trkpt lat="47.27958" lon="-1.64061">
        <ele>69.387283</ele>
        <time>2020-07-14T10:24:49Z</time>
      </trkpt>
      <trkpt lat="47.28019" lon="-1.64064">
        <ele>69.937653</ele>
        <time>2020-07-14T10:25:01Z</time>
      </trkpt>
      <trkpt lat="47.28104" lon="-1.64055">
        <ele>71.583122</ele>
        <time>2020-07-14T10:25:19Z</time>
      </trkpt>
      <trkpt lat="47.28146" lon="-1.64033">
        <ele>72.129372</ele>
        <time>2020-07-14T10:25:28Z</time>
      </trkpt>
      <trkpt lat="47.28254" lon="-1.64004">
        <ele>72.592499</ele>
        <time>2020-07-14T10:25:51Z</time>
      </trkpt>
      <trkpt lat="47.2833" lon="-1.63999">
        <ele>69.672501</ele>
        <time>2020-07-14T10:26:05Z</time>
      </trkpt>
      <trkpt lat="47.28363" lon="-1.63992">
        <ele>68.945625</ele>
        <time>2020-07-14T10:26:11Z</time>
      </trkpt>
      <trkpt lat="47.28401" lon="-1.6399">
        <ele>68.356361</ele>
        <time>2020-07-14T10:26:18Z</time>
      </trkpt>
      <trkpt lat="47.28441" lon="-1.6398">
        <ele>67.937363</ele>
        <time>2020-07-14T10:26:25Z</time>
      </trkpt>
      <trkpt lat="47.28448" lon="-1.63969">
        <ele>67.971252</ele>
        <time>2020-07-14T10:26:27Z</time>
      </trkpt>
      <trkpt lat="47.2845" lon="-1.63947">
        <ele>68.150223</ele>
        <time>2020-07-14T10:26:30Z</time>
      </trkpt>
      <trkpt lat="47.28455" lon="-1.63925">
        <ele>68.284706</ele>
        <time>2020-07-14T10:26:33Z</time>
      </trkpt>
      <trkpt lat="47.28457" lon="-1.63904">
        <ele>68.414284</ele>
        <time>2020-07-14T10:26:36Z</time>
      </trkpt>
      <trkpt lat="47.28474" lon="-1.63817">
        <ele>67.746246</ele>
        <time>2020-07-14T10:26:49Z</time>
      </trkpt>
      <trkpt lat="47.28473" lon="-1.63807">
        <ele>67.596252</ele>
        <time>2020-07-14T10:26:51Z</time>
      </trkpt>
      <trkpt lat="47.28457" lon="-1.63781">
        <ele>67.232498</ele>
        <time>2020-07-14T10:26:58Z</time>
      </trkpt>
      <trkpt lat="47.2838" lon="-1.63711">
        <ele>65.203751</ele>
        <time>2020-07-14T10:27:10Z</time>
      </trkpt>
      <trkpt lat="47.28379" lon="-1.63695">
        <ele>64.671249</ele>
        <time>2020-07-14T10:27:12Z</time>
      </trkpt>
      <trkpt lat="47.28397" lon="-1.63655">
        <ele>63.806252</ele>
        <time>2020-07-14T10:27:17Z</time>
      </trkpt>
      <trkpt lat="47.28406" lon="-1.6362">
        <ele>63.016495</ele>
        <time>2020-07-14T10:27:21Z</time>
      </trkpt>
      <trkpt lat="47.28413" lon="-1.63521">
        <ele>60.870079</ele>
        <time>2020-07-14T10:27:31Z</time>
      </trkpt>
      <trkpt lat="47.28428" lon="-1.63391">
        <ele>58.366875</ele>
        <time>2020-07-14T10:27:44Z</time>
      </trkpt>
      <trkpt lat="47.28421" lon="-1.63336">
        <ele>57.859699</ele>
        <time>2020-07-14T10:27:50Z</time>
      </trkpt>
      <trkpt lat="47.28421" lon="-1.63321">
        <ele>57.789932</ele>
        <time>2020-07-14T10:27:52Z</time>
      </trkpt>
      <trkpt lat="47.28416" lon="-1.63276">
        <ele>58.247448</ele>
        <time>2020-07-14T10:27:59Z</time>
      </trkpt>
      <trkpt lat="47.28422" lon="-1.63264">
        <ele>58.430882</ele>
        <time>2020-07-14T10:28:02Z</time>
      </trkpt>
      <trkpt lat="47.28429" lon="-1.63254">
        <ele>58.578468</ele>
        <time>2020-07-14T10:28:04Z</time>
      </trkpt>
      <trkpt lat="47.28452" lon="-1.63239">
        <ele>58.93058</ele>
        <time>2020-07-14T10:28:09Z</time>
      </trkpt>
      <trkpt lat="47.2846" lon="-1.63229">
        <ele>59.023125</ele>
        <time>2020-07-14T10:28:11Z</time>
      </trkpt>
      <trkpt lat="47.28465" lon="-1.63217">
        <ele>59.1175</ele>
        <time>2020-07-14T10:28:13Z</time>
      </trkpt>
      <trkpt lat="47.28441" lon="-1.63124">
        <ele>60</ele>
        <time>2020-07-14T10:28:27Z</time>
      </trkpt>
      <trkpt lat="47.28449" lon="-1.63115">
        <ele>60</ele>
        <time>2020-07-14T10:28:30Z</time>
      </trkpt>
      <trkpt lat="47.28462" lon="-1.63112">
        <ele>59.99474</ele>
        <time>2020-07-14T10:28:33Z</time>
      </trkpt>
      <trkpt lat="47.28481" lon="-1.63096">
        <ele>60</ele>
        <time>2020-07-14T10:28:37Z</time>
      </trkpt>
      <trkpt lat="47.2848" lon="-1.63091">
        <ele>60</ele>
        <time>2020-07-14T10:28:39Z</time>
      </trkpt>
      <trkpt lat="47.28471" lon="-1.63086">
        <ele>60</ele>
        <time>2020-07-14T10:29:50Z</time>
      </trkpt>
      <trkpt lat="47.28467" lon="-1.63075">
        <ele>60</ele>
        <time>2020-07-14T10:29:54Z</time>
      </trkpt>
      <trkpt lat="47.28449" lon="-1.63054">
        <ele>60</ele>
        <time>2020-07-14T10:29:56Z</time>
      </trkpt>
      <trkpt lat="47.28429" lon="-1.63036">
        <ele>59.999531</ele>
        <time>2020-07-14T10:30:00Z</time>
      </trkpt>
      <trkpt lat="47.28399" lon="-1.63027">
        <ele>59.905624</ele>
        <time>2020-07-14T10:30:06Z</time>
      </trkpt>
      <trkpt lat="47.28328" lon="-1.63048">
        <ele>58.7225</ele>
        <time>2020-07-14T10:30:19Z</time>
      </trkpt>
      <trkpt lat="47.28305" lon="-1.63051">
        <ele>57.979473</ele>
        <time>2020-07-14T10:30:23Z</time>
      </trkpt>
      <trkpt lat="47.28255" lon="-1.63069">
        <ele>55.650276</ele>
        <time>2020-07-14T10:30:32Z</time>
      </trkpt>
      <trkpt lat="47.28224" lon="-1.63074">
        <ele>54.179428</ele>
        <time>2020-07-14T10:30:39Z</time>
      </trkpt>
      <trkpt lat="47.28193" lon="-1.63061">
        <ele>53.093262</ele>
        <time>2020-07-14T10:30:44Z</time>
      </trkpt>
      <trkpt lat="47.28174" lon="-1.63065">
        <ele>53.064922</ele>
        <time>2020-07-14T10:30:47Z</time>
      </trkpt>
      <trkpt lat="47.28147" lon="-1.63081">
        <ele>53.962204</ele>
        <time>2020-07-14T10:30:52Z</time>
      </trkpt>
      <trkpt lat="47.28135" lon="-1.63082">
        <ele>54.063751</ele>
        <time>2020-07-14T10:30:54Z</time>
      </trkpt>
      <trkpt lat="47.28093" lon="-1.63074">
        <ele>54.010624</ele>
        <time>2020-07-14T10:31:03Z</time>
      </trkpt>
      <trkpt lat="47.28061" lon="-1.63079">
        <ele>55.040623</ele>
        <time>2020-07-14T10:31:10Z</time>
      </trkpt>
      <trkpt lat="47.28057" lon="-1.63076">
        <ele>55.048122</ele>
        <time>2020-07-14T10:31:12Z</time>
      </trkpt>
      <trkpt lat="47.28057" lon="-1.63069">
        <ele>54.731876</ele>
        <time>2020-07-14T10:31:14Z</time>
      </trkpt>
      <trkpt lat="47.28071" lon="-1.63035">
        <ele>52.868126</ele>
        <time>2020-07-14T10:31:21Z</time>
      </trkpt>
      <trkpt lat="47.28073" lon="-1.63019">
        <ele>52.10125</ele>
        <time>2020-07-14T10:31:24Z</time>
      </trkpt>
      <trkpt lat="47.28092" lon="-1.62985">
        <ele>50.577507</ele>
        <time>2020-07-14T10:31:30Z</time>
      </trkpt>
      <trkpt lat="47.28113" lon="-1.62926">
        <ele>48.740627</ele>
        <time>2020-07-14T10:31:37Z</time>
      </trkpt>
      <trkpt lat="47.28138" lon="-1.62867">
        <ele>48.300217</ele>
        <time>2020-07-14T10:31:43Z</time>
      </trkpt>
      <trkpt lat="47.28157" lon="-1.628">
        <ele>46.263176</ele>
        <time>2020-07-14T10:31:50Z</time>
      </trkpt>
      <trkpt lat="47.28169" lon="-1.6274">
        <ele>44.771301</ele>
        <time>2020-07-14T10:31:57Z</time>
      </trkpt>
      <trkpt lat="47.28184" lon="-1.62699">
        <ele>44.843449</ele>
        <time>2020-07-14T10:32:02Z</time>
      </trkpt>
      <trkpt lat="47.28189" lon="-1.62674">
        <ele>43.866386</ele>
        <time>2020-07-14T10:32:05Z</time>
      </trkpt>
      <trkpt lat="47.28218" lon="-1.62605">
        <ele>40.85767</ele>
        <time>2020-07-14T10:32:14Z</time>
      </trkpt>
      <trkpt lat="47.28232" lon="-1.62584">
        <ele>40.478302</ele>
        <time>2020-07-14T10:32:17Z</time>
      </trkpt>
      <trkpt lat="47.28256" lon="-1.62559">
        <ele>40.084373</ele>
        <time>2020-07-14T10:32:22Z</time>
      </trkpt>
      <trkpt lat="47.28285" lon="-1.62536">
        <ele>40.190624</ele>
        <time>2020-07-14T10:32:28Z</time>
      </trkpt>
      <trkpt lat="47.28314" lon="-1.62528">
        <ele>41.175064</ele>
        <time>2020-07-14T10:32:34Z</time>
      </trkpt>
      <trkpt lat="47.28365" lon="-1.62506">
        <ele>42.993752</ele>
        <time>2020-07-14T10:32:44Z</time>
      </trkpt>
      <trkpt lat="47.28412" lon="-1.62491">
        <ele>43.923145</ele>
        <time>2020-07-14T10:32:55Z</time>
      </trkpt>
      <trkpt lat="47.28451" lon="-1.62498">
        <ele>44.799</ele>
        <time>2020-07-14T10:33:03Z</time>
      </trkpt>
      <trkpt lat="47.28471" lon="-1.62499">
        <ele>44.929913</ele>
        <time>2020-07-14T10:33:07Z</time>
      </trkpt>
      <trkpt lat="47.28476" lon="-1.62502">
        <ele>44.974125</ele>
        <time>2020-07-14T10:33:08Z</time>
      </trkpt>
      <trkpt lat="47.28518" lon="-1.62512">
        <ele>46.650002</ele>
        <time>2020-07-14T10:33:19Z</time>
      </trkpt>
      <trkpt lat="47.28552" lon="-1.62533">
        <ele>48.436455</ele>
        <time>2020-07-14T10:33:29Z</time>
      </trkpt>
      <trkpt lat="47.28569" lon="-1.62538">
        <ele>48.979805</ele>
        <time>2020-07-14T10:33:34Z</time>
      </trkpt>
      <trkpt lat="47.28595" lon="-1.6254">
        <ele>50.130001</ele>
        <time>2020-07-14T10:33:41Z</time>
      </trkpt>
      <trkpt lat="47.28619" lon="-1.62547">
        <ele>51.345001</ele>
        <time>2020-07-14T10:33:47Z</time>
      </trkpt>
      <trkpt lat="47.2864" lon="-1.62546">
        <ele>52.709999</ele>
        <time>2020-07-14T10:33:53Z</time>
      </trkpt>
      <trkpt lat="47.28681" lon="-1.62558">
        <ele>55.212803</ele>
        <time>2020-07-14T10:34:06Z</time>
      </trkpt>
      <trkpt lat="47.28695" lon="-1.62566">
        <ele>56.084499</ele>
        <time>2020-07-14T10:34:11Z</time>
      </trkpt>
      <trkpt lat="47.28738" lon="-1.62578">
        <ele>57.710201</ele>
        <time>2020-07-14T10:34:25Z</time>
      </trkpt>
      <trkpt lat="47.28772" lon="-1.62581">
        <ele>58.52</ele>
        <time>2020-07-14T10:34:34Z</time>
      </trkpt>
      <trkpt lat="47.28809" lon="-1.62567">
        <ele>59</ele>
        <time>2020-07-14T10:34:43Z</time>
      </trkpt>
      <trkpt lat="47.2883" lon="-1.62591">
        <ele>59</ele>
        <time>2020-07-14T10:34:50Z</time>
      </trkpt>
      <trkpt lat="47.28842" lon="-1.62597">
        <ele>58.73827</ele>
        <time>2020-07-14T10:34:53Z</time>
      </trkpt>
      <trkpt lat="47.2887" lon="-1.62579">
        <ele>57.165237</ele>
        <time>2020-07-14T10:34:58Z</time>
      </trkpt>
      <trkpt lat="47.28901" lon="-1.62564">
        <ele>55.139217</ele>
        <time>2020-07-14T10:35:02Z</time>
      </trkpt>
      <trkpt lat="47.29031" lon="-1.62489">
        <ele>45.747673</ele>
        <time>2020-07-14T10:35:17Z</time>
      </trkpt>
      <trkpt lat="47.29035" lon="-1.62482">
        <ele>45.65097</ele>
        <time>2020-07-14T10:35:18Z</time>
      </trkpt>
      <trkpt lat="47.29038" lon="-1.62421">
        <ele>46.749619</ele>
        <time>2020-07-14T10:35:25Z</time>
      </trkpt>
      <trkpt lat="47.29035" lon="-1.62407">
        <ele>47.103176</ele>
        <time>2020-07-14T10:35:29Z</time>
      </trkpt>
      <trkpt lat="47.29036" lon="-1.62337">
        <ele>45.1087</ele>
        <time>2020-07-14T10:35:39Z</time>
      </trkpt>
      <trkpt lat="47.2903" lon="-1.6232">
        <ele>44.804314</ele>
        <time>2020-07-14T10:35:43Z</time>
      </trkpt>
      <trkpt lat="47.29016" lon="-1.62321">
        <ele>45.52375</ele>
        <time>2020-07-14T10:35:48Z</time>
      </trkpt>
      <trkpt lat="47.28978" lon="-1.62299">
        <ele>45.301128</ele>
        <time>2020-07-14T10:36:02Z</time>
      </trkpt>
      <trkpt lat="47.28936" lon="-1.62284">
        <ele>44.442158</ele>
        <time>2020-07-14T10:36:09Z</time>
      </trkpt>
      <trkpt lat="47.2893" lon="-1.62286">
        <ele>44.667576</ele>
        <time>2020-07-14T10:36:10Z</time>
      </trkpt>
      <trkpt lat="47.28884" lon="-1.62263">
        <ele>43.812099</ele>
        <time>2020-07-14T10:36:21Z</time>
      </trkpt>
      <trkpt lat="47.28868" lon="-1.6225">
        <ele>43.863499</ele>
        <time>2020-07-14T10:36:24Z</time>
      </trkpt>
      <trkpt lat="47.28869" lon="-1.62247">
        <ele>43.693188</ele>
        <time>2020-07-14T10:36:25Z</time>
      </trkpt>
      <trkpt lat="47.28805" lon="-1.62215">
        <ele>44.712502</ele>
        <time>2020-07-14T10:36:38Z</time>
      </trkpt>
      <trkpt lat="47.28788" lon="-1.62211">
        <ele>44.945</ele>
        <time>2020-07-14T10:36:42Z</time>
      </trkpt>
      <trkpt lat="47.28788" lon="-1.62202">
        <ele>44.392254</ele>
        <time>2020-07-14T10:36:44Z</time>
      </trkpt>
      <trkpt lat="47.28812" lon="-1.62137">
        <ele>39.916325</ele>
        <time>2020-07-14T10:36:53Z</time>
      </trkpt>
      <trkpt lat="47.28826" lon="-1.62081">
        <ele>39.393242</ele>
        <time>2020-07-14T10:37:00Z</time>
      </trkpt>
      <trkpt lat="47.28832" lon="-1.62071">
        <ele>39.558552</ele>
        <time>2020-07-14T10:37:02Z</time>
      </trkpt>
      <trkpt lat="47.28858" lon="-1.62062">
        <ele>40.929298</ele>
        <time>2020-07-14T10:37:08Z</time>
      </trkpt>
      <trkpt lat="47.28909" lon="-1.62028">
        <ele>46.264534</ele>
        <time>2020-07-14T10:37:27Z</time>
      </trkpt>
      <trkpt lat="47.28926" lon="-1.6203">
        <ele>48.041218</ele>
        <time>2020-07-14T10:37:35Z</time>
      </trkpt>
      <trkpt lat="47.28963" lon="-1.62018">
        <ele>51.625626</ele>
        <time>2020-07-14T10:37:50Z</time>
      </trkpt>
      <trkpt lat="47.28991" lon="-1.62014">
        <ele>52.983124</ele>
        <time>2020-07-14T10:38:03Z</time>
      </trkpt>
      <trkpt lat="47.29021" lon="-1.61993">
        <ele>54.293243</ele>
        <time>2020-07-14T10:38:12Z</time>
      </trkpt>
      <trkpt lat="47.29067" lon="-1.61953">
        <ele>56.857502</ele>
        <time>2020-07-14T10:38:31Z</time>
      </trkpt>
      <trkpt lat="47.29096" lon="-1.61916">
        <ele>58.870903</ele>
        <time>2020-07-14T10:38:44Z</time>
      </trkpt>
      <trkpt lat="47.2909" lon="-1.61897">
        <ele>59.792999</ele>
        <time>2020-07-14T10:38:47Z</time>
      </trkpt>
      <trkpt lat="47.29092" lon="-1.61848">
        <ele>61.310001</ele>
        <time>2020-07-14T10:39:02Z</time>
      </trkpt>
      <trkpt lat="47.29102" lon="-1.61806">
        <ele>61.8251</ele>
        <time>2020-07-14T10:39:15Z</time>
      </trkpt>
      <trkpt lat="47.29125" lon="-1.61758">
        <ele>61.940231</ele>
        <time>2020-07-14T10:39:25Z</time>
      </trkpt>
      <trkpt lat="47.29154" lon="-1.61666">
        <ele>60.674999</ele>
        <time>2020-07-14T10:39:40Z</time>
      </trkpt>
      <trkpt lat="47.29163" lon="-1.61653">
        <ele>60.494999</ele>
        <time>2020-07-14T10:39:42Z</time>
      </trkpt>
      <trkpt lat="47.29183" lon="-1.61633">
        <ele>60.072048</ele>
        <time>2020-07-14T10:39:46Z</time>
      </trkpt>
      <trkpt lat="47.29251" lon="-1.61537">
        <ele>57.474857</ele>
        <time>2020-07-14T10:40:01Z</time>
      </trkpt>
      <trkpt lat="47.2927" lon="-1.61503">
        <ele>57.224998</ele>
        <time>2020-07-14T10:40:07Z</time>
      </trkpt>
      <trkpt lat="47.29271" lon="-1.61489">
        <ele>57.224998</ele>
        <time>2020-07-14T10:40:09Z</time>
      </trkpt>
      <trkpt lat="47.29185" lon="-1.61333">
        <ele>57.509998</ele>
        <time>2020-07-14T10:40:33Z</time>
      </trkpt>
      <trkpt lat="47.2915" lon="-1.61258">
        <ele>57.2575</ele>
        <time>2020-07-14T10:40:44Z</time>
      </trkpt>
      <trkpt lat="47.29128" lon="-1.61201">
        <ele>58.211102</ele>
        <time>2020-07-14T10:40:53Z</time>
      </trkpt>
      <trkpt lat="47.29114" lon="-1.61173">
        <ele>58.829811</ele>
        <time>2020-07-14T10:40:58Z</time>
      </trkpt>
      <trkpt lat="47.29097" lon="-1.61147">
        <ele>59.1367</ele>
        <time>2020-07-14T10:41:03Z</time>
      </trkpt>
      <trkpt lat="47.2906" lon="-1.61102">
        <ele>60.788628</ele>
        <time>2020-07-14T10:41:13Z</time>
      </trkpt>
      <trkpt lat="47.29054" lon="-1.61092">
        <ele>61.095119</ele>
        <time>2020-07-14T10:41:15Z</time>
      </trkpt>
      <trkpt lat="47.28967" lon="-1.61005">
        <ele>63.829533</ele>
        <time>2020-07-14T10:41:41Z</time>
      </trkpt>
      <trkpt lat="47.28955" lon="-1.60989">
        <ele>64.331062</ele>
        <time>2020-07-14T10:41:48Z</time>
      </trkpt>
      <trkpt lat="47.28957" lon="-1.60975">
        <ele>64.623703</ele>
        <time>2020-07-14T10:41:52Z</time>
      </trkpt>
      <trkpt lat="47.2901" lon="-1.60892">
        <ele>64.464996</ele>
        <time>2020-07-14T10:42:09Z</time>
      </trkpt>
      <trkpt lat="47.29024" lon="-1.60863">
        <ele>64.190002</ele>
        <time>2020-07-14T10:42:14Z</time>
      </trkpt>
      <trkpt lat="47.29043" lon="-1.60831">
        <ele>63.785</ele>
        <time>2020-07-14T10:42:20Z</time>
      </trkpt>
      <trkpt lat="47.29058" lon="-1.60799">
        <ele>63.474998</ele>
        <time>2020-07-14T10:42:29Z</time>
      </trkpt>
      <trkpt lat="47.29057" lon="-1.60798">
        <ele>63.505001</ele>
        <time>2020-07-14T10:42:35Z</time>
      </trkpt>
      <trkpt lat="47.29073" lon="-1.60774">
        <ele>63.165001</ele>
        <time>2020-07-14T10:42:42Z</time>
      </trkpt>
      <trkpt lat="47.29102" lon="-1.60748">
        <ele>61.919876</ele>
        <time>2020-07-14T10:42:48Z</time>
      </trkpt>
      <trkpt lat="47.29121" lon="-1.6072">
        <ele>61.153671</ele>
        <time>2020-07-14T10:42:58Z</time>
      </trkpt>
      <trkpt lat="47.29127" lon="-1.60723">
        <ele>61.012688</ele>
        <time>2020-07-14T10:43:02Z</time>
      </trkpt>
      <trkpt lat="47.29122" lon="-1.60722">
        <ele>61.157421</ele>
        <time>2020-07-14T10:43:08Z</time>
      </trkpt>
      <trkpt lat="47.29111" lon="-1.60736">
        <ele>61.506386</ele>
        <time>2020-07-14T10:44:29Z</time>
      </trkpt>
      <trkpt lat="47.29114" lon="-1.60738">
        <ele>61.424374</ele>
        <time>2020-07-14T10:44:36Z</time>
      </trkpt>
      <trkpt lat="47.29122" lon="-1.60725">
        <ele>61.143414</ele>
        <time>2020-07-14T10:44:43Z</time>
      </trkpt>
      <trkpt lat="47.29116" lon="-1.60733">
        <ele>61.328754</ele>
        <time>2020-07-14T10:45:11Z</time>
      </trkpt>
      <trkpt lat="47.29125" lon="-1.60721">
        <ele>61.062096</ele>
        <time>2020-07-14T10:45:18Z</time>
      </trkpt>
      <trkpt lat="47.29128" lon="-1.60712">
        <ele>60.990505</ele>
        <time>2020-07-14T10:45:23Z</time>
      </trkpt>
      <trkpt lat="47.29144" lon="-1.60688">
        <ele>60.116253</ele>
        <time>2020-07-14T10:45:26Z</time>
      </trkpt>
      <trkpt lat="47.29183" lon="-1.606">
        <ele>58.150688</ele>
        <time>2020-07-14T10:45:38Z</time>
      </trkpt>
      <trkpt lat="47.29192" lon="-1.60574">
        <ele>57.6325</ele>
        <time>2020-07-14T10:45:41Z</time>
      </trkpt>
      <trkpt lat="47.29229" lon="-1.60486">
        <ele>55.5</ele>
        <time>2020-07-14T10:45:51Z</time>
      </trkpt>
      <trkpt lat="47.29247" lon="-1.60472">
        <ele>54.870625</ele>
        <time>2020-07-14T10:45:54Z</time>
      </trkpt>
      <trkpt lat="47.29267" lon="-1.60464">
        <ele>54.294376</ele>
        <time>2020-07-14T10:45:57Z</time>
      </trkpt>
      <trkpt lat="47.29291" lon="-1.60447">
        <ele>54.839401</ele>
        <time>2020-07-14T10:46:01Z</time>
      </trkpt>
      <trkpt lat="47.29393" lon="-1.60307">
        <ele>56.861874</ele>
        <time>2020-07-14T10:46:27Z</time>
      </trkpt>
      <trkpt lat="47.29419" lon="-1.60263">
        <ele>57.40554</ele>
        <time>2020-07-14T10:46:35Z</time>
      </trkpt>
      <trkpt lat="47.29419" lon="-1.60255">
        <ele>57.345676</ele>
        <time>2020-07-14T10:46:37Z</time>
      </trkpt>
      <trkpt lat="47.29443" lon="-1.60219">
        <ele>58.461689</ele>
        <time>2020-07-14T10:46:46Z</time>
      </trkpt>
      <trkpt lat="47.29446" lon="-1.60202">
        <ele>58.410618</ele>
        <time>2020-07-14T10:46:48Z</time>
      </trkpt>
      <trkpt lat="47.29445" lon="-1.60124">
        <ele>57.599998</ele>
        <time>2020-07-14T10:46:59Z</time>
      </trkpt>
      <trkpt lat="47.29439" lon="-1.60001">
        <ele>56.392502</ele>
        <time>2020-07-14T10:47:15Z</time>
      </trkpt>
      <trkpt lat="47.29434" lon="-1.59958">
        <ele>55.601875</ele>
        <time>2020-07-14T10:47:20Z</time>
      </trkpt>
      <trkpt lat="47.29414" lon="-1.59589">
        <ele>57.184376</ele>
        <time>2020-07-14T10:48:05Z</time>
      </trkpt>
      <trkpt lat="47.29415" lon="-1.59584">
        <ele>57.259377</ele>
        <time>2020-07-14T10:48:06Z</time>
      </trkpt>
      <trkpt lat="47.294" lon="-1.59415">
        <ele>57.211876</ele>
        <time>2020-07-14T10:48:29Z</time>
      </trkpt>
      <trkpt lat="47.29399" lon="-1.59326">
        <ele>54.450062</ele>
        <time>2020-07-14T10:48:39Z</time>
      </trkpt>
      <trkpt lat="47.29386" lon="-1.59217">
        <ele>47.514999</ele>
        <time>2020-07-14T10:48:49Z</time>
      </trkpt>
      <trkpt lat="47.29373" lon="-1.59178">
        <ele>45.266876</ele>
        <time>2020-07-14T10:48:54Z</time>
      </trkpt>
      <trkpt lat="47.29372" lon="-1.5917">
        <ele>44.896248</ele>
        <time>2020-07-14T10:48:55Z</time>
      </trkpt>
      <trkpt lat="47.2938" lon="-1.59143">
        <ele>43.768124</ele>
        <time>2020-07-14T10:48:58Z</time>
      </trkpt>
      <trkpt lat="47.29401" lon="-1.59113">
        <ele>42.427502</ele>
        <time>2020-07-14T10:49:02Z</time>
      </trkpt>
      <trkpt lat="47.29412" lon="-1.59076">
        <ele>40.49247</ele>
        <time>2020-07-14T10:49:06Z</time>
      </trkpt>
      <trkpt lat="47.29436" lon="-1.59048">
        <ele>40.849377</ele>
        <time>2020-07-14T10:49:10Z</time>
      </trkpt>
      <trkpt lat="47.29464" lon="-1.59009">
        <ele>41.537277</ele>
        <time>2020-07-14T10:49:16Z</time>
      </trkpt>
      <trkpt lat="47.29471" lon="-1.58977">
        <ele>40.840599</ele>
        <time>2020-07-14T10:49:20Z</time>
      </trkpt>
      <trkpt lat="47.29469" lon="-1.5894">
        <ele>39.396252</ele>
        <time>2020-07-14T10:49:24Z</time>
      </trkpt>
      <trkpt lat="47.29456" lon="-1.58903">
        <ele>37.608749</ele>
        <time>2020-07-14T10:49:28Z</time>
      </trkpt>
      <trkpt lat="47.29449" lon="-1.58825">
        <ele>34.63625</ele>
        <time>2020-07-14T10:49:35Z</time>
      </trkpt>
      <trkpt lat="47.29464" lon="-1.58765">
        <ele>34.285625</ele>
        <time>2020-07-14T10:49:41Z</time>
      </trkpt>
      <trkpt lat="47.29456" lon="-1.58719">
        <ele>32.69875</ele>
        <time>2020-07-14T10:49:46Z</time>
      </trkpt>
      <trkpt lat="47.29456" lon="-1.58644">
        <ele>31.459999</ele>
        <time>2020-07-14T10:49:55Z</time>
      </trkpt>
      <trkpt lat="47.29444" lon="-1.58495">
        <ele>31.049999</ele>
        <time>2020-07-14T10:50:13Z</time>
      </trkpt>
      <trkpt lat="47.29434" lon="-1.58436">
        <ele>31.410593</ele>
        <time>2020-07-14T10:50:24Z</time>
      </trkpt>
      <trkpt lat="47.29444" lon="-1.58409">
        <ele>32.355194</ele>
        <time>2020-07-14T10:50:31Z</time>
      </trkpt>
      <trkpt lat="47.29454" lon="-1.58396">
        <ele>32.880619</ele>
        <time>2020-07-14T10:50:34Z</time>
      </trkpt>
      <trkpt lat="47.2946" lon="-1.58378">
        <ele>33.329327</ele>
        <time>2020-07-14T10:50:36Z</time>
      </trkpt>
      <trkpt lat="47.2946" lon="-1.58366">
        <ele>33.600376</ele>
        <time>2020-07-14T10:50:39Z</time>
      </trkpt>
      <trkpt lat="47.29439" lon="-1.58285">
        <ele>35.7145</ele>
        <time>2020-07-14T10:50:51Z</time>
      </trkpt>
      <trkpt lat="47.29436" lon="-1.58281">
        <ele>35.904358</ele>
        <time>2020-07-14T10:50:52Z</time>
      </trkpt>
      <trkpt lat="47.29421" lon="-1.58219">
        <ele>36.881248</ele>
        <time>2020-07-14T10:51:02Z</time>
      </trkpt>
      <trkpt lat="47.29422" lon="-1.58206">
        <ele>37</ele>
        <time>2020-07-14T10:51:04Z</time>
      </trkpt>
      <trkpt lat="47.29412" lon="-1.58174">
        <ele>37</ele>
        <time>2020-07-14T10:51:10Z</time>
      </trkpt>
      <trkpt lat="47.29427" lon="-1.58161">
        <ele>37</ele>
        <time>2020-07-14T10:51:11Z</time>
      </trkpt>
      <trkpt lat="47.29428" lon="-1.58141">
        <ele>36.931252</ele>
        <time>2020-07-14T10:51:14Z</time>
      </trkpt>
      <trkpt lat="47.29425" lon="-1.58124">
        <ele>36.677502</ele>
        <time>2020-07-14T10:51:18Z</time>
      </trkpt>
      <trkpt lat="47.29385" lon="-1.58039">
        <ele>35.439377</ele>
        <time>2020-07-14T10:51:32Z</time>
      </trkpt>
      <trkpt lat="47.29376" lon="-1.58037">
        <ele>35.412498</ele>
        <time>2020-07-14T10:51:34Z</time>
      </trkpt>
      <trkpt lat="47.29347" lon="-1.58041">
        <ele>35.365002</ele>
        <time>2020-07-14T10:51:40Z</time>
      </trkpt>
      <trkpt lat="47.2934" lon="-1.5803">
        <ele>35.032501</ele>
        <time>2020-07-14T10:51:42Z</time>
      </trkpt>
      <trkpt lat="47.29328" lon="-1.57998">
        <ele>33.972469</ele>
        <time>2020-07-14T10:51:46Z</time>
      </trkpt>
      <trkpt lat="47.29316" lon="-1.57976">
        <ele>32.439594</ele>
        <time>2020-07-14T10:51:49Z</time>
      </trkpt>
      <trkpt lat="47.29311" lon="-1.57959">
        <ele>31.192179</ele>
        <time>2020-07-14T10:51:51Z</time>
      </trkpt>
      <trkpt lat="47.29286" lon="-1.57905">
        <ele>25.989857</ele>
        <time>2020-07-14T10:51:55Z</time>
      </trkpt>
      <trkpt lat="47.29256" lon="-1.57859">
        <ele>20.7125</ele>
        <time>2020-07-14T10:52:02Z</time>
      </trkpt>
      <trkpt lat="47.29233" lon="-1.578">
        <ele>14.830638</ele>
        <time>2020-07-14T10:52:09Z</time>
      </trkpt>
      <trkpt lat="47.29226" lon="-1.57774">
        <ele>13.310356</ele>
        <time>2020-07-14T10:52:11Z</time>
      </trkpt>
      <trkpt lat="47.29228" lon="-1.57748">
        <ele>12.444062</ele>
        <time>2020-07-14T10:52:13Z</time>
      </trkpt>
      <trkpt lat="47.29225" lon="-1.57731">
        <ele>11.933063</ele>
        <time>2020-07-14T10:52:15Z</time>
      </trkpt>
      <trkpt lat="47.2922" lon="-1.57723">
        <ele>11.840625</ele>
        <time>2020-07-14T10:52:17Z</time>
      </trkpt>
      <trkpt lat="47.29221" lon="-1.57697">
        <ele>11.431125</ele>
        <time>2020-07-14T10:52:23Z</time>
      </trkpt>
      <trkpt lat="47.29219" lon="-1.57685">
        <ele>11.478</ele>
        <time>2020-07-14T10:52:25Z</time>
      </trkpt>
      <trkpt lat="47.29238" lon="-1.57596">
        <ele>12.850813</ele>
        <time>2020-07-14T10:52:34Z</time>
      </trkpt>
      <trkpt lat="47.2926" lon="-1.57508">
        <ele>13.32625</ele>
        <time>2020-07-14T10:52:46Z</time>
      </trkpt>
      <trkpt lat="47.29275" lon="-1.57369">
        <ele>13.694062</ele>
        <time>2020-07-14T10:53:04Z</time>
      </trkpt>
      <trkpt lat="47.29288" lon="-1.57291">
        <ele>12.326125</ele>
        <time>2020-07-14T10:53:13Z</time>
      </trkpt>
      <trkpt lat="47.29309" lon="-1.57223">
        <ele>12.158362</ele>
        <time>2020-07-14T10:53:21Z</time>
      </trkpt>
      <trkpt lat="47.29324" lon="-1.57186">
        <ele>12.188481</ele>
        <time>2020-07-14T10:53:26Z</time>
      </trkpt>
      <trkpt lat="47.29333" lon="-1.57146">
        <ele>12.740156</ele>
        <time>2020-07-14T10:53:31Z</time>
      </trkpt>
      <trkpt lat="47.29336" lon="-1.57114">
        <ele>13</ele>
        <time>2020-07-14T10:53:35Z</time>
      </trkpt>
      <trkpt lat="47.29325" lon="-1.57056">
        <ele>14.2995</ele>
        <time>2020-07-14T10:53:44Z</time>
      </trkpt>
      <trkpt lat="47.2932" lon="-1.57041">
        <ele>14.540585</ele>
        <time>2020-07-14T10:53:47Z</time>
      </trkpt>
      <trkpt lat="47.29296" lon="-1.56996">
        <ele>16.539438</ele>
        <time>2020-07-14T10:53:58Z</time>
      </trkpt>
      <trkpt lat="47.2929" lon="-1.56922">
        <ele>14.5708</ele>
        <time>2020-07-14T10:54:07Z</time>
      </trkpt>
      <trkpt lat="47.29283" lon="-1.56883">
        <ele>14.844825</ele>
        <time>2020-07-14T10:54:11Z</time>
      </trkpt>
      <trkpt lat="47.29279" lon="-1.56839">
        <ele>13.298344</ele>
        <time>2020-07-14T10:54:15Z</time>
      </trkpt>
      <trkpt lat="47.29264" lon="-1.56748">
        <ele>8.38735</ele>
        <time>2020-07-14T10:54:23Z</time>
      </trkpt>
      <trkpt lat="47.29254" lon="-1.56721">
        <ele>8.579009</ele>
        <time>2020-07-14T10:54:26Z</time>
      </trkpt>
      <trkpt lat="47.29241" lon="-1.56662">
        <ele>10.642938</ele>
        <time>2020-07-14T10:54:34Z</time>
      </trkpt>
      <trkpt lat="47.29226" lon="-1.56634">
        <ele>13.646875</ele>
        <time>2020-07-14T10:54:41Z</time>
      </trkpt>
      <trkpt lat="47.29198" lon="-1.5663">
        <ele>14.823538</ele>
        <time>2020-07-14T10:54:49Z</time>
      </trkpt>
      <trkpt lat="47.29183" lon="-1.56634">
        <ele>14.5055</ele>
        <time>2020-07-14T10:54:53Z</time>
      </trkpt>
      <trkpt lat="47.2915" lon="-1.56632">
        <ele>14.59805</ele>
        <time>2020-07-14T10:55:04Z</time>
      </trkpt>
      <trkpt lat="47.29141" lon="-1.56626">
        <ele>15.17105</ele>
        <time>2020-07-14T10:55:07Z</time>
      </trkpt>
      <trkpt lat="47.29126" lon="-1.56597">
        <ele>17.451288</ele>
        <time>2020-07-14T10:55:13Z</time>
      </trkpt>
      <trkpt lat="47.29105" lon="-1.56572">
        <ele>17.443069</ele>
        <time>2020-07-14T10:55:21Z</time>
      </trkpt>
      <trkpt lat="47.29107" lon="-1.56561">
        <ele>18.982901</ele>
        <time>2020-07-14T10:55:24Z</time>
      </trkpt>
      <trkpt lat="47.29102" lon="-1.56555">
        <ele>19.112864</ele>
        <time>2020-07-14T10:55:34Z</time>
      </trkpt>
      <trkpt lat="47.29102" lon="-1.56551">
        <ele>19.823832</ele>
        <time>2020-07-14T10:55:39Z</time>
      </trkpt>
      <trkpt lat="47.2908" lon="-1.56496">
        <ele>22.982325</ele>
        <time>2020-07-14T10:56:03Z</time>
      </trkpt>
      <trkpt lat="47.29052" lon="-1.56454">
        <ele>26.272993</ele>
        <time>2020-07-14T10:56:10Z</time>
      </trkpt>
      <trkpt lat="47.29037" lon="-1.56441">
        <ele>27.790001</ele>
        <time>2020-07-14T10:56:12Z</time>
      </trkpt>
      <trkpt lat="47.29013" lon="-1.56445">
        <ele>27.58</ele>
        <time>2020-07-14T10:56:18Z</time>
      </trkpt>
      <trkpt lat="47.29014" lon="-1.56452">
        <ele>26.805</ele>
        <time>2020-07-14T10:56:23Z</time>
      </trkpt>
      <trkpt lat="47.29008" lon="-1.56449">
        <ele>27.235001</ele>
        <time>2020-07-14T10:56:27Z</time>
      </trkpt>
      <trkpt lat="47.28939" lon="-1.56459">
        <ele>27.623531</ele>
        <time>2020-07-14T10:56:54Z</time>
      </trkpt>
      <trkpt lat="47.28933" lon="-1.56463">
        <ele>27.367144</ele>
        <time>2020-07-14T10:56:55Z</time>
      </trkpt>
      <trkpt lat="47.28917" lon="-1.56488">
        <ele>24.705969</ele>
        <time>2020-07-14T10:57:00Z</time>
      </trkpt>
      <trkpt lat="47.28889" lon="-1.56519">
        <ele>24.533188</ele>
        <time>2020-07-14T10:57:05Z</time>
      </trkpt>
      <trkpt lat="47.28868" lon="-1.56593">
        <ele>20.48135</ele>
        <time>2020-07-14T10:57:13Z</time>
      </trkpt>
      <trkpt lat="47.28853" lon="-1.5662">
        <ele>19.374985</ele>
        <time>2020-07-14T10:57:16Z</time>
      </trkpt>
      <trkpt lat="47.28848" lon="-1.56642">
        <ele>17.596762</ele>
        <time>2020-07-14T10:57:18Z</time>
      </trkpt>
      <trkpt lat="47.28839" lon="-1.56733">
        <ele>11.094775</ele>
        <time>2020-07-14T10:57:27Z</time>
      </trkpt>
      <trkpt lat="47.28836" lon="-1.56741">
        <ele>10.70765</ele>
        <time>2020-07-14T10:57:30Z</time>
      </trkpt>
      <trkpt lat="47.28838" lon="-1.56753">
        <ele>10.028413</ele>
        <time>2020-07-14T10:57:53Z</time>
      </trkpt>
      <trkpt lat="47.28834" lon="-1.56757">
        <ele>9.7925</ele>
        <time>2020-07-14T10:57:55Z</time>
      </trkpt>
      <trkpt lat="47.28816" lon="-1.56753">
        <ele>10.120775</ele>
        <time>2020-07-14T10:57:59Z</time>
      </trkpt>
      <trkpt lat="47.28795" lon="-1.56754">
        <ele>9.827853</ele>
        <time>2020-07-14T10:58:02Z</time>
      </trkpt>
      <trkpt lat="47.28765" lon="-1.56749">
        <ele>9.843238</ele>
        <time>2020-07-14T10:58:08Z</time>
      </trkpt>
      <trkpt lat="47.28746" lon="-1.5674">
        <ele>9.966562</ele>
        <time>2020-07-14T10:58:12Z</time>
      </trkpt>
      <trkpt lat="47.28736" lon="-1.56731">
        <ele>10.211124</ele>
        <time>2020-07-14T10:58:14Z</time>
      </trkpt>
      <trkpt lat="47.28708" lon="-1.56716">
        <ele>10.138329</ele>
        <time>2020-07-14T10:58:21Z</time>
      </trkpt>
      <trkpt lat="47.28694" lon="-1.56696">
        <ele>10.512943</ele>
        <time>2020-07-14T10:58:25Z</time>
      </trkpt>
      <trkpt lat="47.28681" lon="-1.56684">
        <ele>10.3401</ele>
        <time>2020-07-14T10:58:28Z</time>
      </trkpt>
      <trkpt lat="47.2867" lon="-1.56678">
        <ele>10.400056</ele>
        <time>2020-07-14T10:58:31Z</time>
      </trkpt>
      <trkpt lat="47.28642" lon="-1.56678">
        <ele>10.564919</ele>
        <time>2020-07-14T10:58:39Z</time>
      </trkpt>
      <trkpt lat="47.28615" lon="-1.56667">
        <ele>10.493669</ele>
        <time>2020-07-14T10:58:45Z</time>
      </trkpt>
      <trkpt lat="47.28584" lon="-1.56649">
        <ele>10</ele>
        <time>2020-07-14T10:58:53Z</time>
      </trkpt>
      <trkpt lat="47.28577" lon="-1.5663">
        <ele>10</ele>
        <time>2020-07-14T10:59:03Z</time>
      </trkpt>
      <trkpt lat="47.28564" lon="-1.56612">
        <ele>10.1218</ele>
        <time>2020-07-14T10:59:09Z</time>
      </trkpt>
      <trkpt lat="47.2856" lon="-1.56602">
        <ele>10.072625</ele>
        <time>2020-07-14T10:59:12Z</time>
      </trkpt>
      <trkpt lat="47.28561" lon="-1.56586">
        <ele>10.14535</ele>
        <time>2020-07-14T10:59:16Z</time>
      </trkpt>
      <trkpt lat="47.28565" lon="-1.56574">
        <ele>10.4424</ele>
        <time>2020-07-14T10:59:20Z</time>
      </trkpt>
      <trkpt lat="47.28565" lon="-1.56564">
        <ele>10.48685</ele>
        <time>2020-07-14T10:59:25Z</time>
      </trkpt>
      <trkpt lat="47.2856" lon="-1.56556">
        <ele>10.495</ele>
        <time>2020-07-14T10:59:31Z</time>
      </trkpt>
      <trkpt lat="47.28563" lon="-1.56545">
        <ele>12.09</ele>
        <time>2020-07-14T10:59:37Z</time>
      </trkpt>
      <trkpt lat="47.28555" lon="-1.56506">
        <ele>15.9</ele>
        <time>2020-07-14T11:00:01Z</time>
      </trkpt>
      <trkpt lat="47.28548" lon="-1.56495">
        <ele>16.343124</ele>
        <time>2020-07-14T11:00:10Z</time>
      </trkpt>
      <trkpt lat="47.28526" lon="-1.56473">
        <ele>16.307812</ele>
        <time>2020-07-14T11:00:33Z</time>
      </trkpt>
      <trkpt lat="47.28517" lon="-1.56469">
        <ele>15.912</ele>
        <time>2020-07-14T11:00:38Z</time>
      </trkpt>
      <trkpt lat="47.28493" lon="-1.56465">
        <ele>14.9175</ele>
        <time>2020-07-14T11:00:48Z</time>
      </trkpt>
      <trkpt lat="47.2848" lon="-1.56471">
        <ele>13.5175</ele>
        <time>2020-07-14T11:00:59Z</time>
      </trkpt>
      <trkpt lat="47.28474" lon="-1.56479">
        <ele>11.72375</ele>
        <time>2020-07-14T11:01:05Z</time>
      </trkpt>
      <trkpt lat="47.28461" lon="-1.56473">
        <ele>12.9225</ele>
        <time>2020-07-14T11:01:16Z</time>
      </trkpt>
      <trkpt lat="47.28449" lon="-1.56483">
        <ele>10.718894</ele>
        <time>2020-07-14T11:01:23Z</time>
      </trkpt>
      <trkpt lat="47.28438" lon="-1.56488">
        <ele>10.439375</ele>
        <time>2020-07-14T11:01:27Z</time>
      </trkpt>
      <trkpt lat="47.28431" lon="-1.56487">
        <ele>10.61625</ele>
        <time>2020-07-14T11:01:31Z</time>
      </trkpt>
      <trkpt lat="47.28423" lon="-1.56493">
        <ele>10.6775</ele>
        <time>2020-07-14T11:01:42Z</time>
      </trkpt>
      <trkpt lat="47.28414" lon="-1.56492">
        <ele>10.864375</ele>
        <time>2020-07-14T11:01:53Z</time>
      </trkpt>
      <trkpt lat="47.28408" lon="-1.56482">
        <ele>11.06245</ele>
        <time>2020-07-14T11:02:08Z</time>
      </trkpt>
      <trkpt lat="47.28387" lon="-1.5648">
        <ele>11.200825</ele>
        <time>2020-07-14T11:02:20Z</time>
      </trkpt>
      <trkpt lat="47.28374" lon="-1.56485">
        <ele>10.91875</ele>
        <time>2020-07-14T11:02:25Z</time>
      </trkpt>
      <trkpt lat="47.28352" lon="-1.56473">
        <ele>11.1725</ele>
        <time>2020-07-14T11:02:35Z</time>
      </trkpt>
      <trkpt lat="47.283" lon="-1.56481">
        <ele>10.45875</ele>
        <time>2020-07-14T11:03:00Z</time>
      </trkpt>
      <trkpt lat="47.28276" lon="-1.56467">
        <ele>12.129172</ele>
        <time>2020-07-14T11:03:18Z</time>
      </trkpt>
      <trkpt lat="47.28267" lon="-1.56467">
        <ele>13.064412</ele>
        <time>2020-07-14T11:03:36Z</time>
      </trkpt>
      <trkpt lat="47.28256" lon="-1.56483">
        <ele>13.077937</ele>
        <time>2020-07-14T11:03:44Z</time>
      </trkpt>
      <trkpt lat="47.28223" lon="-1.56496">
        <ele>15.064188</ele>
        <time>2020-07-14T11:04:01Z</time>
      </trkpt>
      <trkpt lat="47.28225" lon="-1.56496">
        <ele>14.914375</ele>
        <time>2020-07-14T11:04:04Z</time>
      </trkpt>
      <trkpt lat="47.28222" lon="-1.56503">
        <ele>14.392</ele>
        <time>2020-07-14T11:04:12Z</time>
      </trkpt>
      <trkpt lat="47.2823" lon="-1.56506">
        <ele>13.220938</ele>
        <time>2020-07-14T11:04:17Z</time>
      </trkpt>
      <trkpt lat="47.28202" lon="-1.56529">
        <ele>12.84625</ele>
        <time>2020-07-14T11:04:32Z</time>
      </trkpt>
      <trkpt lat="47.28194" lon="-1.56539">
        <ele>12.409676</ele>
        <time>2020-07-14T11:04:38Z</time>
      </trkpt>
      <trkpt lat="47.28193" lon="-1.56549">
        <ele>12.052347</ele>
        <time>2020-07-14T11:04:41Z</time>
      </trkpt>
      <trkpt lat="47.28188" lon="-1.56559">
        <ele>11.783537</ele>
        <time>2020-07-14T11:04:45Z</time>
      </trkpt>
      <trkpt lat="47.28164" lon="-1.56575">
        <ele>13.0592</ele>
        <time>2020-07-14T11:04:55Z</time>
      </trkpt>
      <trkpt lat="47.28152" lon="-1.56579">
        <ele>13.447824</ele>
        <time>2020-07-14T11:04:58Z</time>
      </trkpt>
      <trkpt lat="47.28142" lon="-1.56586">
        <ele>12.6275</ele>
        <time>2020-07-14T11:05:03Z</time>
      </trkpt>
      <trkpt lat="47.2814" lon="-1.56581">
        <ele>13.667966</ele>
        <time>2020-07-14T11:05:07Z</time>
      </trkpt>
      <trkpt lat="47.28133" lon="-1.56581">
        <ele>14.128809</ele>
        <time>2020-07-14T11:05:09Z</time>
      </trkpt>
      <trkpt lat="47.28113" lon="-1.56589">
        <ele>13.622416</ele>
        <time>2020-07-14T11:05:10Z</time>
      </trkpt>
      <trkpt lat="47.28092" lon="-1.56606">
        <ele>13.336725</ele>
        <time>2020-07-14T11:05:17Z</time>
      </trkpt>
      <trkpt lat="47.28052" lon="-1.56611">
        <ele>12.643532</ele>
        <time>2020-07-14T11:05:23Z</time>
      </trkpt>
      <trkpt lat="47.28049" lon="-1.56615">
        <ele>12.385018</ele>
        <time>2020-07-14T11:05:24Z</time>
      </trkpt>
      <trkpt lat="47.28005" lon="-1.5661">
        <ele>11.25536</ele>
        <time>2020-07-14T11:05:32Z</time>
      </trkpt>
      <trkpt lat="47.27987" lon="-1.566">
        <ele>11.185488</ele>
        <time>2020-07-14T11:05:36Z</time>
      </trkpt>
      <trkpt lat="47.27921" lon="-1.56596">
        <ele>10.081537</ele>
        <time>2020-07-14T11:05:52Z</time>
      </trkpt>
      <trkpt lat="47.27898" lon="-1.56556">
        <ele>10.87419</ele>
        <time>2020-07-14T11:06:02Z</time>
      </trkpt>
      <trkpt lat="47.27868" lon="-1.56528">
        <ele>10.614691</ele>
        <time>2020-07-14T11:06:08Z</time>
      </trkpt>
      <trkpt lat="47.27864" lon="-1.56531">
        <ele>10.527184</ele>
        <time>2020-07-14T11:06:10Z</time>
      </trkpt>
      <trkpt lat="47.27858" lon="-1.56512">
        <ele>10.614656</ele>
        <time>2020-07-14T11:06:14Z</time>
      </trkpt>
      <trkpt lat="47.27858" lon="-1.56482">
        <ele>11.338569</ele>
        <time>2020-07-14T11:06:21Z</time>
      </trkpt>
      <trkpt lat="47.2786" lon="-1.5646">
        <ele>12.056</ele>
        <time>2020-07-14T11:06:26Z</time>
      </trkpt>
      <trkpt lat="47.27857" lon="-1.5644">
        <ele>12.500638</ele>
        <time>2020-07-14T11:06:33Z</time>
      </trkpt>
      <trkpt lat="47.27838" lon="-1.56409">
        <ele>13.501019</ele>
        <time>2020-07-14T11:06:48Z</time>
      </trkpt>
      <trkpt lat="47.27848" lon="-1.56366">
        <ele>19.292038</ele>
        <time>2020-07-14T11:06:56Z</time>
      </trkpt>
      <trkpt lat="47.27804" lon="-1.56289">
        <ele>26.162506</ele>
        <time>2020-07-14T11:07:30Z</time>
      </trkpt>
      <trkpt lat="47.2779" lon="-1.56246">
        <ele>28.63625</ele>
        <time>2020-07-14T11:07:50Z</time>
      </trkpt>
      <trkpt lat="47.27772" lon="-1.56218">
        <ele>26.556562</ele>
        <time>2020-07-14T11:07:55Z</time>
      </trkpt>
      <trkpt lat="47.27753" lon="-1.56168">
        <ele>26.371456</ele>
        <time>2020-07-14T11:08:02Z</time>
      </trkpt>
      <trkpt lat="47.27745" lon="-1.56156">
        <ele>26.219912</ele>
        <time>2020-07-14T11:08:04Z</time>
      </trkpt>
      <trkpt lat="47.27702" lon="-1.56139">
        <ele>23.264151</ele>
        <time>2020-07-14T11:08:13Z</time>
      </trkpt>
      <trkpt lat="47.27664" lon="-1.56118">
        <ele>21.152678</ele>
        <time>2020-07-14T11:08:23Z</time>
      </trkpt>
      <trkpt lat="47.27637" lon="-1.5608">
        <ele>22.565001</ele>
        <time>2020-07-14T11:08:32Z</time>
      </trkpt>
      <trkpt lat="47.27619" lon="-1.56033">
        <ele>23.624201</ele>
        <time>2020-07-14T11:08:41Z</time>
      </trkpt>
      <trkpt lat="47.27608" lon="-1.56017">
        <ele>22.84465</ele>
        <time>2020-07-14T11:08:47Z</time>
      </trkpt>
      <trkpt lat="47.27589" lon="-1.55981">
        <ele>23.318287</ele>
        <time>2020-07-14T11:08:49Z</time>
      </trkpt>
      <trkpt lat="47.27575" lon="-1.55972">
        <ele>23.825863</ele>
        <time>2020-07-14T11:08:54Z</time>
      </trkpt>
      <trkpt lat="47.27555" lon="-1.55897">
        <ele>29.116581</ele>
        <time>2020-07-14T11:09:08Z</time>
      </trkpt>
      <trkpt lat="47.27533" lon="-1.5586">
        <ele>31.338751</ele>
        <time>2020-07-14T11:09:17Z</time>
      </trkpt>
      <trkpt lat="47.27471" lon="-1.55721">
        <ele>34.925625</ele>
        <time>2020-07-14T11:09:53Z</time>
      </trkpt>
      <trkpt lat="47.27445" lon="-1.5565">
        <ele>35.430458</ele>
        <time>2020-07-14T11:10:11Z</time>
      </trkpt>
      <trkpt lat="47.27438" lon="-1.55641">
        <ele>35.520844</ele>
        <time>2020-07-14T11:10:13Z</time>
      </trkpt>
      <trkpt lat="47.27421" lon="-1.55628">
        <ele>35.692039</ele>
        <time>2020-07-14T11:10:19Z</time>
      </trkpt>
      <trkpt lat="47.27408" lon="-1.55611">
        <ele>35.959999</ele>
        <time>2020-07-14T11:10:23Z</time>
      </trkpt>
      <trkpt lat="47.27403" lon="-1.55597">
        <ele>35.700001</ele>
        <time>2020-07-14T11:10:25Z</time>
      </trkpt>
      <trkpt lat="47.274" lon="-1.55564">
        <ele>35.529999</ele>
        <time>2020-07-14T11:10:30Z</time>
      </trkpt>
      <trkpt lat="47.27386" lon="-1.55556">
        <ele>34.869999</ele>
        <time>2020-07-14T11:10:33Z</time>
      </trkpt>
      <trkpt lat="47.27372" lon="-1.55565">
        <ele>34.27</ele>
        <time>2020-07-14T11:10:37Z</time>
      </trkpt>
      <trkpt lat="47.27369" lon="-1.55561">
        <ele>34.139999</ele>
        <time>2020-07-14T11:10:38Z</time>
      </trkpt>
      <trkpt lat="47.27363" lon="-1.55535">
        <ele>33.849998</ele>
        <time>2020-07-14T11:10:41Z</time>
      </trkpt>
      <trkpt lat="47.27358" lon="-1.55522">
        <ele>33.599998</ele>
        <time>2020-07-14T11:10:43Z</time>
      </trkpt>
      <trkpt lat="47.27357" lon="-1.55511">
        <ele>33.52</ele>
        <time>2020-07-14T11:10:46Z</time>
      </trkpt>
      <trkpt lat="47.27373" lon="-1.55495">
        <ele>34.209999</ele>
        <time>2020-07-14T11:10:50Z</time>
      </trkpt>
      <trkpt lat="47.27402" lon="-1.5545">
        <ele>35.586296</ele>
        <time>2020-07-14T11:11:01Z</time>
      </trkpt>
      <trkpt lat="47.27408" lon="-1.55436">
        <ele>35.78017</ele>
        <time>2020-07-14T11:11:04Z</time>
      </trkpt>
      <trkpt lat="47.27415" lon="-1.55365">
        <ele>36.741875</ele>
        <time>2020-07-14T11:11:16Z</time>
      </trkpt>
      <trkpt lat="47.27428" lon="-1.55327">
        <ele>37.514057</ele>
        <time>2020-07-14T11:11:22Z</time>
      </trkpt>
      <trkpt lat="47.27434" lon="-1.55323">
        <ele>37.632545</ele>
        <time>2020-07-14T11:11:24Z</time>
      </trkpt>
      <trkpt lat="47.27442" lon="-1.5528">
        <ele>38.048763</ele>
        <time>2020-07-14T11:11:29Z</time>
      </trkpt>
      <trkpt lat="47.27444" lon="-1.55203">
        <ele>38.336544</ele>
        <time>2020-07-14T11:11:40Z</time>
      </trkpt>
      <trkpt lat="47.27453" lon="-1.55171">
        <ele>38.150314</ele>
        <time>2020-07-14T11:11:50Z</time>
      </trkpt>
      <trkpt lat="47.27458" lon="-1.5514">
        <ele>37.931767</ele>
        <time>2020-07-14T11:11:55Z</time>
      </trkpt>
      <trkpt lat="47.27478" lon="-1.55098">
        <ele>38.012836</ele>
        <time>2020-07-14T11:12:01Z</time>
      </trkpt>
      <trkpt lat="47.27516" lon="-1.54999">
        <ele>36.958378</ele>
        <time>2020-07-14T11:12:16Z</time>
      </trkpt>
      <trkpt lat="47.2752" lon="-1.54995">
        <ele>36.994957</ele>
        <time>2020-07-14T11:12:17Z</time>
      </trkpt>
      <trkpt lat="47.27558" lon="-1.55031">
        <ele>37.004921</ele>
        <time>2020-07-14T11:12:29Z</time>
      </trkpt>
      <trkpt lat="47.27573" lon="-1.5502">
        <ele>37.365002</ele>
        <time>2020-07-14T11:12:34Z</time>
      </trkpt>
      <trkpt lat="47.27589" lon="-1.55014">
        <ele>37.826248</ele>
        <time>2020-07-14T11:12:37Z</time>
      </trkpt>
      <trkpt lat="47.27653" lon="-1.54942">
        <ele>40.364376</ele>
        <time>2020-07-14T11:12:58Z</time>
      </trkpt>
      <trkpt lat="47.27657" lon="-1.54934">
        <ele>40.575626</ele>
        <time>2020-07-14T11:12:59Z</time>
      </trkpt>
      <trkpt lat="47.27637" lon="-1.54833">
        <ele>41.032688</ele>
        <time>2020-07-14T11:13:18Z</time>
      </trkpt>
      <trkpt lat="47.27639" lon="-1.54822">
        <ele>41.273106</ele>
        <time>2020-07-14T11:13:20Z</time>
      </trkpt>
      <trkpt lat="47.27659" lon="-1.5481">
        <ele>41.933102</ele>
        <time>2020-07-14T11:13:28Z</time>
      </trkpt>
      <trkpt lat="47.27656" lon="-1.54783">
        <ele>41.957813</ele>
        <time>2020-07-14T11:13:44Z</time>
      </trkpt>
      <trkpt lat="47.2766" lon="-1.54752">
        <ele>42</ele>
        <time>2020-07-14T11:13:46Z</time>
      </trkpt>
      <trkpt lat="47.27657" lon="-1.5477">
        <ele>42</ele>
        <time>2020-07-14T11:13:48Z</time>
      </trkpt>
      <trkpt lat="47.27662" lon="-1.54719">
        <ele>42</ele>
        <time>2020-07-14T11:13:51Z</time>
      </trkpt>
      <trkpt lat="47.27656" lon="-1.54699">
        <ele>41.683125</ele>
        <time>2020-07-14T11:13:53Z</time>
      </trkpt>
      <trkpt lat="47.27617" lon="-1.54638">
        <ele>41.00375</ele>
        <time>2020-07-14T11:14:03Z</time>
      </trkpt>
      <trkpt lat="47.27601" lon="-1.54595">
        <ele>38.4375</ele>
        <time>2020-07-14T11:14:08Z</time>
      </trkpt>
      <trkpt lat="47.27595" lon="-1.5456">
        <ele>36.389999</ele>
        <time>2020-07-14T11:14:11Z</time>
      </trkpt>
      <trkpt lat="47.27595" lon="-1.54521">
        <ele>34.035</ele>
        <time>2020-07-14T11:14:14Z</time>
      </trkpt>
      <trkpt lat="47.27599" lon="-1.54492">
        <ele>32.56007</ele>
        <time>2020-07-14T11:14:16Z</time>
      </trkpt>
      <trkpt lat="47.27606" lon="-1.54464">
        <ele>31.448626</ele>
        <time>2020-07-14T11:14:18Z</time>
      </trkpt>
      <trkpt lat="47.27617" lon="-1.54439">
        <ele>30.239731</ele>
        <time>2020-07-14T11:14:20Z</time>
      </trkpt>
      <trkpt lat="47.27768" lon="-1.54172">
        <ele>20.874331</ele>
        <time>2020-07-14T11:14:44Z</time>
      </trkpt>
      <trkpt lat="47.27779" lon="-1.54137">
        <ele>20.1675</ele>
        <time>2020-07-14T11:14:47Z</time>
      </trkpt>
      <trkpt lat="47.27786" lon="-1.54101">
        <ele>19.401001</ele>
        <time>2020-07-14T11:14:50Z</time>
      </trkpt>
      <trkpt lat="47.2779" lon="-1.54054">
        <ele>18.427401</ele>
        <time>2020-07-14T11:14:54Z</time>
      </trkpt>
      <trkpt lat="47.27798" lon="-1.54012">
        <ele>17.755688</ele>
        <time>2020-07-14T11:14:59Z</time>
      </trkpt>
      <trkpt lat="47.27813" lon="-1.54015">
        <ele>17.7</ele>
      </trkpt>
      <trkpt lat="47.27814" lon="-1.54016">
        <ele>17.282131</ele>
      </trkpt>
      <trkpt lat="47.27854" lon="-1.54036">
        <ele>17</ele>
      </trkpt>
      <trkpt lat="47.27875" lon="-1.54049">
        <ele>17.139187</ele>
      </trkpt>
      <trkpt lat="47.27899" lon="-1.54038">
        <ele>17.432976</ele>
      </trkpt>
      <trkpt lat="47.27918" lon="-1.54028">
        <ele>17.641016</ele>
      </trkpt>
      <trkpt lat="47.27936" lon="-1.54014">
        <ele>18.110313</ele>
      </trkpt>
      <trkpt lat="47.27952" lon="-1.53997">
        <ele>18.589678</ele>
      </trkpt>
      <trkpt lat="47.27972" lon="-1.53986">
        <ele>18.846775</ele>
      </trkpt>
      <trkpt lat="47.28009" lon="-1.53956">
        <ele>19.348751</ele>
      </trkpt>
      <trkpt lat="47.28041" lon="-1.53916">
        <ele>20.052353</ele>
      </trkpt>
      <trkpt lat="47.28078" lon="-1.53845">
        <ele>22.288832</ele>
      </trkpt>
      <trkpt lat="47.28092" lon="-1.53822">
        <ele>22.805244</ele>
      </trkpt>
      <trkpt lat="47.28126" lon="-1.53786">
        <ele>23.859032</ele>
      </trkpt>
      <trkpt lat="47.28194" lon="-1.53724">
        <ele>24.553125</ele>
      </trkpt>
      <trkpt lat="47.28264" lon="-1.53662">
        <ele>23.535</ele>
      </trkpt>
      <trkpt lat="47.28303" lon="-1.5363">
        <ele>22.649921</ele>
      </trkpt>
      <trkpt lat="47.28317" lon="-1.53613">
        <ele>21.793751</ele>
      </trkpt>
      <trkpt lat="47.28339" lon="-1.53605">
        <ele>21.200001</ele>
      </trkpt>
      <trkpt lat="47.28379" lon="-1.53632">
        <ele>21.857475</ele>
      </trkpt>
      <trkpt lat="47.28417" lon="-1.53666">
        <ele>21.895075</ele>
      </trkpt>
      <trkpt lat="47.28455" lon="-1.53685">
        <ele>21.588751</ele>
      </trkpt>
      <trkpt lat="47.28489" lon="-1.53713">
        <ele>21.53875</ele>
      </trkpt>
      <trkpt lat="47.28507" lon="-1.53724">
        <ele>21.456249</ele>
      </trkpt>
      <trkpt lat="47.28528" lon="-1.53732">
        <ele>21.16</ele>
      </trkpt>
      <trkpt lat="47.28549" lon="-1.53733">
        <ele>20.678749</ele>
      </trkpt>
      <trkpt lat="47.2859" lon="-1.53753">
        <ele>20.280001</ele>
      </trkpt>
      <trkpt lat="47.28683" lon="-1.53819">
        <ele>20.468815</ele>
      </trkpt>
      <trkpt lat="47.28743" lon="-1.53859">
        <ele>20.679375</ele>
      </trkpt>
      <trkpt lat="47.2882" lon="-1.53906">
        <ele>19.564375</ele>
      </trkpt>
      <trkpt lat="47.28836" lon="-1.53923">
        <ele>19.424376</ele>
      </trkpt>
      <trkpt lat="47.28848" lon="-1.53944">
        <ele>19.290001</ele>
      </trkpt>
      <trkpt lat="47.28857" lon="-1.53969">
        <ele>19.084999</ele>
      </trkpt>
      <trkpt lat="47.28879" lon="-1.5406">
        <ele>18.514999</ele>
      </trkpt>
      <trkpt lat="47.28888" lon="-1.54084">
        <ele>17.916437</ele>
      </trkpt>
      <trkpt lat="47.2894" lon="-1.54137">
        <ele>14.2475</ele>
      </trkpt>
      <trkpt lat="47.28974" lon="-1.54185">
        <ele>10.65625</ele>
      </trkpt>
      <trkpt lat="47.2899" lon="-1.54203">
        <ele>9.182166</ele>
      </trkpt>
      <trkpt lat="47.29007" lon="-1.54188">
        <ele>9.415431</ele>
      </trkpt>
      <trkpt lat="47.2902" lon="-1.54168">
        <ele>9.8193</ele>
      </trkpt>
      <trkpt lat="47.29094" lon="-1.54111">
        <ele>8.703938</ele>
      </trkpt>
      <trkpt lat="47.29128" lon="-1.54081">
        <ele>8.130531</ele>
      </trkpt>
      <trkpt lat="47.29148" lon="-1.54074">
        <ele>7.844878</ele>
      </trkpt>
      <trkpt lat="47.29164" lon="-1.54061">
        <ele>7.696153</ele>
      </trkpt>
      <trkpt lat="47.29202" lon="-1.54038">
        <ele>7.17375</ele>
      </trkpt>
      <trkpt lat="47.29255" lon="-1.53991">
        <ele>7.876734</ele>
      </trkpt>
      <trkpt lat="47.29295" lon="-1.53967">
        <ele>7.0647</ele>
      </trkpt>
      <trkpt lat="47.2931" lon="-1.53951">
        <ele>6.3748</ele>
      </trkpt>
      <trkpt lat="47.2932" lon="-1.53927">
        <ele>6.0854</ele>
      </trkpt>
      <trkpt lat="47.29333" lon="-1.53947">
        <ele>5.093275</ele>
      </trkpt>
      <trkpt lat="47.29353" lon="-1.53944">
        <ele>3.84215</ele>
      </trkpt>
      <trkpt lat="47.2937" lon="-1.53954">
        <ele>4.115225</ele>
      </trkpt>
      <trkpt lat="47.29373" lon="-1.53981">
        <ele>4.562325</ele>
      </trkpt>
      <trkpt lat="47.29384" lon="-1.54005">
        <ele>4.999575</ele>
      </trkpt>
      <trkpt lat="47.29399" lon="-1.53982">
        <ele>4.974144</ele>
      </trkpt>
      <trkpt lat="47.29414" lon="-1.53964">
        <ele>6.142281</ele>
      </trkpt>
      <trkpt lat="47.29415" lon="-1.53936">
        <ele>6.2831</ele>
      </trkpt>
      <trkpt lat="47.29418" lon="-1.5391">
        <ele>6.695113</ele>
      </trkpt>
      <trkpt lat="47.29417" lon="-1.53843">
        <ele>7.259375</ele>
      </trkpt>
      <trkpt lat="47.2943" lon="-1.53757">
        <ele>7.033125</ele>
      </trkpt>
      <trkpt lat="47.29433" lon="-1.53725">
        <ele>6.387037</ele>
      </trkpt>
      <trkpt lat="47.29446" lon="-1.537">
        <ele>6.13675</ele>
      </trkpt>
      <trkpt lat="47.29462" lon="-1.53685">
        <ele>5.87875</ele>
      </trkpt>
      <trkpt lat="47.29481" lon="-1.53678">
        <ele>5.909375</ele>
      </trkpt>
      <trkpt lat="47.29519" lon="-1.53674">
        <ele>6.854375</ele>
      </trkpt>
      <trkpt lat="47.29543" lon="-1.53659">
        <ele>7.1225</ele>
      </trkpt>
      <trkpt lat="47.29559" lon="-1.53643">
        <ele>7.183156</ele>
      </trkpt>
      <trkpt lat="47.29574" lon="-1.5362">
        <ele>6.821869</ele>
      </trkpt>
      <trkpt lat="47.29597" lon="-1.53562">
        <ele>5.197869</ele>
      </trkpt>
      <trkpt lat="47.29612" lon="-1.535">
        <ele>3.955</ele>
      </trkpt>
      <trkpt lat="47.29622" lon="-1.53474">
        <ele>3.7575</ele>
      </trkpt>
      <trkpt lat="47.29633" lon="-1.53452">
        <ele>3.765</ele>
      </trkpt>
      <trkpt lat="47.2965" lon="-1.53431">
        <ele>4.069063</ele>
      </trkpt>
      <trkpt lat="47.29683" lon="-1.53403">
        <ele>4.054187</ele>
      </trkpt>
      <trkpt lat="47.29761" lon="-1.5336">
        <ele>4.51975</ele>
      </trkpt>
      <trkpt lat="47.29781" lon="-1.5336">
        <ele>4.639647</ele>
      </trkpt>
      <trkpt lat="47.29795" lon="-1.53381">
        <ele>5.23375</ele>
      </trkpt>
      <trkpt lat="47.2981" lon="-1.53322">
        <ele>3.586475</ele>
      </trkpt>
      <trkpt lat="47.29848" lon="-1.53299">
        <ele>3.452438</ele>
      </trkpt>
      <trkpt lat="47.29867" lon="-1.53288">
        <ele>3.256687</ele>
      </trkpt>
      <trkpt lat="47.29888" lon="-1.53292">
        <ele>3.602684</ele>
      </trkpt>
      <trkpt lat="47.29903" lon="-1.53313">
        <ele>4.29315</ele>
      </trkpt>
      <trkpt lat="47.29922" lon="-1.53311">
        <ele>4.460032</ele>
      </trkpt>
      <trkpt lat="47.2994" lon="-1.53289">
        <ele>4.492469</ele>
      </trkpt>
      <trkpt lat="47.29943" lon="-1.53256">
        <ele>4.074375</ele>
      </trkpt>
      <trkpt lat="47.2995" lon="-1.53228">
        <ele>3.778125</ele>
      </trkpt>
      <trkpt lat="47.29962" lon="-1.53206">
        <ele>3.495041</ele>
      </trkpt>
      <trkpt lat="47.29978" lon="-1.53192">
        <ele>3.250203</ele>
      </trkpt>
      <trkpt lat="47.3" lon="-1.53185">
        <ele>3.160662</ele>
      </trkpt>
      <trkpt lat="47.3002" lon="-1.53181">
        <ele>3.127634</ele>
      </trkpt>
      <trkpt lat="47.30063" lon="-1.53181">
        <ele>3.61</ele>
      </trkpt>
      <trkpt lat="47.30185" lon="-1.53216">
        <ele>4.38375</ele>
      </trkpt>
      <trkpt lat="47.30221" lon="-1.53221">
        <ele>3.983531</ele>
      </trkpt>
      <trkpt lat="47.30242" lon="-1.53229">
        <ele>3.829375</ele>
      </trkpt>
      <trkpt lat="47.3026" lon="-1.53242">
        <ele>4.001844</ele>
      </trkpt>
      <trkpt lat="47.30272" lon="-1.53263">
        <ele>4.374756</ele>
      </trkpt>
      <trkpt lat="47.30278" lon="-1.53292">
        <ele>4.768638</ele>
      </trkpt>
      <trkpt lat="47.30296" lon="-1.53307">
        <ele>4.589453</ele>
      </trkpt>
      <trkpt lat="47.30316" lon="-1.53311">
        <ele>4.173359</ele>
      </trkpt>
      <trkpt lat="47.30329" lon="-1.53329">
        <ele>4.217688</ele>
      </trkpt>
      <trkpt lat="47.30351" lon="-1.53376">
        <ele>4.331481</ele>
      </trkpt>
      <trkpt lat="47.30359" lon="-1.53403">
        <ele>4.52375</ele>
      </trkpt>
      <trkpt lat="47.3037" lon="-1.53429">
        <ele>4.588125</ele>
      </trkpt>
      <trkpt lat="47.30386" lon="-1.53487">
        <ele>5.05</ele>
      </trkpt>
      <trkpt lat="47.30404" lon="-1.53504">
        <ele>4.875625</ele>
      </trkpt>
      <trkpt lat="47.30423" lon="-1.53501">
        <ele>4.74875</ele>
      </trkpt>
      <trkpt lat="47.30463" lon="-1.53478">
        <ele>4.42395</ele>
      </trkpt>
      <trkpt lat="47.30502" lon="-1.53465">
        <ele>4.22195</ele>
      </trkpt>
      <trkpt lat="47.30524" lon="-1.53462">
        <ele>4.060719</ele>
      </trkpt>
      <trkpt lat="47.30543" lon="-1.53467">
        <ele>4.101756</ele>
      </trkpt>
      <trkpt lat="47.30557" lon="-1.53485">
        <ele>4.350625</ele>
      </trkpt>
      <trkpt lat="47.30575" lon="-1.53493">
        <ele>4.449375</ele>
      </trkpt>
      <trkpt lat="47.30593" lon="-1.53478">
        <ele>4.314375</ele>
      </trkpt>
      <trkpt lat="47.30614" lon="-1.53433">
        <ele>4.272181</ele>
      </trkpt>
      <trkpt lat="47.30694" lon="-1.53427">
        <ele>4.566766</ele>
      </trkpt>
      <trkpt lat="47.30735" lon="-1.53418">
        <ele>4.363125</ele>
      </trkpt>
      <trkpt lat="47.30772" lon="-1.53396">
        <ele>4.81755</ele>
      </trkpt>
      <trkpt lat="47.30789" lon="-1.53346">
        <ele>4.36</ele>
      </trkpt>
      <trkpt lat="47.30808" lon="-1.53331">
        <ele>4.571837</ele>
      </trkpt>
      <trkpt lat="47.30827" lon="-1.53317">
        <ele>4.615825</ele>
      </trkpt>
      <trkpt lat="47.30848" lon="-1.53318">
        <ele>4.856969</ele>
      </trkpt>
      <trkpt lat="47.30886" lon="-1.53311">
        <ele>4.557756</ele>
      </trkpt>
      <trkpt lat="47.30907" lon="-1.53318">
        <ele>4.4706</ele>
      </trkpt>
      <trkpt lat="47.3092" lon="-1.53337">
        <ele>4.52195</ele>
      </trkpt>
      <trkpt lat="47.3097" lon="-1.53434">
        <ele>4.92875</ele>
      </trkpt>
      <trkpt lat="47.3099" lon="-1.5345">
        <ele>5.175625</ele>
      </trkpt>
      <trkpt lat="47.31006" lon="-1.53462">
        <ele>5.407656</ele>
      </trkpt>
      <trkpt lat="47.31026" lon="-1.53471">
        <ele>5.436694</ele>
      </trkpt>
      <trkpt lat="47.31047" lon="-1.53473">
        <ele>5.156137</ele>
      </trkpt>
      <trkpt lat="47.31066" lon="-1.53487">
        <ele>5.135912</ele>
      </trkpt>
      <trkpt lat="47.31089" lon="-1.5349">
        <ele>4.8215</ele>
      </trkpt>
      <trkpt lat="47.31159" lon="-1.53536">
        <ele>5.20875</ele>
      </trkpt>
      <trkpt lat="47.31178" lon="-1.53544">
        <ele>4.8938</ele>
      </trkpt>
      <trkpt lat="47.31214" lon="-1.53564">
        <ele>3.924781</ele>
      </trkpt>
      <trkpt lat="47.31231" lon="-1.53583">
        <ele>3.810437</ele>
      </trkpt>
      <trkpt lat="47.31269" lon="-1.53613">
        <ele>3.396825</ele>
      </trkpt>
      <trkpt lat="47.31281" lon="-1.53635">
        <ele>3.405475</ele>
      </trkpt>
      <trkpt lat="47.31298" lon="-1.53685">
        <ele>3.653125</ele>
      </trkpt>
      <trkpt lat="47.3131" lon="-1.5371">
        <ele>3.924375</ele>
      </trkpt>
      <trkpt lat="47.31323" lon="-1.53731">
        <ele>4.46875</ele>
      </trkpt>
      <trkpt lat="47.31363" lon="-1.53716">
        <ele>3.587888</ele>
      </trkpt>
      <trkpt lat="47.3138" lon="-1.53724">
        <ele>3.398438</ele>
      </trkpt>
      <trkpt lat="47.31394" lon="-1.53741">
        <ele>3.858806</ele>
      </trkpt>
      <trkpt lat="47.31384" lon="-1.53765">
        <ele>5.0568</ele>
      </trkpt>
      <trkpt lat="47.31257" lon="-1.53824">
        <ele>6</ele>
      </trkpt>
      <trkpt lat="47.31241" lon="-1.53835">
        <ele>6.1902</ele>
      </trkpt>
      <trkpt lat="47.31239" lon="-1.53865">
        <ele>6.343134</ele>
      </trkpt>
      <trkpt lat="47.3125" lon="-1.53888">
        <ele>6.008425</ele>
      </trkpt>
      <trkpt lat="47.31258" lon="-1.53914">
        <ele>5.75735</ele>
      </trkpt>
      <trkpt lat="47.31271" lon="-1.53937">
        <ele>5.304263</ele>
      </trkpt>
      <trkpt lat="47.31269" lon="-1.53964">
        <ele>5.103675</ele>
      </trkpt>
      <trkpt lat="47.31264" lon="-1.53995">
        <ele>5</ele>
      </trkpt>
      <trkpt lat="47.31255" lon="-1.5402">
        <ele>5</ele>
      </trkpt>
      <trkpt lat="47.31201" lon="-1.54102">
        <ele>4.927297</ele>
      </trkpt>
      <trkpt lat="47.31189" lon="-1.54126">
        <ele>5.121753</ele>
      </trkpt>
      <trkpt lat="47.31183" lon="-1.54154">
        <ele>5.065612</ele>
      </trkpt>
      <trkpt lat="47.31186" lon="-1.54182">
        <ele>5.040688</ele>
      </trkpt>
      <trkpt lat="47.31196" lon="-1.54207">
        <ele>4.977938</ele>
      </trkpt>
      <trkpt lat="47.31211" lon="-1.54224">
        <ele>4.923594</ele>
      </trkpt>
      <trkpt lat="47.31227" lon="-1.54237">
        <ele>4.979238</ele>
      </trkpt>
      <trkpt lat="47.31231" lon="-1.54267">
        <ele>5</ele>
      </trkpt>
      <trkpt lat="47.3124" lon="-1.54291">
        <ele>5.192656</ele>
      </trkpt>
      <trkpt lat="47.31231" lon="-1.54318">
        <ele>5.551025</ele>
      </trkpt>
      <trkpt lat="47.31216" lon="-1.54336">
        <ele>6.047762</ele>
      </trkpt>
      <trkpt lat="47.31197" lon="-1.54339">
        <ele>5.731975</ele>
      </trkpt>
      <trkpt lat="47.31179" lon="-1.54324">
        <ele>5.946897</ele>
      </trkpt>
      <trkpt lat="47.31139" lon="-1.54316">
        <ele>7.8175</ele>
      </trkpt>
      <trkpt lat="47.31118" lon="-1.54318">
        <ele>8.85125</ele>
      </trkpt>
      <trkpt lat="47.31063" lon="-1.54343">
        <ele>11.35125</ele>
      </trkpt>
      <trkpt lat="47.31045" lon="-1.54356">
        <ele>12.325521</ele>
      </trkpt>
      <trkpt lat="47.31029" lon="-1.54343">
        <ele>12.576</ele>
      </trkpt>
      <trkpt lat="47.30989" lon="-1.54344">
        <ele>14.074841</ele>
      </trkpt>
      <trkpt lat="47.30971" lon="-1.54354">
        <ele>14.892781</ele>
      </trkpt>
      <trkpt lat="47.30956" lon="-1.54374">
        <ele>15.84</ele>
      </trkpt>
      <trkpt lat="47.30946" lon="-1.54397">
        <ele>16.747499</ele>
      </trkpt>
      <trkpt lat="47.30942" lon="-1.54424">
        <ele>17.645</ele>
      </trkpt>
      <trkpt lat="47.30943" lon="-1.5445">
        <ele>18.41</ele>
      </trkpt>
      <trkpt lat="47.30936" lon="-1.54477">
        <ele>19.365</ele>
      </trkpt>
      <trkpt lat="47.30951" lon="-1.5453">
        <ele>19.971441</ele>
      </trkpt>
      <trkpt lat="47.30976" lon="-1.54704">
        <ele>17.7575</ele>
      </trkpt>
      <trkpt lat="47.30983" lon="-1.54736">
        <ele>16.967688</ele>
      </trkpt>
      <trkpt lat="47.30993" lon="-1.54762">
        <ele>16.289131</ele>
      </trkpt>
      <trkpt lat="47.31021" lon="-1.54806">
        <ele>17.277994</ele>
      </trkpt>
      <trkpt lat="47.31024" lon="-1.54838">
        <ele>18.23625</ele>
      </trkpt>
      <trkpt lat="47.31012" lon="-1.54895">
        <ele>19.776251</ele>
      </trkpt>
      <trkpt lat="47.31017" lon="-1.54951">
        <ele>21.59375</ele>
      </trkpt>
      <trkpt lat="47.31016" lon="-1.54978">
        <ele>22.397501</ele>
      </trkpt>
      <trkpt lat="47.31004" lon="-1.55033">
        <ele>23.793242</ele>
      </trkpt>
      <trkpt lat="47.31003" lon="-1.5506">
        <ele>24.451</ele>
      </trkpt>
      <trkpt lat="47.31012" lon="-1.55084">
        <ele>25.01</ele>
      </trkpt>
      <trkpt lat="47.30992" lon="-1.55193">
        <ele>28.341249</ele>
      </trkpt>
      <trkpt lat="47.30992" lon="-1.55221">
        <ele>29.092501</ele>
      </trkpt>
      <trkpt lat="47.31068" lon="-1.55254">
        <ele>28.536249</ele>
      </trkpt>
      <trkpt lat="47.31061" lon="-1.5531">
        <ele>28.763124</ele>
      </trkpt>
      <trkpt lat="47.31095" lon="-1.55337">
        <ele>28.566881</ele>
      </trkpt>
      <trkpt lat="47.31104" lon="-1.55344">
        <ele>28</ele>
      </trkpt>
      <trkpt lat="47.31123" lon="-1.55352">
        <ele>29.178125</ele>
      </trkpt>
      <trkpt lat="47.31121" lon="-1.5538">
        <ele>28.201876</ele>
      </trkpt>
      <trkpt lat="47.31122" lon="-1.55408">
        <ele>26.961874</ele>
      </trkpt>
      <trkpt lat="47.31142" lon="-1.55419">
        <ele>26.999374</ele>
      </trkpt>
      <trkpt lat="47.31164" lon="-1.55428">
        <ele>26.72875</ele>
      </trkpt>
      <trkpt lat="47.31183" lon="-1.5543">
        <ele>26.737499</ele>
      </trkpt>
      <trkpt lat="47.31244" lon="-1.55423">
        <ele>25.213751</ele>
      </trkpt>
      <trkpt lat="47.31268" lon="-1.55423">
        <ele>23.1425</ele>
      </trkpt>
      <trkpt lat="47.3131" lon="-1.55422">
        <ele>18.511818</ele>
      </trkpt>
      <trkpt lat="47.31329" lon="-1.55425">
        <ele>15.844093</ele>
      </trkpt>
      <trkpt lat="47.31346" lon="-1.55443">
        <ele>12.47625</ele>
      </trkpt>
      <trkpt lat="47.31363" lon="-1.55454">
        <ele>9.5761</ele>
      </trkpt>
      <trkpt lat="47.31384" lon="-1.55451">
        <ele>7.384025</ele>
      </trkpt>
      <trkpt lat="47.31422" lon="-1.55438">
        <ele>8.061</ele>
      </trkpt>
      <trkpt lat="47.31437" lon="-1.55423">
        <ele>9.058063</ele>
      </trkpt>
      <trkpt lat="47.31446" lon="-1.554">
        <ele>11.062765</ele>
      </trkpt>
      <trkpt lat="47.3145" lon="-1.55372">
        <ele>13.067431</ele>
      </trkpt>
      <trkpt lat="47.31461" lon="-1.55349">
        <ele>15.013</ele>
      </trkpt>
      <trkpt lat="47.31479" lon="-1.55341">
        <ele>17.95455</ele>
      </trkpt>
      <trkpt lat="47.31515" lon="-1.55355">
        <ele>23.886929</ele>
      </trkpt>
      <trkpt lat="47.31553" lon="-1.55357">
        <ele>30.239016</ele>
      </trkpt>
      <trkpt lat="47.31572" lon="-1.55355">
        <ele>32.594727</ele>
      </trkpt>
      <trkpt lat="47.31587" lon="-1.5534">
        <ele>34.177876</ele>
      </trkpt>
      <trkpt lat="47.31604" lon="-1.55328">
        <ele>35.717201</ele>
      </trkpt>
      <trkpt lat="47.3162" lon="-1.55342">
        <ele>36.915001</ele>
      </trkpt>
      <trkpt lat="47.31638" lon="-1.55393">
        <ele>38.25</ele>
      </trkpt>
      <trkpt lat="47.31649" lon="-1.55415">
        <ele>38.375</ele>
      </trkpt>
      <trkpt lat="47.31666" lon="-1.55424">
        <ele>39.091724</ele>
      </trkpt>
      <trkpt lat="47.31686" lon="-1.55428">
        <ele>40.12973</ele>
      </trkpt>
      <trkpt lat="47.31699" lon="-1.55449">
        <ele>40.528126</ele>
      </trkpt>
      <trkpt lat="47.31721" lon="-1.55494">
        <ele>40.220695</ele>
      </trkpt>
      <trkpt lat="47.31757" lon="-1.55516">
        <ele>40.675938</ele>
      </trkpt>
      <trkpt lat="47.31791" lon="-1.55543">
        <ele>40.468849</ele>
      </trkpt>
      <trkpt lat="47.31827" lon="-1.55559">
        <ele>39.088749</ele>
      </trkpt>
      <trkpt lat="47.31845" lon="-1.55558">
        <ele>38.804375</ele>
      </trkpt>
      <trkpt lat="47.31924" lon="-1.55566">
        <ele>37.386723</ele>
      </trkpt>
      <trkpt lat="47.31945" lon="-1.55569">
        <ele>37.172684</ele>
      </trkpt>
      <trkpt lat="47.3201" lon="-1.55569">
        <ele>36.070782</ele>
      </trkpt>
      <trkpt lat="47.3203" lon="-1.55572">
        <ele>35.233486</ele>
      </trkpt>
      <trkpt lat="47.3211" lon="-1.55597">
        <ele>30.582109</ele>
      </trkpt>
      <trkpt lat="47.32153" lon="-1.55605">
        <ele>27.384787</ele>
      </trkpt>
      <trkpt lat="47.32173" lon="-1.55612">
        <ele>25.981726</ele>
      </trkpt>
      <trkpt lat="47.32213" lon="-1.55611">
        <ele>26.22831</ele>
      </trkpt>
      <trkpt lat="47.32231" lon="-1.55607">
        <ele>26.831438</ele>
      </trkpt>
      <trkpt lat="47.32247" lon="-1.55594">
        <ele>28.137794</ele>
      </trkpt>
      <trkpt lat="47.32278" lon="-1.55669">
        <ele>25.007381</ele>
      </trkpt>
      <trkpt lat="47.32293" lon="-1.55692">
        <ele>23.979235</ele>
      </trkpt>
      <trkpt lat="47.32307" lon="-1.55708">
        <ele>23.626249</ele>
      </trkpt>
      <trkpt lat="47.32321" lon="-1.55732">
        <ele>22.589701</ele>
      </trkpt>
      <trkpt lat="47.32355" lon="-1.55841">
        <ele>20.09375</ele>
      </trkpt>
      <trkpt lat="47.32356" lon="-1.55873">
        <ele>19.79635</ele>
      </trkpt>
      <trkpt lat="47.32362" lon="-1.55903">
        <ele>20.538876</ele>
      </trkpt>
      <trkpt lat="47.32363" lon="-1.55933">
        <ele>20.75</ele>
      </trkpt>
      <trkpt lat="47.32359" lon="-1.55963">
        <ele>20.26</ele>
      </trkpt>
      <trkpt lat="47.32363" lon="-1.55993">
        <ele>20.789625</ele>
      </trkpt>
      <trkpt lat="47.32363" lon="-1.56094">
        <ele>16.754063</ele>
      </trkpt>
      <trkpt lat="47.32374" lon="-1.56119">
        <ele>16.112</ele>
      </trkpt>
      <trkpt lat="47.3239" lon="-1.56142">
        <ele>16.06838</ele>
      </trkpt>
      <trkpt lat="47.32406" lon="-1.56162">
        <ele>15.771815</ele>
      </trkpt>
      <trkpt lat="47.32425" lon="-1.56176">
        <ele>15.23375</ele>
      </trkpt>
      <trkpt lat="47.32443" lon="-1.56166">
        <ele>16.363125</ele>
      </trkpt>
      <trkpt lat="47.32457" lon="-1.56149">
        <ele>18.039375</ele>
      </trkpt>
      <trkpt lat="47.32544" lon="-1.56032">
        <ele>28.404375</ele>
      </trkpt>
      <trkpt lat="47.32556" lon="-1.56011">
        <ele>29.688126</ele>
      </trkpt>
      <trkpt lat="47.32585" lon="-1.55972">
        <ele>31.525625</ele>
      </trkpt>
      <trkpt lat="47.32604" lon="-1.55955">
        <ele>32.19125</ele>
      </trkpt>
      <trkpt lat="47.32618" lon="-1.55935">
        <ele>32.833126</ele>
      </trkpt>
      <trkpt lat="47.32637" lon="-1.55942">
        <ele>33.165627</ele>
      </trkpt>
      <trkpt lat="47.32665" lon="-1.55987">
        <ele>33.1675</ele>
      </trkpt>
      <trkpt lat="47.32857" lon="-1.56352">
        <ele>29.931875</ele>
      </trkpt>
      <trkpt lat="47.3287" lon="-1.56371">
        <ele>30.25</ele>
      </trkpt>
      <trkpt lat="47.32992" lon="-1.56526">
        <ele>31.396875</ele>
      </trkpt>
      <trkpt lat="47.33071" lon="-1.56638">
        <ele>29.796249</ele>
      </trkpt>
      <trkpt lat="47.33208" lon="-1.56838">
        <ele>28.051849</ele>
      </trkpt>
      <trkpt lat="47.33336" lon="-1.57029">
        <ele>29.674999</ele>
      </trkpt>
      <trkpt lat="47.33356" lon="-1.57036">
        <ele>30.125</ele>
      </trkpt>
      <trkpt lat="47.33375" lon="-1.57036">
        <ele>30.545</ele>
      </trkpt>
      <trkpt lat="47.33395" lon="-1.57047">
        <ele>31.02</ele>
      </trkpt>
      <trkpt lat="47.33448" lon="-1.57096">
        <ele>32.901249</ele>
      </trkpt>
      <trkpt lat="47.33481" lon="-1.57135">
        <ele>34.223751</ele>
      </trkpt>
      <trkpt lat="47.33536" lon="-1.57161">
        <ele>35.262928</ele>
      </trkpt>
      <trkpt lat="47.33578" lon="-1.57176">
        <ele>35.761875</ele>
      </trkpt>
      <trkpt lat="47.33598" lon="-1.57178">
        <ele>35.771252</ele>
      </trkpt>
      <trkpt lat="47.33639" lon="-1.57175">
        <ele>36.2075</ele>
      </trkpt>
      <trkpt lat="47.33682" lon="-1.57165">
        <ele>36.698719</ele>
      </trkpt>
      <trkpt lat="47.33721" lon="-1.5716">
        <ele>36.951031</ele>
      </trkpt>
      <trkpt lat="47.3374" lon="-1.57152">
        <ele>37.024288</ele>
      </trkpt>
      <trkpt lat="47.33746" lon="-1.57122">
        <ele>36.416039</ele>
      </trkpt>
      <trkpt lat="47.3376" lon="-1.57002">
        <ele>32.939377</ele>
      </trkpt>
      <trkpt lat="47.33773" lon="-1.56802">
        <ele>31.019751</ele>
      </trkpt>
      <trkpt lat="47.3378" lon="-1.56735">
        <ele>31.42625</ele>
      </trkpt>
      <trkpt lat="47.33795" lon="-1.56649">
        <ele>33.43375</ele>
      </trkpt>
      <trkpt lat="47.33815" lon="-1.56556">
        <ele>34.991955</ele>
      </trkpt>
      <trkpt lat="47.3383" lon="-1.56498">
        <ele>34.825218</ele>
      </trkpt>
      <trkpt lat="47.33845" lon="-1.56411">
        <ele>33.383839</ele>
      </trkpt>
      <trkpt lat="47.33847" lon="-1.56351">
        <ele>32.023205</ele>
      </trkpt>
      <trkpt lat="47.33845" lon="-1.56321">
        <ele>31.358891</ele>
      </trkpt>
      <trkpt lat="47.33828" lon="-1.5615">
        <ele>27.943716</ele>
      </trkpt>
      <trkpt lat="47.33836" lon="-1.56124">
        <ele>27.2075</ele>
      </trkpt>
      <trkpt lat="47.33872" lon="-1.56103">
        <ele>26.471251</ele>
      </trkpt>
      <trkpt lat="47.3393" lon="-1.56075">
        <ele>21.158369</ele>
      </trkpt>
      <trkpt lat="47.33948" lon="-1.56069">
        <ele>17.820538</ele>
      </trkpt>
      <trkpt lat="47.33965" lon="-1.56058">
        <ele>14.584868</ele>
      </trkpt>
      <trkpt lat="47.33977" lon="-1.56036">
        <ele>12.563641</ele>
      </trkpt>
      <trkpt lat="47.33999" lon="-1.55982">
        <ele>9.525537</ele>
      </trkpt>
      <trkpt lat="47.34006" lon="-1.55955">
        <ele>8.655509</ele>
      </trkpt>
      <trkpt lat="47.34025" lon="-1.55952">
        <ele>8.2956</ele>
      </trkpt>
      <trkpt lat="47.34045" lon="-1.55954">
        <ele>9.11315</ele>
      </trkpt>
      <trkpt lat="47.34059" lon="-1.55936">
        <ele>10.7278</ele>
      </trkpt>
      <trkpt lat="47.3407" lon="-1.55909">
        <ele>13.32015</ele>
      </trkpt>
      <trkpt lat="47.34064" lon="-1.55851">
        <ele>15.88</ele>
      </trkpt>
      <trkpt lat="47.34055" lon="-1.55826">
        <ele>15.91565</ele>
      </trkpt>
      <trkpt lat="47.34053" lon="-1.55766">
        <ele>16.934706</ele>
      </trkpt>
      <trkpt lat="47.34062" lon="-1.55709">
        <ele>16.704369</ele>
      </trkpt>
      <trkpt lat="47.34083" lon="-1.55624">
        <ele>16.384375</ele>
      </trkpt>
      <trkpt lat="47.34088" lon="-1.55594">
        <ele>16.199375</ele>
      </trkpt>
      <trkpt lat="47.34108" lon="-1.55543">
        <ele>16.621876</ele>
      </trkpt>
      <trkpt lat="47.34143" lon="-1.55476">
        <ele>17.037891</ele>
      </trkpt>
      <trkpt lat="47.34284" lon="-1.55264">
        <ele>14.790625</ele>
      </trkpt>
      <trkpt lat="47.343" lon="-1.55245">
        <ele>14.37625</ele>
      </trkpt>
      <trkpt lat="47.34339" lon="-1.55256">
        <ele>14.8775</ele>
      </trkpt>
      <trkpt lat="47.34379" lon="-1.55261">
        <ele>14.447875</ele>
      </trkpt>
      <trkpt lat="47.34404" lon="-1.5526">
        <ele>14.071994</ele>
      </trkpt>
      <trkpt lat="47.34442" lon="-1.55279">
        <ele>16.039125</ele>
      </trkpt>
      <trkpt lat="47.34481" lon="-1.55285">
        <ele>20.224375</ele>
      </trkpt>
      <trkpt lat="47.34535" lon="-1.55268">
        <ele>23.845625</ele>
      </trkpt>
      <trkpt lat="47.34551" lon="-1.55252">
        <ele>24.30125</ele>
      </trkpt>
      <trkpt lat="47.34571" lon="-1.55245">
        <ele>25.046875</ele>
      </trkpt>
      <trkpt lat="47.34593" lon="-1.55295">
        <ele>27.05625</ele>
      </trkpt>
      <trkpt lat="47.34605" lon="-1.55317">
        <ele>28.31625</ele>
      </trkpt>
      <trkpt lat="47.34621" lon="-1.55334">
        <ele>29.526251</ele>
      </trkpt>
      <trkpt lat="47.34654" lon="-1.55364">
        <ele>30.695</ele>
      </trkpt>
      <trkpt lat="47.34673" lon="-1.55375">
        <ele>31</ele>
      </trkpt>
      <trkpt lat="47.34694" lon="-1.55374">
        <ele>31</ele>
      </trkpt>
      <trkpt lat="47.34777" lon="-1.55362">
        <ele>31</ele>
      </trkpt>
      <trkpt lat="47.34798" lon="-1.55357">
        <ele>31</ele>
      </trkpt>
      <trkpt lat="47.34817" lon="-1.55344">
        <ele>31</ele>
      </trkpt>
      <trkpt lat="47.34889" lon="-1.55286">
        <ele>32.051517</ele>
      </trkpt>
      <trkpt lat="47.34907" lon="-1.55275">
        <ele>32.63625</ele>
      </trkpt>
      <trkpt lat="47.34967" lon="-1.55249">
        <ele>34.413124</ele>
      </trkpt>
      <trkpt lat="47.34987" lon="-1.55242">
        <ele>34.973751</ele>
      </trkpt>
      <trkpt lat="47.35102" lon="-1.55179">
        <ele>37.939999</ele>
      </trkpt>
      <trkpt lat="47.35116" lon="-1.55159">
        <ele>37.622501</ele>
      </trkpt>
      <trkpt lat="47.35126" lon="-1.55133">
        <ele>37.217499</ele>
      </trkpt>
      <trkpt lat="47.35138" lon="-1.55077">
        <ele>37.084667</ele>
      </trkpt>
      <trkpt lat="47.35142" lon="-1.55046">
        <ele>36.804501</ele>
      </trkpt>
      <trkpt lat="47.35158" lon="-1.54991">
        <ele>35.670876</ele>
      </trkpt>
      <trkpt lat="47.35167" lon="-1.54966">
        <ele>35.107498</ele>
      </trkpt>
      <trkpt lat="47.35193" lon="-1.54916">
        <ele>34.494781</ele>
      </trkpt>
      <trkpt lat="47.35204" lon="-1.54887">
        <ele>34.229824</ele>
      </trkpt>
      <trkpt lat="47.35245" lon="-1.54816">
        <ele>34.138752</ele>
      </trkpt>
      <trkpt lat="47.35252" lon="-1.54789">
        <ele>33.99625</ele>
      </trkpt>
      <trkpt lat="47.35243" lon="-1.5476">
        <ele>33.096249</ele>
      </trkpt>
      <trkpt lat="47.35222" lon="-1.54713">
        <ele>31.815001</ele>
      </trkpt>
      <trkpt lat="47.35202" lon="-1.54663">
        <ele>31.344999</ele>
      </trkpt>
      <trkpt lat="47.35177" lon="-1.54587">
        <ele>30.390051</ele>
      </trkpt>
      <trkpt lat="47.35158" lon="-1.5458">
        <ele>29.570013</ele>
      </trkpt>
      <trkpt lat="47.35094" lon="-1.54572">
        <ele>27.024725</ele>
      </trkpt>
      <trkpt lat="47.35074" lon="-1.54563">
        <ele>27.190468</ele>
      </trkpt>
      <trkpt lat="47.35056" lon="-1.54545">
        <ele>27.559826</ele>
      </trkpt>
      <trkpt lat="47.35042" lon="-1.54521">
        <ele>28.529449</ele>
      </trkpt>
      <trkpt lat="47.35025" lon="-1.54504">
        <ele>29.553125</ele>
      </trkpt>
      <trkpt lat="47.35011" lon="-1.54483">
        <ele>30.497141</ele>
      </trkpt>
      <trkpt lat="47.35001" lon="-1.54453">
        <ele>31.449389</ele>
      </trkpt>
      <trkpt lat="47.34987" lon="-1.54435">
        <ele>32.362499</ele>
      </trkpt>
      <trkpt lat="47.34986" lon="-1.54408">
        <ele>32.85125</ele>
      </trkpt>
      <trkpt lat="47.34953" lon="-1.54305">
        <ele>34.370625</ele>
      </trkpt>
      <trkpt lat="47.34941" lon="-1.54282">
        <ele>34.318127</ele>
      </trkpt>
      <trkpt lat="47.34936" lon="-1.54249">
        <ele>33.964375</ele>
      </trkpt>
      <trkpt lat="47.34899" lon="-1.54176">
        <ele>34.015366</ele>
      </trkpt>
      <trkpt lat="47.34891" lon="-1.54149">
        <ele>33.977951</ele>
      </trkpt>
      <trkpt lat="47.34871" lon="-1.54096">
        <ele>34.816475</ele>
      </trkpt>
      <trkpt lat="47.34866" lon="-1.54069">
        <ele>34.837704</ele>
      </trkpt>
      <trkpt lat="47.34855" lon="-1.54046">
        <ele>34.910763</ele>
      </trkpt>
      <trkpt lat="47.34849" lon="-1.5402">
        <ele>34.985001</ele>
      </trkpt>
      <trkpt lat="47.34808" lon="-1.53961">
        <ele>35.820461</ele>
      </trkpt>
      <trkpt lat="47.3478" lon="-1.53925">
        <ele>35.967499</ele>
      </trkpt>
      <trkpt lat="47.34741" lon="-1.53864">
        <ele>36.241325</ele>
      </trkpt>
      <trkpt lat="47.34726" lon="-1.53845">
        <ele>36.183258</ele>
      </trkpt>
      <trkpt lat="47.34644" lon="-1.53723">
        <ele>36.352451</ele>
      </trkpt>
      <trkpt lat="47.34584" lon="-1.53643">
        <ele>36.414505</ele>
      </trkpt>
      <trkpt lat="47.34573" lon="-1.5362">
        <ele>36.401203</ele>
      </trkpt>
      <trkpt lat="47.34559" lon="-1.53602">
        <ele>36.533356</ele>
      </trkpt>
      <trkpt lat="47.34542" lon="-1.5358">
        <ele>36.421875</ele>
      </trkpt>
      <trkpt lat="47.34502" lon="-1.53506">
        <ele>34.603073</ele>
      </trkpt>
      <trkpt lat="47.34488" lon="-1.53478">
        <ele>33.126499</ele>
      </trkpt>
      <trkpt lat="47.34477" lon="-1.5345">
        <ele>31.878231</ele>
      </trkpt>
      <trkpt lat="47.34414" lon="-1.5336">
        <ele>28.370001</ele>
      </trkpt>
      <trkpt lat="47.34398" lon="-1.53344">
        <ele>28.5175</ele>
      </trkpt>
      <trkpt lat="47.3435" lon="-1.53252">
        <ele>27.129171</ele>
      </trkpt>
      <trkpt lat="47.34341" lon="-1.53226">
        <ele>26.544594</ele>
      </trkpt>
      <trkpt lat="47.3433" lon="-1.532">
        <ele>25.80875</ele>
      </trkpt>
      <trkpt lat="47.34312" lon="-1.53182">
        <ele>25.134375</ele>
      </trkpt>
      <trkpt lat="47.34293" lon="-1.53171">
        <ele>24.56875</ele>
      </trkpt>
      <trkpt lat="47.34273" lon="-1.53164">
        <ele>24.024376</ele>
      </trkpt>
      <trkpt lat="47.34255" lon="-1.53147">
        <ele>23.381874</ele>
      </trkpt>
      <trkpt lat="47.34236" lon="-1.53151">
        <ele>22.829374</ele>
      </trkpt>
      <trkpt lat="47.34227" lon="-1.53166">
        <ele>22.673124</ele>
      </trkpt>
      <trkpt lat="47.34191" lon="-1.53199">
        <ele>21.477501</ele>
      </trkpt>
      <trkpt lat="47.34098" lon="-1.53297">
        <ele>19.539375</ele>
      </trkpt>
      <trkpt lat="47.34082" lon="-1.53278">
        <ele>17.961876</ele>
      </trkpt>
      <trkpt lat="47.34056" lon="-1.53226">
        <ele>15.172141</ele>
      </trkpt>
      <trkpt lat="47.34046" lon="-1.53198">
        <ele>14.050387</ele>
      </trkpt>
      <trkpt lat="47.3404" lon="-1.53168">
        <ele>13.024013</ele>
      </trkpt>
      <trkpt lat="47.34035" lon="-1.53141">
        <ele>12.191012</ele>
      </trkpt>
      <trkpt lat="47.34021" lon="-1.53122">
        <ele>11.15</ele>
      </trkpt>
      <trkpt lat="47.33999" lon="-1.53126">
        <ele>11.3425</ele>
      </trkpt>
      <trkpt lat="47.33984" lon="-1.53108">
        <ele>10.824688</ele>
      </trkpt>
      <trkpt lat="47.33998" lon="-1.52966">
        <ele>9.196703</ele>
      </trkpt>
      <trkpt lat="47.34005" lon="-1.52905">
        <ele>9.74875</ele>
      </trkpt>
      <trkpt lat="47.33998" lon="-1.52876">
        <ele>8.9475</ele>
      </trkpt>
      <trkpt lat="47.33961" lon="-1.52855">
        <ele>6.901266</ele>
      </trkpt>
      <trkpt lat="47.33925" lon="-1.52827">
        <ele>5.615</ele>
      </trkpt>
      <trkpt lat="47.33908" lon="-1.5281">
        <ele>5.215</ele>
      </trkpt>
      <trkpt lat="47.33908" lon="-1.52783">
        <ele>5.195</ele>
      </trkpt>
      <trkpt lat="47.33914" lon="-1.52757">
        <ele>5.325</ele>
      </trkpt>
      <trkpt lat="47.33918" lon="-1.52696">
        <ele>5.37</ele>
      </trkpt>
      <trkpt lat="47.33927" lon="-1.52668">
        <ele>5.54</ele>
      </trkpt>
      <trkpt lat="47.33935" lon="-1.5261">
        <ele>5.504</ele>
      </trkpt>
      <trkpt lat="47.33918" lon="-1.52598">
        <ele>4.796437</ele>
      </trkpt>
      <trkpt lat="47.33742" lon="-1.52529">
        <ele>5.85115</ele>
      </trkpt>
      <trkpt lat="47.33721" lon="-1.52518">
        <ele>7.748625</ele>
      </trkpt>
      <trkpt lat="47.33687" lon="-1.52483">
        <ele>9.316484</ele>
      </trkpt>
      <trkpt lat="47.33672" lon="-1.52463">
        <ele>9.828468</ele>
      </trkpt>
      <trkpt lat="47.33651" lon="-1.52409">
        <ele>10.7946</ele>
      </trkpt>
      <trkpt lat="47.33643" lon="-1.52381">
        <ele>11.153125</ele>
      </trkpt>
      <trkpt lat="47.3363" lon="-1.52357">
        <ele>11.3175</ele>
      </trkpt>
      <trkpt lat="47.3362" lon="-1.5233">
        <ele>11.752501</ele>
      </trkpt>
      <trkpt lat="47.33588" lon="-1.5222">
        <ele>13.1225</ele>
      </trkpt>
      <trkpt lat="47.33565" lon="-1.52177">
        <ele>12.81</ele>
      </trkpt>
      <trkpt lat="47.33551" lon="-1.52157">
        <ele>12.540875</ele>
      </trkpt>
      <trkpt lat="47.33529" lon="-1.52153">
        <ele>11.63625</ele>
      </trkpt>
      <trkpt lat="47.33507" lon="-1.52163">
        <ele>10.532353</ele>
      </trkpt>
      <trkpt lat="47.33492" lon="-1.52181">
        <ele>9.856381</ele>
      </trkpt>
      <trkpt lat="47.33494" lon="-1.52209">
        <ele>8.735369</ele>
      </trkpt>
      <trkpt lat="47.33492" lon="-1.52237">
        <ele>7.728309</ele>
      </trkpt>
      <trkpt lat="47.335" lon="-1.52264">
        <ele>6.691453</ele>
      </trkpt>
      <trkpt lat="47.33499" lon="-1.52296">
        <ele>5.6865</ele>
      </trkpt>
      <trkpt lat="47.33495" lon="-1.52328">
        <ele>4.876003</ele>
      </trkpt>
      <trkpt lat="47.33488" lon="-1.52357">
        <ele>4.287781</ele>
      </trkpt>
      <trkpt lat="47.33485" lon="-1.52387">
        <ele>3.639478</ele>
      </trkpt>
      <trkpt lat="47.3349" lon="-1.52413">
        <ele>3.065813</ele>
      </trkpt>
      <trkpt lat="47.33471" lon="-1.52415">
        <ele>3</ele>
      </trkpt>
      <trkpt lat="47.33452" lon="-1.52414">
        <ele>3</ele>
      </trkpt>
      <trkpt lat="47.33433" lon="-1.52408">
        <ele>3.0975</ele>
      </trkpt>
      <trkpt lat="47.33419" lon="-1.52391">
        <ele>3.59875</ele>
      </trkpt>
      <trkpt lat="47.33384" lon="-1.52369">
        <ele>5.767119</ele>
      </trkpt>
      <trkpt lat="47.33346" lon="-1.52366">
        <ele>6.493425</ele>
      </trkpt>
      <trkpt lat="47.33326" lon="-1.52349">
        <ele>7.899662</ele>
      </trkpt>
      <trkpt lat="47.3329" lon="-1.52329">
        <ele>7.728619</ele>
      </trkpt>
      <trkpt lat="47.33275" lon="-1.52312">
        <ele>8.564806</ele>
      </trkpt>
      <trkpt lat="47.33257" lon="-1.52306">
        <ele>8.679037</ele>
      </trkpt>
      <trkpt lat="47.33239" lon="-1.52296">
        <ele>9.230185</ele>
      </trkpt>
      <trkpt lat="47.33219" lon="-1.52296">
        <ele>10.180125</ele>
      </trkpt>
      <trkpt lat="47.33203" lon="-1.52306">
        <ele>9.739081</ele>
      </trkpt>
      <trkpt lat="47.33183" lon="-1.52311">
        <ele>11.07614</ele>
      </trkpt>
      <trkpt lat="47.33165" lon="-1.52335">
        <ele>11.574925</ele>
      </trkpt>
      <trkpt lat="47.33146" lon="-1.52347">
        <ele>12.5416</ele>
      </trkpt>
      <trkpt lat="47.33129" lon="-1.52365">
        <ele>12.657249</ele>
      </trkpt>
      <trkpt lat="47.33104" lon="-1.52406">
        <ele>12.183625</ele>
      </trkpt>
      <trkpt lat="47.33084" lon="-1.5241">
        <ele>13.726328</ele>
      </trkpt>
      <trkpt lat="47.33066" lon="-1.5242">
        <ele>14.0104</ele>
      </trkpt>
      <trkpt lat="47.3304" lon="-1.52463">
        <ele>11.275735</ele>
      </trkpt>
      <trkpt lat="47.3302" lon="-1.5247">
        <ele>13.905469</ele>
      </trkpt>
      <trkpt lat="47.3301" lon="-1.52495">
        <ele>11.008125</ele>
      </trkpt>
      <trkpt lat="47.32993" lon="-1.52556">
        <ele>5.557456</ele>
      </trkpt>
      <trkpt lat="47.32976" lon="-1.52575">
        <ele>4.5674</ele>
      </trkpt>
      <trkpt lat="47.32936" lon="-1.52585">
        <ele>4.68</ele>
      </trkpt>
      <trkpt lat="47.32918" lon="-1.52584">
        <ele>4.6675</ele>
      </trkpt>
      <trkpt lat="47.32897" lon="-1.52575">
        <ele>4.531</ele>
      </trkpt>
      <trkpt lat="47.32881" lon="-1.52563">
        <ele>4.649231</ele>
      </trkpt>
      <trkpt lat="47.32863" lon="-1.52558">
        <ele>4.479331</ele>
      </trkpt>
      <trkpt lat="47.32823" lon="-1.52554">
        <ele>4.364687</ele>
      </trkpt>
      <trkpt lat="47.32787" lon="-1.52538">
        <ele>4.44265</ele>
      </trkpt>
      <trkpt lat="47.32774" lon="-1.52519">
        <ele>4.547447</ele>
      </trkpt>
      <trkpt lat="47.32769" lon="-1.52491">
        <ele>4.775</ele>
      </trkpt>
      <trkpt lat="47.32758" lon="-1.52468">
        <ele>4.83875</ele>
      </trkpt>
      <trkpt lat="47.32759" lon="-1.52438">
        <ele>5.299375</ele>
      </trkpt>
      <trkpt lat="47.32753" lon="-1.52353">
        <ele>5.46</ele>
      </trkpt>
      <trkpt lat="47.32746" lon="-1.52297">
        <ele>5.06</ele>
      </trkpt>
      <trkpt lat="47.32744" lon="-1.52243">
        <ele>4.91</ele>
      </trkpt>
      <trkpt lat="47.3275" lon="-1.52218">
        <ele>5.15</ele>
      </trkpt>
      <trkpt lat="47.32754" lon="-1.52189">
        <ele>5.29</ele>
      </trkpt>
      <trkpt lat="47.32755" lon="-1.52133">
        <ele>5.23</ele>
      </trkpt>
      <trkpt lat="47.3276" lon="-1.52104">
        <ele>5.43</ele>
      </trkpt>
      <trkpt lat="47.32762" lon="-1.52075">
        <ele>5.203684</ele>
      </trkpt>
      <trkpt lat="47.3277" lon="-1.52049">
        <ele>5.303369</ele>
      </trkpt>
      <trkpt lat="47.32779" lon="-1.52022">
        <ele>5.534531</ele>
      </trkpt>
      <trkpt lat="47.3279" lon="-1.52001">
        <ele>5.615031</ele>
      </trkpt>
      <trkpt lat="47.32797" lon="-1.51976">
        <ele>5.16325</ele>
      </trkpt>
      <trkpt lat="47.32812" lon="-1.51958">
        <ele>5.050525</ele>
      </trkpt>
      <trkpt lat="47.3285" lon="-1.51954">
        <ele>5.445</ele>
      </trkpt>
      <trkpt lat="47.32862" lon="-1.51934">
        <ele>4.81</ele>
      </trkpt>
      <trkpt lat="47.32854" lon="-1.51909">
        <ele>4.0925</ele>
      </trkpt>
      <trkpt lat="47.32868" lon="-1.51893">
        <ele>4.532859</ele>
      </trkpt>
      <trkpt lat="47.32878" lon="-1.51869">
        <ele>5.383563</ele>
      </trkpt>
      <trkpt lat="47.32883" lon="-1.51841">
        <ele>6.31</ele>
      </trkpt>
      <trkpt lat="47.32886" lon="-1.51786">
        <ele>9.6025</ele>
      </trkpt>
      <trkpt lat="47.32893" lon="-1.51733">
        <ele>12.088125</ele>
      </trkpt>
      <trkpt lat="47.32902" lon="-1.5168">
        <ele>14.349375</ele>
      </trkpt>
      <trkpt lat="47.32847" lon="-1.51651">
        <ele>16.3675</ele>
      </trkpt>
      <trkpt lat="47.32816" lon="-1.51616">
        <ele>16.392799</ele>
      </trkpt>
      <trkpt lat="47.32778" lon="-1.51583">
        <ele>15.089453</ele>
      </trkpt>
      <trkpt lat="47.32764" lon="-1.51567">
        <ele>14.635269</ele>
      </trkpt>
      <trkpt lat="47.32737" lon="-1.51527">
        <ele>13.0647</ele>
      </trkpt>
      <trkpt lat="47.32714" lon="-1.5148">
        <ele>13.070785</ele>
      </trkpt>
      <trkpt lat="47.32701" lon="-1.5146">
        <ele>13.319797</ele>
      </trkpt>
      <trkpt lat="47.3265" lon="-1.51392">
        <ele>15.03375</ele>
      </trkpt>
      <trkpt lat="47.3264" lon="-1.5137">
        <ele>16.465</ele>
      </trkpt>
      <trkpt lat="47.32624" lon="-1.51315">
        <ele>17.943106</ele>
      </trkpt>
      <trkpt lat="47.32609" lon="-1.51204">
        <ele>18.535107</ele>
      </trkpt>
      <trkpt lat="47.32592" lon="-1.5119">
        <ele>18.463869</ele>
      </trkpt>
      <trkpt lat="47.32553" lon="-1.51211">
        <ele>19.441875</ele>
      </trkpt>
      <trkpt lat="47.32468" lon="-1.51205">
        <ele>16.640625</ele>
      </trkpt>
      <trkpt lat="47.32429" lon="-1.51206">
        <ele>15.784425</ele>
      </trkpt>
      <trkpt lat="47.32389" lon="-1.512">
        <ele>13.2925</ele>
      </trkpt>
      <trkpt lat="47.32352" lon="-1.51193">
        <ele>9.184225</ele>
      </trkpt>
      <trkpt lat="47.32332" lon="-1.51184">
        <ele>6.403606</ele>
      </trkpt>
      <trkpt lat="47.32296" lon="-1.51175">
        <ele>5.246175</ele>
      </trkpt>
      <trkpt lat="47.3214" lon="-1.51119">
        <ele>13.638138</ele>
      </trkpt>
      <trkpt lat="47.3212" lon="-1.51124">
        <ele>15.171231</ele>
      </trkpt>
      <trkpt lat="47.3213" lon="-1.5115">
        <ele>15.235</ele>
      </trkpt>
      <trkpt lat="47.32159" lon="-1.5126">
        <ele>15.092169</ele>
      </trkpt>
      <trkpt lat="47.32172" lon="-1.51345">
        <ele>15.160956</ele>
      </trkpt>
      <trkpt lat="47.3217" lon="-1.51372">
        <ele>15.469712</ele>
      </trkpt>
      <trkpt lat="47.32165" lon="-1.51399">
        <ele>16.098812</ele>
      </trkpt>
      <trkpt lat="47.32155" lon="-1.51428">
        <ele>16.935699</ele>
      </trkpt>
      <trkpt lat="47.32142" lon="-1.51449">
        <ele>18.139376</ele>
      </trkpt>
      <trkpt lat="47.32127" lon="-1.51465">
        <ele>18.975</ele>
      </trkpt>
      <trkpt lat="47.32115" lon="-1.5149">
        <ele>19.695</ele>
      </trkpt>
      <trkpt lat="47.32129" lon="-1.51545">
        <ele>19.510769</ele>
      </trkpt>
      <trkpt lat="47.32126" lon="-1.51605">
        <ele>21.425249</ele>
      </trkpt>
      <trkpt lat="47.32129" lon="-1.51662">
        <ele>22</ele>
      </trkpt>
      <trkpt lat="47.32141" lon="-1.5172">
        <ele>21.828709</ele>
      </trkpt>
      <trkpt lat="47.32149" lon="-1.51785">
        <ele>21.605</ele>
      </trkpt>
      <trkpt lat="47.32145" lon="-1.5185">
        <ele>21.635</ele>
      </trkpt>
      <trkpt lat="47.32128" lon="-1.51945">
        <ele>20.965452</ele>
      </trkpt>
      <trkpt lat="47.32137" lon="-1.5206">
        <ele>20.123751</ele>
      </trkpt>
      <trkpt lat="47.32126" lon="-1.52146">
        <ele>16.59984</ele>
      </trkpt>
      <trkpt lat="47.3213" lon="-1.5218">
        <ele>14.843344</ele>
      </trkpt>
      <trkpt lat="47.32143" lon="-1.52245">
        <ele>12.365394</ele>
      </trkpt>
      <trkpt lat="47.32147" lon="-1.52272">
        <ele>10.928738</ele>
      </trkpt>
      <trkpt lat="47.32115" lon="-1.5228">
        <ele>10.656788</ele>
      </trkpt>
      <trkpt lat="47.32097" lon="-1.52271">
        <ele>12.309069</ele>
      </trkpt>
      <trkpt lat="47.32059" lon="-1.52277">
        <ele>14.98375</ele>
      </trkpt>
      <trkpt lat="47.32044" lon="-1.52293">
        <ele>15.74125</ele>
      </trkpt>
      <trkpt lat="47.32042" lon="-1.52324">
        <ele>14.5625</ele>
      </trkpt>
      <trkpt lat="47.32024" lon="-1.5233">
        <ele>15.6525</ele>
      </trkpt>
      <trkpt lat="47.32004" lon="-1.52328">
        <ele>17.445</ele>
      </trkpt>
      <trkpt lat="47.31965" lon="-1.52339">
        <ele>19.227499</ele>
      </trkpt>
      <trkpt lat="47.31863" lon="-1.52338">
        <ele>14.798331</ele>
      </trkpt>
      <trkpt lat="47.31825" lon="-1.52332">
        <ele>12.923125</ele>
      </trkpt>
      <trkpt lat="47.31762" lon="-1.52342">
        <ele>8.551244</ele>
      </trkpt>
      <trkpt lat="47.31722" lon="-1.52324">
        <ele>10.089044</ele>
      </trkpt>
      <trkpt lat="47.31717" lon="-1.5235">
        <ele>7.414356</ele>
      </trkpt>
      <trkpt lat="47.31699" lon="-1.52361">
        <ele>6.802281</ele>
      </trkpt>
      <trkpt lat="47.3168" lon="-1.52359">
        <ele>7.5666</ele>
      </trkpt>
      <trkpt lat="47.31642" lon="-1.52368">
        <ele>8.545365</ele>
      </trkpt>
      <trkpt lat="47.31624" lon="-1.5237">
        <ele>9.356012</ele>
      </trkpt>
      <trkpt lat="47.31552" lon="-1.52411">
        <ele>7.42175</ele>
      </trkpt>
      <trkpt lat="47.31532" lon="-1.52414">
        <ele>8.686175</ele>
      </trkpt>
      <trkpt lat="47.31493" lon="-1.52431">
        <ele>9.998531</ele>
      </trkpt>
      <trkpt lat="47.31476" lon="-1.52461">
        <ele>7.37555</ele>
      </trkpt>
      <trkpt lat="47.31448" lon="-1.52539">
        <ele>6.705703</ele>
      </trkpt>
      <trkpt lat="47.31418" lon="-1.52578">
        <ele>5.64</ele>
      </trkpt>
      <trkpt lat="47.31401" lon="-1.52591">
        <ele>5.400375</ele>
      </trkpt>
      <trkpt lat="47.31363" lon="-1.52601">
        <ele>6.079375</ele>
      </trkpt>
      <trkpt lat="47.31348" lon="-1.52586">
        <ele>7.509425</ele>
      </trkpt>
      <trkpt lat="47.31342" lon="-1.5256">
        <ele>10.388594</ele>
      </trkpt>
      <trkpt lat="47.31339" lon="-1.52533">
        <ele>13.1786</ele>
      </trkpt>
      <trkpt lat="47.31339" lon="-1.52504">
        <ele>15.305072</ele>
      </trkpt>
      <trkpt lat="47.31347" lon="-1.52451">
        <ele>18.431925</ele>
      </trkpt>
      <trkpt lat="47.31343" lon="-1.52424">
        <ele>19.576876</ele>
      </trkpt>
      <trkpt lat="47.31362" lon="-1.52102">
        <ele>17.3325</ele>
      </trkpt>
      <trkpt lat="47.31365" lon="-1.51912">
        <ele>11.868344</ele>
      </trkpt>
      <trkpt lat="47.31373" lon="-1.51884">
        <ele>11.588153</ele>
      </trkpt>
      <trkpt lat="47.31375" lon="-1.51823">
        <ele>10.119606</ele>
      </trkpt>
      <trkpt lat="47.31379" lon="-1.51791">
        <ele>9.431812</ele>
      </trkpt>
      <trkpt lat="47.31384" lon="-1.51766">
        <ele>9.092088</ele>
      </trkpt>
      <trkpt lat="47.31378" lon="-1.51739">
        <ele>8.3554</ele>
      </trkpt>
      <trkpt lat="47.3138" lon="-1.51712">
        <ele>8.265</ele>
      </trkpt>
      <trkpt lat="47.31378" lon="-1.51686">
        <ele>8.195</ele>
      </trkpt>
      <trkpt lat="47.31385" lon="-1.516">
        <ele>9.015087</ele>
      </trkpt>
      <trkpt lat="47.31381" lon="-1.51572">
        <ele>9.353868</ele>
      </trkpt>
      <trkpt lat="47.31324" lon="-1.51552">
        <ele>9.78375</ele>
      </trkpt>
      <trkpt lat="47.31286" lon="-1.51535">
        <ele>10.840625</ele>
      </trkpt>
      <trkpt lat="47.31267" lon="-1.51531">
        <ele>11.322931</ele>
      </trkpt>
      <trkpt lat="47.31254" lon="-1.5155">
        <ele>11.520719</ele>
      </trkpt>
      <trkpt lat="47.31191" lon="-1.51672">
        <ele>11.4075</ele>
      </trkpt>
      <trkpt lat="47.31161" lon="-1.51712">
        <ele>10.76125</ele>
      </trkpt>
      <trkpt lat="47.31145" lon="-1.51727">
        <ele>10.46</ele>
      </trkpt>
      <trkpt lat="47.31108" lon="-1.51753">
        <ele>9.97</ele>
      </trkpt>
      <trkpt lat="47.31049" lon="-1.51778">
        <ele>8.9225</ele>
      </trkpt>
      <trkpt lat="47.3103" lon="-1.5178">
        <ele>9.0975</ele>
      </trkpt>
      <trkpt lat="47.3099" lon="-1.5177">
        <ele>10.08625</ele>
      </trkpt>
      <trkpt lat="47.30969" lon="-1.51773">
        <ele>9.8275</ele>
      </trkpt>
      <trkpt lat="47.3093" lon="-1.51802">
        <ele>8.251206</ele>
      </trkpt>
      <trkpt lat="47.30911" lon="-1.51821">
        <ele>7.605581</ele>
      </trkpt>
      <trkpt lat="47.30896" lon="-1.51839">
        <ele>7.870625</ele>
      </trkpt>
      <trkpt lat="47.30862" lon="-1.51865">
        <ele>9.872969</ele>
      </trkpt>
      <trkpt lat="47.30808" lon="-1.51908">
        <ele>13.83375</ele>
      </trkpt>
      <trkpt lat="47.30791" lon="-1.51918">
        <ele>14.724375</ele>
      </trkpt>
      <trkpt lat="47.30748" lon="-1.51979">
        <ele>17.139999</ele>
      </trkpt>
      <trkpt lat="47.30729" lon="-1.51989">
        <ele>17.959999</ele>
      </trkpt>
      <trkpt lat="47.30704" lon="-1.5203">
        <ele>18.0825</ele>
      </trkpt>
      <trkpt lat="47.30686" lon="-1.52053">
        <ele>17.735001</ele>
      </trkpt>
      <trkpt lat="47.3063" lon="-1.52085">
        <ele>19.205626</ele>
      </trkpt>
      <trkpt lat="47.3061" lon="-1.5209">
        <ele>20.393126</ele>
      </trkpt>
      <trkpt lat="47.30535" lon="-1.52121">
        <ele>23.271862</ele>
      </trkpt>
      <trkpt lat="47.30389" lon="-1.52162">
        <ele>17.661249</ele>
      </trkpt>
      <trkpt lat="47.30334" lon="-1.5218">
        <ele>13.98375</ele>
      </trkpt>
      <trkpt lat="47.3031" lon="-1.52184">
        <ele>12.7925</ele>
      </trkpt>
      <trkpt lat="47.30297" lon="-1.52202">
        <ele>11.264387</ele>
      </trkpt>
      <trkpt lat="47.30291" lon="-1.52237">
        <ele>9.168984</ele>
      </trkpt>
      <trkpt lat="47.30278" lon="-1.52299">
        <ele>5.866394</ele>
      </trkpt>
      <trkpt lat="47.30267" lon="-1.52327">
        <ele>4.655</ele>
      </trkpt>
      <trkpt lat="47.30235" lon="-1.52358">
        <ele>3.413234</ele>
      </trkpt>
      <trkpt lat="47.30217" lon="-1.52369">
        <ele>3.186831</ele>
      </trkpt>
      <trkpt lat="47.30203" lon="-1.52391">
        <ele>3.37</ele>
      </trkpt>
      <trkpt lat="47.30205" lon="-1.52419">
        <ele>3.29</ele>
      </trkpt>
      <trkpt lat="47.30217" lon="-1.52445">
        <ele>3.01</ele>
      </trkpt>
      <trkpt lat="47.30227" lon="-1.52474">
        <ele>3</ele>
      </trkpt>
      <trkpt lat="47.30229" lon="-1.52503">
        <ele>3</ele>
      </trkpt>
      <trkpt lat="47.30227" lon="-1.5253">
        <ele>3</ele>
      </trkpt>
      <trkpt lat="47.3022" lon="-1.52558">
        <ele>3</ele>
      </trkpt>
      <trkpt lat="47.30179" lon="-1.5256">
        <ele>4.38215</ele>
      </trkpt>
      <trkpt lat="47.3016" lon="-1.52551">
        <ele>5.0775</ele>
      </trkpt>
      <trkpt lat="47.30101" lon="-1.52545">
        <ele>7.689375</ele>
      </trkpt>
      <trkpt lat="47.30083" lon="-1.52558">
        <ele>8.660625</ele>
      </trkpt>
      <trkpt lat="47.30064" lon="-1.52608">
        <ele>10.240625</ele>
      </trkpt>
      <trkpt lat="47.30055" lon="-1.52637">
        <ele>11.02875</ele>
      </trkpt>
      <trkpt lat="47.30044" lon="-1.52691">
        <ele>12.24375</ele>
      </trkpt>
      <trkpt lat="47.30054" lon="-1.52717">
        <ele>11.662738</ele>
      </trkpt>
      <trkpt lat="47.30092" lon="-1.52735">
        <ele>8.726875</ele>
      </trkpt>
      <trkpt lat="47.30109" lon="-1.5275">
        <ele>6.981875</ele>
      </trkpt>
      <trkpt lat="47.30112" lon="-1.52779">
        <ele>5.834506</ele>
      </trkpt>
      <trkpt lat="47.30089" lon="-1.52829">
        <ele>4.919</ele>
      </trkpt>
      <trkpt lat="47.30075" lon="-1.5285">
        <ele>4.813134</ele>
      </trkpt>
      <trkpt lat="47.30061" lon="-1.52868">
        <ele>4.728925</ele>
      </trkpt>
      <trkpt lat="47.30024" lon="-1.52901">
        <ele>4.7016</ele>
      </trkpt>
      <trkpt lat="47.30006" lon="-1.529">
        <ele>5.7638</ele>
      </trkpt>
      <trkpt lat="47.29987" lon="-1.52909">
        <ele>6.302187</ele>
      </trkpt>
      <trkpt lat="47.29954" lon="-1.5294">
        <ele>5.942891</ele>
      </trkpt>
      <trkpt lat="47.29938" lon="-1.52959">
        <ele>5.425766</ele>
      </trkpt>
      <trkpt lat="47.29918" lon="-1.52971">
        <ele>6.075</ele>
      </trkpt>
      <trkpt lat="47.29902" lon="-1.52987">
        <ele>6.037225</ele>
      </trkpt>
      <trkpt lat="47.29883" lon="-1.52989">
        <ele>6.839425</ele>
      </trkpt>
      <trkpt lat="47.29851" lon="-1.53018">
        <ele>5.881319</ele>
      </trkpt>
      <trkpt lat="47.29837" lon="-1.53041">
        <ele>5.269063</ele>
      </trkpt>
      <trkpt lat="47.29819" lon="-1.53057">
        <ele>5.245</ele>
      </trkpt>
      <trkpt lat="47.29798" lon="-1.53059">
        <ele>5.926188</ele>
      </trkpt>
      <trkpt lat="47.29761" lon="-1.53079">
        <ele>5.006675</ele>
      </trkpt>
      <trkpt lat="47.29742" lon="-1.53086">
        <ele>5.152019</ele>
      </trkpt>
      <trkpt lat="47.29723" lon="-1.53088">
        <ele>5.05365</ele>
      </trkpt>
      <trkpt lat="47.29705" lon="-1.53084">
        <ele>5.308612</ele>
      </trkpt>
      <trkpt lat="47.29667" lon="-1.53066">
        <ele>5.228606</ele>
      </trkpt>
      <trkpt lat="47.29648" lon="-1.53051">
        <ele>5.3705</ele>
      </trkpt>
      <trkpt lat="47.29633" lon="-1.53034">
        <ele>5.554419</ele>
      </trkpt>
      <trkpt lat="47.29642" lon="-1.5301">
        <ele>6.810522</ele>
      </trkpt>
      <trkpt lat="47.29625" lon="-1.52991">
        <ele>6.806719</ele>
      </trkpt>
      <trkpt lat="47.29603" lon="-1.52989">
        <ele>6.021163</ele>
      </trkpt>
      <trkpt lat="47.29589" lon="-1.52971">
        <ele>6.1027</ele>
      </trkpt>
      <trkpt lat="47.2958" lon="-1.52948">
        <ele>6.18495</ele>
      </trkpt>
      <trkpt lat="47.29569" lon="-1.52868">
        <ele>6.5825</ele>
      </trkpt>
      <trkpt lat="47.29568" lon="-1.52837">
        <ele>6.595</ele>
      </trkpt>
      <trkpt lat="47.29557" lon="-1.52776">
        <ele>5.837625</ele>
      </trkpt>
      <trkpt lat="47.29516" lon="-1.52666">
        <ele>5.471875</ele>
      </trkpt>
      <trkpt lat="47.2951" lon="-1.52635">
        <ele>5.08125</ele>
      </trkpt>
      <trkpt lat="47.2951" lon="-1.52608">
        <ele>4.671875</ele>
      </trkpt>
      <trkpt lat="47.29499" lon="-1.52582">
        <ele>4.130031</ele>
      </trkpt>
      <trkpt lat="47.29464" lon="-1.52544">
        <ele>4</ele>
      </trkpt>
      <trkpt lat="47.29431" lon="-1.5251">
        <ele>4.43</ele>
      </trkpt>
      <trkpt lat="47.29411" lon="-1.52499">
        <ele>4.865</ele>
      </trkpt>
      <trkpt lat="47.29401" lon="-1.52558">
        <ele>4.4956</ele>
      </trkpt>
      <trkpt lat="47.29396" lon="-1.52649">
        <ele>5.170331</ele>
      </trkpt>
      <trkpt lat="47.29392" lon="-1.52678">
        <ele>4.928656</ele>
      </trkpt>
      <trkpt lat="47.29383" lon="-1.52707">
        <ele>5.101263</ele>
      </trkpt>
      <trkpt lat="47.29388" lon="-1.52735">
        <ele>4.615</ele>
      </trkpt>
      <trkpt lat="47.29407" lon="-1.52744">
        <ele>3.908425</ele>
      </trkpt>
      <trkpt lat="47.29417" lon="-1.52768">
        <ele>3.650503</ele>
      </trkpt>
      <trkpt lat="47.29417" lon="-1.52798">
        <ele>3.52</ele>
      </trkpt>
      <trkpt lat="47.29404" lon="-1.52818">
        <ele>3.78</ele>
      </trkpt>
      <trkpt lat="47.29389" lon="-1.52872">
        <ele>4.236137</ele>
      </trkpt>
      <trkpt lat="47.29368" lon="-1.52875">
        <ele>5.3797</ele>
      </trkpt>
      <trkpt lat="47.2935" lon="-1.52897">
        <ele>6.031475</ele>
      </trkpt>
      <trkpt lat="47.29344" lon="-1.52923">
        <ele>5.8889</ele>
      </trkpt>
      <trkpt lat="47.29332" lon="-1.52945">
        <ele>5.887431</ele>
      </trkpt>
      <trkpt lat="47.29299" lon="-1.52982">
        <ele>5.724428</ele>
      </trkpt>
      <trkpt lat="47.2928" lon="-1.52998">
        <ele>5.6075</ele>
      </trkpt>
      <trkpt lat="47.2926" lon="-1.53003">
        <ele>5.87125</ele>
      </trkpt>
      <trkpt lat="47.29242" lon="-1.53002">
        <ele>5.99875</ele>
      </trkpt>
      <trkpt lat="47.29223" lon="-1.52994">
        <ele>6.22</ele>
      </trkpt>
      <trkpt lat="47.29185" lon="-1.53009">
        <ele>5.833006</ele>
      </trkpt>
      <trkpt lat="47.29126" lon="-1.53017">
        <ele>5.448125</ele>
      </trkpt>
      <trkpt lat="47.29089" lon="-1.53007">
        <ele>5.63425</ele>
      </trkpt>
      <trkpt lat="47.29073" lon="-1.52989">
        <ele>5.991037</ele>
      </trkpt>
      <trkpt lat="47.29048" lon="-1.52946">
        <ele>6.262837</ele>
      </trkpt>
      <trkpt lat="47.29005" lon="-1.52884">
        <ele>7.268612</ele>
      </trkpt>
      <trkpt lat="47.28993" lon="-1.52861">
        <ele>7.723406</ele>
      </trkpt>
      <trkpt lat="47.28977" lon="-1.52843">
        <ele>7.9525</ele>
      </trkpt>
      <trkpt lat="47.28961" lon="-1.52827">
        <ele>8.13</ele>
      </trkpt>
      <trkpt lat="47.28926" lon="-1.52799">
        <ele>8.247313</ele>
      </trkpt>
      <trkpt lat="47.28887" lon="-1.52777">
        <ele>8.4425</ele>
      </trkpt>
      <trkpt lat="47.28848" lon="-1.52762">
        <ele>7.827375</ele>
      </trkpt>
      <trkpt lat="47.28828" lon="-1.52757">
        <ele>6.965481</ele>
      </trkpt>
      <trkpt lat="47.28808" lon="-1.52747">
        <ele>6.321347</ele>
      </trkpt>
      <trkpt lat="47.28796" lon="-1.52721">
        <ele>6.73</ele>
      </trkpt>
      <trkpt lat="47.28787" lon="-1.52692">
        <ele>7.313125</ele>
      </trkpt>
      <trkpt lat="47.28764" lon="-1.52689">
        <ele>6.127075</ele>
      </trkpt>
      <trkpt lat="47.28747" lon="-1.52695">
        <ele>5.59465</ele>
      </trkpt>
      <trkpt lat="47.28728" lon="-1.52694">
        <ele>5.433859</ele>
      </trkpt>
      <trkpt lat="47.28712" lon="-1.5268">
        <ele>5.545972</ele>
      </trkpt>
      <trkpt lat="47.28669" lon="-1.52613">
        <ele>9.494156</ele>
      </trkpt>
      <trkpt lat="47.28661" lon="-1.52587">
        <ele>11.921425</ele>
      </trkpt>
      <trkpt lat="47.28644" lon="-1.52575">
        <ele>13.012218</ele>
      </trkpt>
      <trkpt lat="47.28625" lon="-1.52569">
        <ele>13.958312</ele>
      </trkpt>
      <trkpt lat="47.2859" lon="-1.52547">
        <ele>17.009424</ele>
      </trkpt>
      <trkpt lat="47.28539" lon="-1.52509">
        <ele>19.96825</ele>
      </trkpt>
      <trkpt lat="47.28528" lon="-1.52483">
        <ele>19.446287</ele>
      </trkpt>
      <trkpt lat="47.2853" lon="-1.52455">
        <ele>20.571924</ele>
      </trkpt>
      <trkpt lat="47.28511" lon="-1.5245">
        <ele>19.404501</ele>
      </trkpt>
      <trkpt lat="47.28498" lon="-1.52479">
        <ele>16.870403</ele>
      </trkpt>
      <trkpt lat="47.2848" lon="-1.52498">
        <ele>14.092409</ele>
      </trkpt>
      <trkpt lat="47.28454" lon="-1.52505">
        <ele>11.40625</ele>
      </trkpt>
      <trkpt lat="47.28436" lon="-1.52507">
        <ele>9.903125</ele>
      </trkpt>
      <trkpt lat="47.28411" lon="-1.52504">
        <ele>8.4475</ele>
      </trkpt>
      <trkpt lat="47.28389" lon="-1.52494">
        <ele>8.10875</ele>
      </trkpt>
      <trkpt lat="47.28355" lon="-1.52461">
        <ele>9.194375</ele>
      </trkpt>
      <trkpt lat="47.28335" lon="-1.52447">
        <ele>9.6825</ele>
      </trkpt>
      <trkpt lat="47.28316" lon="-1.52456">
        <ele>8.69299</ele>
      </trkpt>
      <trkpt lat="47.28297" lon="-1.52457">
        <ele>8.374337</ele>
      </trkpt>
      <trkpt lat="47.2828" lon="-1.52449">
        <ele>8.81875</ele>
      </trkpt>
      <trkpt lat="47.28263" lon="-1.52435">
        <ele>10.0375</ele>
      </trkpt>
      <trkpt lat="47.28251" lon="-1.52412">
        <ele>12.05125</ele>
      </trkpt>
      <trkpt lat="47.28233" lon="-1.52407">
        <ele>12.507712</ele>
      </trkpt>
      <trkpt lat="47.28213" lon="-1.52413">
        <ele>12.5815</ele>
      </trkpt>
      <trkpt lat="47.28173" lon="-1.52415">
        <ele>13.76745</ele>
      </trkpt>
      <trkpt lat="47.28154" lon="-1.52425">
        <ele>13.808557</ele>
      </trkpt>
      <trkpt lat="47.2814" lon="-1.52443">
        <ele>12.532819</ele>
      </trkpt>
      <trkpt lat="47.28123" lon="-1.52455">
        <ele>12.340706</ele>
      </trkpt>
      <trkpt lat="47.28104" lon="-1.52454">
        <ele>13.542262</ele>
      </trkpt>
      <trkpt lat="47.28084" lon="-1.52441">
        <ele>15.000313</ele>
      </trkpt>
      <trkpt lat="47.28065" lon="-1.52436">
        <ele>15.5817</ele>
      </trkpt>
      <trkpt lat="47.28046" lon="-1.52426">
        <ele>15.678556</ele>
      </trkpt>
      <trkpt lat="47.28042" lon="-1.52395">
        <ele>15.0295</ele>
      </trkpt>
      <trkpt lat="47.28043" lon="-1.52365">
        <ele>14.253875</ele>
      </trkpt>
      <trkpt lat="47.28035" lon="-1.5234">
        <ele>12.82125</ele>
      </trkpt>
      <trkpt lat="47.28017" lon="-1.52331">
        <ele>11.20125</ele>
      </trkpt>
      <trkpt lat="47.27998" lon="-1.52326">
        <ele>9.165235</ele>
      </trkpt>
      <trkpt lat="47.27959" lon="-1.52293">
        <ele>5.2142</ele>
      </trkpt>
      <trkpt lat="47.27923" lon="-1.52273">
        <ele>5.001875</ele>
      </trkpt>
      <trkpt lat="47.2791" lon="-1.52292">
        <ele>5.2156</ele>
      </trkpt>
      <trkpt lat="47.27885" lon="-1.5234">
        <ele>5.7621</ele>
      </trkpt>
      <trkpt lat="47.2787" lon="-1.52363">
        <ele>6.964566</ele>
      </trkpt>
      <trkpt lat="47.27854" lon="-1.5238">
        <ele>8.569025</ele>
      </trkpt>
      <trkpt lat="47.27835" lon="-1.52386">
        <ele>10.315701</ele>
      </trkpt>
      <trkpt lat="47.27818" lon="-1.52398">
        <ele>11.18875</ele>
      </trkpt>
      <trkpt lat="47.27799" lon="-1.52406">
        <ele>11.745</ele>
      </trkpt>
      <trkpt lat="47.27778" lon="-1.52403">
        <ele>12.18586</ele>
      </trkpt>
      <trkpt lat="47.27758" lon="-1.52409">
        <ele>12.5364</ele>
      </trkpt>
      <trkpt lat="47.27744" lon="-1.52426">
        <ele>12.538531</ele>
      </trkpt>
      <trkpt lat="47.27724" lon="-1.52437">
        <ele>12.146125</ele>
      </trkpt>
      <trkpt lat="47.27708" lon="-1.52424">
        <ele>12.224566</ele>
      </trkpt>
      <trkpt lat="47.27698" lon="-1.524">
        <ele>12.837069</ele>
      </trkpt>
      <trkpt lat="47.27684" lon="-1.52382">
        <ele>13.055219</ele>
      </trkpt>
      <trkpt lat="47.27672" lon="-1.52355">
        <ele>13.337875</ele>
      </trkpt>
      <trkpt lat="47.27658" lon="-1.52337">
        <ele>13.747441</ele>
      </trkpt>
      <trkpt lat="47.27626" lon="-1.52371">
        <ele>13.89125</ele>
      </trkpt>
      <trkpt lat="47.27617" lon="-1.52396">
        <ele>13.461244</ele>
      </trkpt>
      <trkpt lat="47.27614" lon="-1.52452">
        <ele>11.110643</ele>
      </trkpt>
      <trkpt lat="47.27601" lon="-1.5251">
        <ele>6.650625</ele>
      </trkpt>
      <trkpt lat="47.27613" lon="-1.52536">
        <ele>6.126025</ele>
      </trkpt>
      <trkpt lat="47.27631" lon="-1.52556">
        <ele>6.129875</ele>
      </trkpt>
      <trkpt lat="47.27612" lon="-1.52547">
        <ele>5.864563</ele>
      </trkpt>
      <trkpt lat="47.27593" lon="-1.52532">
        <ele>5.66765</ele>
      </trkpt>
      <trkpt lat="47.27573" lon="-1.52523">
        <ele>5.3642</ele>
      </trkpt>
      <trkpt lat="47.27566" lon="-1.52548">
        <ele>5.483407</ele>
      </trkpt>
      <trkpt lat="47.27559" lon="-1.52607">
        <ele>5.559375</ele>
      </trkpt>
      <trkpt lat="47.27553" lon="-1.52634">
        <ele>5.286875</ele>
      </trkpt>
      <trkpt lat="47.27527" lon="-1.52673">
        <ele>5.548878</ele>
      </trkpt>
      <trkpt lat="47.27519" lon="-1.52697">
        <ele>5.12646</ele>
      </trkpt>
      <trkpt lat="47.27508" lon="-1.52722">
        <ele>4.9536</ele>
      </trkpt>
      <trkpt lat="47.27494" lon="-1.52775">
        <ele>5.473225</ele>
      </trkpt>
      <trkpt lat="47.27482" lon="-1.52795">
        <ele>5.537275</ele>
      </trkpt>
      <trkpt lat="47.27464" lon="-1.5281">
        <ele>5.76125</ele>
      </trkpt>
      <trkpt lat="47.27429" lon="-1.52844">
        <ele>5.477735</ele>
      </trkpt>
      <trkpt lat="47.27393" lon="-1.52862">
        <ele>5.705775</ele>
      </trkpt>
      <trkpt lat="47.27375" lon="-1.52875">
        <ele>5.389175</ele>
      </trkpt>
      <trkpt lat="47.27356" lon="-1.52884">
        <ele>5.1175</ele>
      </trkpt>
      <trkpt lat="47.27338" lon="-1.52883">
        <ele>5.5325</ele>
      </trkpt>
      <trkpt lat="47.27318" lon="-1.52896">
        <ele>5.231281</ele>
      </trkpt>
      <trkpt lat="47.27304" lon="-1.52917">
        <ele>5.9545</ele>
      </trkpt>
      <trkpt lat="47.27297" lon="-1.52941">
        <ele>5.892147</ele>
      </trkpt>
      <trkpt lat="47.27256" lon="-1.53003">
        <ele>6.09715</ele>
      </trkpt>
      <trkpt lat="47.27242" lon="-1.53022">
        <ele>6.035816</ele>
      </trkpt>
      <trkpt lat="47.27205" lon="-1.5305">
        <ele>6.361406</ele>
      </trkpt>
      <trkpt lat="47.27187" lon="-1.53058">
        <ele>6.628175</ele>
      </trkpt>
      <trkpt lat="47.27176" lon="-1.53083">
        <ele>5.495047</ele>
      </trkpt>
      <trkpt lat="47.27171" lon="-1.53109">
        <ele>4.852166</ele>
      </trkpt>
      <trkpt lat="47.27159" lon="-1.53131">
        <ele>4.724266</ele>
      </trkpt>
      <trkpt lat="47.27137" lon="-1.5314">
        <ele>5.316963</ele>
      </trkpt>
      <trkpt lat="47.27123" lon="-1.53159">
        <ele>5.194016</ele>
      </trkpt>
      <trkpt lat="47.27089" lon="-1.53186">
        <ele>5.90945</ele>
      </trkpt>
      <trkpt lat="47.27072" lon="-1.53196">
        <ele>5.406875</ele>
      </trkpt>
      <trkpt lat="47.27052" lon="-1.53191">
        <ele>5.206203</ele>
      </trkpt>
      <trkpt lat="47.27033" lon="-1.53193">
        <ele>5.562069</ele>
      </trkpt>
      <trkpt lat="47.27012" lon="-1.5324">
        <ele>5.633881</ele>
      </trkpt>
      <trkpt lat="47.26981" lon="-1.53274">
        <ele>5.3392</ele>
      </trkpt>
      <trkpt lat="47.26925" lon="-1.53298">
        <ele>6.738088</ele>
      </trkpt>
      <trkpt lat="47.26919" lon="-1.53325">
        <ele>5.464118</ele>
      </trkpt>
      <trkpt lat="47.26907" lon="-1.53351">
        <ele>4.803919</ele>
      </trkpt>
      <trkpt lat="47.26889" lon="-1.53366">
        <ele>4.983788</ele>
      </trkpt>
      <trkpt lat="47.26873" lon="-1.53386">
        <ele>4.586881</ele>
      </trkpt>
      <trkpt lat="47.2686" lon="-1.53408">
        <ele>4.284563</ele>
      </trkpt>
      <trkpt lat="47.26842" lon="-1.53427">
        <ele>4.500894</ele>
      </trkpt>
      <trkpt lat="47.26821" lon="-1.53426">
        <ele>5.559791</ele>
      </trkpt>
      <trkpt lat="47.26804" lon="-1.53414">
        <ele>6.9631</ele>
      </trkpt>
      <trkpt lat="47.26789" lon="-1.53394">
        <ele>8.173</ele>
      </trkpt>
      <trkpt lat="47.26773" lon="-1.53379">
        <ele>9.073875</ele>
      </trkpt>
      <trkpt lat="47.26758" lon="-1.53395">
        <ele>9.08505</ele>
      </trkpt>
      <trkpt lat="47.26739" lon="-1.53398">
        <ele>10.323085</ele>
      </trkpt>
      <trkpt lat="47.26704" lon="-1.53419">
        <ele>12.137137</ele>
      </trkpt>
      <trkpt lat="47.26702" lon="-1.53447">
        <ele>11.644375</ele>
      </trkpt>
      <trkpt lat="47.26706" lon="-1.53473">
        <ele>10.255</ele>
      </trkpt>
      <trkpt lat="47.26715" lon="-1.53499">
        <ele>8.675</ele>
      </trkpt>
      <trkpt lat="47.26715" lon="-1.53529">
        <ele>7.285775</ele>
      </trkpt>
      <trkpt lat="47.26721" lon="-1.53556">
        <ele>5.867262</ele>
      </trkpt>
      <trkpt lat="47.2671" lon="-1.53577">
        <ele>5.1597</ele>
      </trkpt>
      <trkpt lat="47.26694" lon="-1.53591">
        <ele>5.0175</ele>
      </trkpt>
      <trkpt lat="47.26675" lon="-1.53599">
        <ele>5.15125</ele>
      </trkpt>
      <trkpt lat="47.26655" lon="-1.53604">
        <ele>5.1575</ele>
      </trkpt>
      <trkpt lat="47.26636" lon="-1.53601">
        <ele>5.19125</ele>
      </trkpt>
      <trkpt lat="47.26619" lon="-1.53612">
        <ele>4.826528</ele>
      </trkpt>
      <trkpt lat="47.26601" lon="-1.53605">
        <ele>4.796194</ele>
      </trkpt>
      <trkpt lat="47.26568" lon="-1.53578">
        <ele>4.665625</ele>
      </trkpt>
      <trkpt lat="47.26533" lon="-1.53556">
        <ele>4.51125</ele>
      </trkpt>
      <trkpt lat="47.26513" lon="-1.53556">
        <ele>4.498075</ele>
      </trkpt>
      <trkpt lat="47.26473" lon="-1.53546">
        <ele>5.248344</ele>
      </trkpt>
      <trkpt lat="47.26453" lon="-1.53548">
        <ele>5.428025</ele>
      </trkpt>
      <trkpt lat="47.26435" lon="-1.53559">
        <ele>5.215</ele>
      </trkpt>
      <trkpt lat="47.26414" lon="-1.53565">
        <ele>5.445</ele>
      </trkpt>
      <trkpt lat="47.26375" lon="-1.53563">
        <ele>6.651756</ele>
      </trkpt>
      <trkpt lat="47.26319" lon="-1.53562">
        <ele>9.534532</ele>
      </trkpt>
      <trkpt lat="47.26281" lon="-1.53571">
        <ele>9.714188</ele>
      </trkpt>
      <trkpt lat="47.2624" lon="-1.53591">
        <ele>7.295822</ele>
      </trkpt>
      <trkpt lat="47.26219" lon="-1.53588">
        <ele>6.812025</ele>
      </trkpt>
      <trkpt lat="47.26201" lon="-1.53573">
        <ele>6.640812</ele>
      </trkpt>
      <trkpt lat="47.26181" lon="-1.53571">
        <ele>5.303137</ele>
      </trkpt>
      <trkpt lat="47.26161" lon="-1.53556">
        <ele>4.6986</ele>
      </trkpt>
      <trkpt lat="47.26144" lon="-1.53493">
        <ele>4.145644</ele>
      </trkpt>
      <trkpt lat="47.26131" lon="-1.53467">
        <ele>3.1</ele>
      </trkpt>
      <trkpt lat="47.26117" lon="-1.5345">
        <ele>3.416194</ele>
      </trkpt>
      <trkpt lat="47.261" lon="-1.53436">
        <ele>4.051622</ele>
      </trkpt>
      <trkpt lat="47.26061" lon="-1.53428">
        <ele>4.922359</ele>
      </trkpt>
      <trkpt lat="47.26021" lon="-1.53438">
        <ele>4.78875</ele>
      </trkpt>
      <trkpt lat="47.26001" lon="-1.53433">
        <ele>4.88625</ele>
      </trkpt>
      <trkpt lat="47.25944" lon="-1.53393">
        <ele>4.99125</ele>
      </trkpt>
      <trkpt lat="47.25922" lon="-1.53389">
        <ele>5.047488</ele>
      </trkpt>
      <trkpt lat="47.25879" lon="-1.53402">
        <ele>4.7825</ele>
      </trkpt>
      <trkpt lat="47.2584" lon="-1.53418">
        <ele>4.498125</ele>
      </trkpt>
      <trkpt lat="47.25798" lon="-1.53436">
        <ele>4.745544</ele>
      </trkpt>
      <trkpt lat="47.2578" lon="-1.5345">
        <ele>4.707212</ele>
      </trkpt>
      <trkpt lat="47.25767" lon="-1.53468">
        <ele>4.624063</ele>
      </trkpt>
      <trkpt lat="47.25761" lon="-1.53493">
        <ele>4.047531</ele>
      </trkpt>
      <trkpt lat="47.25744" lon="-1.53513">
        <ele>4.0233</ele>
      </trkpt>
      <trkpt lat="47.25718" lon="-1.53566">
        <ele>3.5102</ele>
      </trkpt>
      <trkpt lat="47.25701" lon="-1.53585">
        <ele>4.182938</ele>
      </trkpt>
      <trkpt lat="47.25682" lon="-1.53638">
        <ele>3.825606</ele>
      </trkpt>
      <trkpt lat="47.25663" lon="-1.53652">
        <ele>4.5558</ele>
      </trkpt>
      <trkpt lat="47.25643" lon="-1.53658">
        <ele>5.695094</ele>
      </trkpt>
      <trkpt lat="47.25629" lon="-1.53676">
        <ele>5.406328</ele>
      </trkpt>
      <trkpt lat="47.25607" lon="-1.53726">
        <ele>5.038891</ele>
      </trkpt>
      <trkpt lat="47.25595" lon="-1.53747">
        <ele>5.8034</ele>
      </trkpt>
      <trkpt lat="47.25575" lon="-1.53798">
        <ele>5.640812</ele>
      </trkpt>
      <trkpt lat="47.25562" lon="-1.53818">
        <ele>5.280175</ele>
      </trkpt>
      <trkpt lat="47.2556" lon="-1.53761">
        <ele>8.792687</ele>
      </trkpt>
      <trkpt lat="47.25551" lon="-1.53737">
        <ele>10.388525</ele>
      </trkpt>
      <trkpt lat="47.25522" lon="-1.53633">
        <ele>15.867613</ele>
      </trkpt>
      <trkpt lat="47.25516" lon="-1.53661">
        <ele>15.98465</ele>
      </trkpt>
      <trkpt lat="47.25517" lon="-1.53689">
        <ele>15.415075</ele>
      </trkpt>
      <trkpt lat="47.25588" lon="-1.53937">
        <ele>5.483578</ele>
      </trkpt>
      <trkpt lat="47.25627" lon="-1.54078">
        <ele>20.2</ele>
      </trkpt>
      <trkpt lat="47.25632" lon="-1.54055">
        <ele>19.2</ele>
      </trkpt>
      <trkpt lat="47.25618" lon="-1.54011">
        <ele>17.5</ele>
      </trkpt>
      <trkpt lat="47.25611" lon="-1.54002">
        <ele>16.4</ele>
      </trkpt>
      <trkpt lat="47.25593" lon="-1.5401">
        <ele>16.1</ele>
      </trkpt>
      <trkpt lat="47.2557" lon="-1.54019">
        <ele>15.2</ele>
      </trkpt>
      <trkpt lat="47.25564" lon="-1.54018">
        <ele>14.4</ele>
      </trkpt>
      <trkpt lat="47.2556" lon="-1.54008">
        <ele>11.6</ele>
        <time>2020-07-14T09:13:02Z</time>
      </trkpt>
    </trkseg>
  </trk>
</gpx>